awarded.txt generated on Friday 02nd of December 2016 12:09:42 PM
Field List: Contract No, Bid Open Date, Advertise Date, Award Date, Contractor, Phone, Amount, Road, Work type

03-0G6004,2016-11-01,2016-10-10,2016-11-29,S.T.RHOADES CONSTRUCTION INC.,(530)223-9322,$325,336.00,03-Col,Sac-5-VAR,Cold Plane AC Pavement and HMA Overlay
05-1G1504,2016-10-26,2016-09-12,2016-11-28,CALPORTLAND CONSTRUCTION,(805)345-3581,$11,268,900.00,05-SLO-41-19.7/R42.2,Pavement Preservation
08-0Q1304,2016-10-25,2016-10-03,2016-11-28,HIGHLAND CONSTRUCTION, INC.,(714)538-5156,$2,856,825.00,08-SBd-62-1.9/7.6,CONSTRUCT RAISED MEDIAN CURB
05-1C8704,2016-10-25,2016-09-12,2016-11-28,GRANITE ROCK COMPANY,(408)574-1400,$5,096,297.00,05-SBt-156-0.0/3.0,PAVEMENT PRESERVATION
04-2A3204,2016-10-25,2016-09-06,2016-12-01,GHILOTTI CONSTRUCTION CO. INC.,(707)585-1221,$2,734,517.00,04-Nap-121-9.2/9.4,BRIDGE REPLACEMENT (SCOUR)
05-1C8404,2016-10-20,2016-09-12,2016-11-16,GRANITE CONSTRUCTION COMPANY,(831)763-6100,$6,272,272.00,05-SBt-156-R10.0/R18.4,PAVEMENT PRESERVATION
02-4G3804,2016-10-20,2016-09-12,2016-11-30,MERCER FRASER COMPANY,(707)443-6371,$5,203,191.00,02-Tri-299-0.0/8.3,Pavement Rehabilitation
07-305204,2016-10-20,2016-09-12,2016-11-28,C. A. RASMUSSEN, INC.,(661)367-9040,$5,362,544.50,07-Ven-33-15.7,REPAIR SLOPE FAILURE
12-0H5304,2016-10-20,2016-09-12,2016-11-10,UNITED ENGINEERING & CONSTRUCTION, INC,(818)662-8055,$994,269.00,12-Ora-5-6.8, 22.8,BRIDGE # 55-620F ON NB RTE 5 (PM 6.8) IN THE CITY OF SAN JUAN CAPISTRANO BRIDGE # 55-31 ON NB RTE 5 (PM 22.8/22.9) IN THE CITY OF IRVINE
07-307204,2016-10-20,2016-09-26,2016-11-16,MYERS AND SONS CONSTRUCTION, LP,(916)283-9950,$1,375,227.10,07-LA-91, 105,110, and 405-Varies,Install High Friction Surface Treatment.
07-297404,2016-10-20,2016-09-26,2016-11-15,ALDRIDGE ELECTRIC, INC.,(847)247-5274,$2,396,294.00,07-LA-105,110-6.6R/8.0R & 13.2/14.7,INSTALL SAFETY LIGHTING AT INTRCHNG
07-290804,2016-10-19,2016-09-26,2016-11-15,GRIFFITH COMPANY,(562)929-1128,$2,462,511.00,07-LA-1-2.4/7.2,UPGRADE PEDESTRIAN FACILITIES
04-4A6704,2016-10-19,2016-09-26,2016-11-09,AMERICA PACIFIC CONSTRUCTION,(559)577-9999,$198,820.00,04-Mrn,Son,Nap-1, 29, 116,128, 131, -VARIOUS,The proposed project is in Marin, Sonoma, and Napa Counties. Goal is to improve pedestrian traffic circulation, particularly for disabled persons, by providing curb ramps in the existing sidewalks at
12-0M3504,2016-10-19,2016-08-29,2016-11-29,CHUMO CONSTRUCTION INC,(626)960-9502,$17,250,137.43,12-Ora-405-2.6/6.5,EXTEND THE 2ND AUX LN ON SB I-405 & REPLACE EXIST TEMP RAILING TO TYPE 60/60C CONCRETE BARRIER.
01-0B4404,2016-10-19,2016-09-12,2016-12-01,R. BROWN CONSTRUCTION COMPANY, INC.,(530)629-3702,$2,352,715.50,01-Hum-169-26.4/29.8,REPAIR SLIPOUTS
06-434014,2016-10-18,2016-08-29,2016-11-30,A. TEICHERT & SON INC. DBA TEICHERT CONSTRUCTION,(916)757-6400,$14,514,641.00,06-Tul-65-R15.1/18.0,WIDEN 2 LANE CONVENTIONAL HIGHWAY TO 4 LANE EXPRESSWAY
02-2C0904,2016-10-18,2016-08-29,2016-11-16,M.C.M. CONSTRUCTION, INC.,(916)334-1221,$10,151,652.00,02-Plu-70-50.6/51.7,Bridge Rehabilitation
04-4G9604,2016-10-18,2016-09-19,2016-11-09,GHILOTTI CONSTRUCTION CO. INC.,(707)585-1221,$1,241,300.00,04-Sol-37, 80-var,PAVE TO MEDIAN BARRIERS IN AREAS BEYOND GORES
11-415704,2016-10-18,2016-08-29,2016-11-14,FUTURE DB INTERNATIONAL INC.,(949)390-2110,$4,792,817.58,11-SD-78-0.0/R16.5,Instal Lighting Systems, Barrier Delineation & Upgrades, and Striping
07-305004,2016-10-13,2016-09-19,2016-11-28,AMERICAN CIVIL CONSTRUCTORS WEST COAST LLC,(707)746-8028,$2,221,000.00,07-LA-105-R0.4/R2.5,DECK METHACRYLATE, JOINT SEALS
01-0B1204,2016-10-13,2016-09-19,2016-11-10,S.T. RHOADES CONSTRUCTION, INC.,(530)223-9322,$774,386.30,01-Lak-20-13.5/30.5,UPGRADE CURB RAMPS & SIDEWALK
05-0T9904,2016-10-13,2016-09-12,2016-11-17,THE PROFESSIONAL TREE CARE CO.,(510)549-3954,$846,532.30,05-Mon-101-45.8/49.8,TREE AND MBGR REMOVAL
10-0Y6204,2016-10-13,2016-09-12,2016-11-18,PETERSON-CHASE GENERAL ENGINEERING CONSTRUCTION, INC.,(949)252-0441,$2,920,074.80,10-Mer,Sta-99-Various,Relocate overhead-sign structures at exit ramp gore areas
12-0H2704,2016-10-12,2016-09-12,2016-11-01,SPECTRUM CONSTRUCTION GROUP, INC.,(949)299-1400,$1,833,383.70,12-Ora-39-9.8/10.5,REHABILITATE DRAINAGE SYSTEMS, ALLEVIATE FLOODING.
07-240704,2016-10-12,2016-09-12,2016-11-28,STURGEON ELECTRIC CALIFORNIA, LLC,(909)591-0000,$5,203,000.00,07-LA,Ven-Var-Var,HAR UPGRADE & MODIF FOR AMBER ALERT *INACTIVE*
07-299504,2016-10-12,2016-09-19,2016-11-28,CHRISP COMPANY,(510)656-2840,$450,775.00,07-LA-1-2.6/30.7,INSTL QUICK KURB,MEDIAN RUMBLE STRI
04-3A87A4,2016-10-12,2016-09-19,2016-11-22,EMPIRE LANDSCAPING INC,(530)400-3943,$285,771.00,04-CC-680-24.3,MAINTAIN EXISTING PLANTED AREAS
07-300304,2016-10-12,2016-09-19,2016-11-28,BOSCO CONSTRUCTORS INC,(818)306-3884,$1,470,000.00,07-LA-57, 210-VARIES,SOIL STABILIZATION PROGRAM
10-0Y2204,2016-10-12,2016-09-19,2016-11-28,DIRT AND AGGREGATE INTERCHANGE, INC.,(503)661-5093,$1,058,888.00,10-Tuo-49,108-various,Upgrade metal beam guardrail and end treatment.
01-0B2604,2016-10-05,2016-08-29,2016-11-07,FLATIRON WEST INC,(707)742-6000,$3,287,062.25,01-DN-199-8.2,Shoulder Widening
05-0G0404,2016-10-04,2016-08-08,2016-11-16,SECURITY PAVING COMPANY, INC.,(818)362-9200,$53,908,138.80,05-SLO,Mon-101-63.2/R69.3, R0.0/R1.9,HIGHWAY REHAB NORTH PASO ROBLES REHAB
04-3G0704,2016-09-29,2016-09-06,2016-10-25,VALENTINE CORPORATION,(415)453-3732,$227,369.00,04-Son-1-7.2,Place Rock Slope Protection
10-0T7804,2016-09-29,2016-08-22,2016-10-27,GRANITE CONSTRUCTION COMPANY,(916)855-4400,$2,083,411.62,10-Sta-132-1.1/1.8,TRAFFIC SIGNAL INSTALLATION AND INTERSECTION WIDENING
10-0X5604,2016-09-28,2016-08-22,2016-10-31,GRANITE CONSTRUCTION COMPANY,(916)855-4400,$5,099,194.90,10-Sta-99-R18.0/R19.7,RECONSTRUCT RAMP AND INSTALL RIGHT TURN LANE
04-2594A4,2016-09-27,2016-09-06,2016-10-28,EMPIRE LANDSCAPING INC,(530)400-3943,$354,141.00,04-Nap-29-R20.4/R20.8,HIGHWAY MITIGATION PLANTING
10-0Q1604,2016-09-27,2016-08-22,2016-10-28,TEICHERT CONSTRUCTION,(916)757-6400,$8,252,000.00,10-SJ-99-0.0/5.7,Digout and repair of localized failures/AC overlay
12-0M4704,2016-09-22,2016-08-29,2016-11-09,DYNALECTRIC,(714)828-7000,$1,833,765.70,12-Ora-1-22.0/29.9,MODIFY SIGNALS, STRIPING, ADDT SAFETY LIGHTNING, ADA IMPROVEMENTS.
10-0U2904,2016-09-22,2016-08-08,2016-10-27,TEICHERT CONSTRUCTION,(530)406-4200,$1,439,591.00,10-Mer-165-35.6/36.1,Install left turn channelization.
03-4F0604,2016-09-22,2016-08-01,2016-10-19,TEICHERT CONSTRUCTION,(916)757-6400,$21,442,000.00,03-Gle-5-R0.0/R20.0,Cold Plane, RHMA paving, rumble strip, guard rail and electrical work.
10-0F2804,2016-09-21,2016-08-15,2016-10-24,K.W. EMERSON, INC.,(209)754-3839,$6,609,288.80,10-Cal-4-43.8/44.3,CONSTRUCT WALL FOR SEDIMENT CONTROL
03-0H11U4,2016-09-20,2016-08-01,2016-10-18,A. TEICHERT & SON, INC DBA TEICHERT CONSTRUCTION,(916)757-6400,$7,318,000.00,03-Sac-51, 160-4.0/4.3, R44.4/47.0,Pave HMA, replace guard rail & pull boxes, polyester bridge overlay.
04-3G59U4,2016-09-14,2016-07-05,2016-10-24,BAY CITIES PAVING & GRADING, INC.,(925)687-6666,$62,091,953.44,04-Ala-205-0.0/1.0 04-Ala-580-0.0/8.0, 26.1/30.3 10-SJ-580-13.5/15.4,Roadway Rehabilitation and Install Ramp Metering
10-0V6204,2016-09-14,2016-08-22,2016-10-19,GEORGE REED, INC.,(209)523-0734,$1,296,126.50,10-Cal-26-8.3/8.6,SIGNALIZATION AND CHANNELIZATION
06-0T6504,2016-09-14,2016-08-01,2016-10-31,MERCER FRASER COMPANY,(707)443-6371,$3,166,205.00,06-Fre-5-10.0/20.0,R A C Overlay
08-0R4804,2016-09-13,2016-08-22,2016-10-24,ARAMEXX CONSTRUCTION,(909)746-8066,$1,326,115.00,08-SBd-10, 60-6.2/9.2, R3.4/R4.6,IMPROVE WORKER SAFETY CONDITIONS. UPGRADE GUARDRAIL AND ROADSIDE FACILITIES.
10-0X6404,2016-09-13,2016-08-15,2016-10-11,BRIDGEWAY CIVIL CONSTRUCTORS, INC.,(707)455-7033,$1,379,083.00,10-SJ-99-18.5/20.8, 29.3/33.7,Construct slope paving, gore paving, and maintenance vehicle pullouts.
06-0K8004,2016-09-08,2016-08-01,2016-10-27,VIKING CONSTRUCTION COMPANY,(916)852-5530,$2,323,980.00,06-Fre,Kin-33, 41, 43-Var,SEISMIC RESTORATION
01-0B5204,2016-09-08,2016-08-08,2016-11-03,GORDON N. BALL, INC.,(925)838-5675,$1,518,247.00,01-Men-128-39.5,STABILIZE ROADWAY
10-0V3004,2016-09-08,2016-08-01,2016-10-04,GEORGE REED INC,(209)523-0730,$1,418,057.50,10-Cal,Mpa-4,49,140-Var,PEDESTRIAN ACCESSIBILITY IMPROVEMENTS
04-3G0604,2016-09-07,2016-08-08,2016-10-06,CCFG CONSTRUCTION,(209)743-4911,$479,450.00,04-Sol-680-R7.7/R7.8,REPLACE CULVERT
06-0H6424,2016-09-07,2016-08-01,2016-11-03,M.C.M. CONSTRUCTION, INC.,(916)334-1221,$4,177,777.00,06-Ker-99-49.6,Construct pedestrian overcrossing bridge.
02-4G4904,2016-09-07,2016-08-01,2016-10-11,TULLIS, INC.,(530)241-5105,$2,063,478.00,02-Sha-44-44.9/45.5,Curve Improvement
11-417804,2016-09-01,2016-08-01,2016-09-26,PETERSON-CHASE GENERAL ENGINEERING CONSTRUCTION, INC.,(949)252-0441,$984,493.90,11-SD-8,15,52,56,67,76,78,805-Various,CLEAN AND TREAT BRIDGE DECK WITH METHACRYLATE, AND REPLACE JOINT SEALS AND APPROACH SLAB
06-0M2504,2016-08-31,2016-08-01,2016-10-06,MYERS AND SONS CONSTRUCTION, LP,(916)283-9950,$2,334,067.10,06-Fre-198-35.3/35.6,BRIDGE DECK REPLACEMENT
05-0Q6004,2016-08-31,2016-07-25,2016-09-30,GRANITE ROCK COMPANY,(408)574-1400,$5,664,663.60,05-SCr-17-1.0/1.4,STORM WATER MITIGATION
06-0K8104,2016-08-30,2016-07-25,2016-09-30,BRIDGEWAY CIVIL CONSTRUCTORS, INC.,(707)455-7033,$2,278,116.94,06-Ker-99, 178-26.8, R2.0,SEISMIC RESTORATION
05-1A7504,2016-08-30,2016-07-25,2016-10-05,GRANITE CONSTRUCTION COMPANY,(805)964-9900,$6,219,346.00,05-SB-246-R20.7/26.3,PAVEMENT PRESERVATION (CAP M)
03-3F8204,2016-08-25,2016-08-01,2016-09-22,GD LONG ELECTRIC COMPANY,(707)252-3512,$1,604,234.00,03-But,ED,Nev,Pla,Sac,Sol,Yol-VAR-VAR,Update Highway Advisory Radios
01-0B5004,2016-08-25,2016-06-20,2016-10-13,O.C. JONES & SONS, INC,(510)526-3424,$12,791,500.11,01-Men-101-3.8, 5.3,REPAIR SLIDES
08-1E0104,2016-08-25,2016-08-01,2016-09-20,CHUMO CONSTRUCTION INC,(626)960-9502,$1,212,100.65,08-SBd-15-37.8/40.2,INSTALL OUTER SEPARATION BARRIER
10-1E2004,2016-08-25,2016-08-01,2016-09-21,CENTRAL STRIPING SERVICE, INC.,(916)635-5175,$743,050.07,10-Mpa,Sta-132-Var,Rumble Strip
07-309404,2016-08-25,2016-08-01,2016-09-20,AMERICAN CIVIL CONSTRUCTORS WEST COAST LLC,(707)746-8028,$444,440.00,07-LA-5-R47.7/R47.9,Install High Friction Surface Treatment
03-0F3204,2016-08-25,2016-08-01,2016-09-16,GEORGE REED INC,(209)523-0730,$3,764,786.00,03-Sac-160-L4.2/L10.8,Cold Plane AC Pavement and RHMA-G Overlay
01-0E2004,2016-08-24,2016-07-25,2016-09-14,BUGLER CONSTRUCTION,(925)416-0700,$1,402,262.00,01-Men-1-43.7/69.7,Rehabilitate Bridges
03-4F0904,2016-08-24,2016-08-01,2016-09-20,MYERS AND SONS CONSTRUCTION, LP,(916)283-9950,$2,570,654.50,03-Sac-5, 80-17.2, M8.9,Rehabilitate Bridge Decks
03-4F4104,2016-08-24,2016-08-01,2016-09-29,ACTIVU CORPORATION D/B/A IMTECH CORPORATION,(973)343-4900,$1,214,893.77,03-Sac-3074,Electrical Work to Replace Video Panels
01-0G0904,2016-08-24,2016-08-01,2016-09-16,GRANITE CONSTRUCTION COMPANY,(707)467-4100,$2,063,979.10,01-Men-20-33.6/R38.5,Cold Plane AC Pavement, RHMA Overlay, Pavement Delineation
06-0P2704,2016-08-23,2016-07-25,2016-09-21,DREAMBUILDER CONSTRUCTION CORP,(714)646-3697,$1,626,061.00,06-Ker-43-16.4/R25.0,ADA CURB RAMPS
01-0C3704,2016-08-23,2016-07-25,2016-11-01,BUGLER CONSTRUCTION,(925)416-0700,$3,141,910.00,01-Men-101-R89.2,Bridge Preservation
11-237964,2016-08-23,2016-07-11,2016-09-26,HAZARD CONSTRUCTION COMPANY,(858)587-3600,$5,164,927.15,11-SD-8-5.4/10.6, R20.0/R21.6,CONSTRUCT TRANSPORTATION MANAGEMENT SYSTEMS
05-1C1104,2016-08-23,2016-07-25,2016-09-14,SOUZA CONSTRUCTION, INC.,(805)546-8288,$1,824,310.00,05-SLO-101-12.4/29.7,ROADSIDE SAFETY IMPROVEMENTS
07-307304,2016-08-23,2016-08-01,2016-09-22,DREAMBUILDER CONSTRUCTION CORP,(714)646-3697,$917,061.00,07-LA-5, 14-R59.7/R73.2, 35.5/R77.1,INST RIGHT &LEFT SHLDR RUMBLE STRIP
01-262014,2016-08-16,2016-06-20,2016-11-09,MERCER FRASER COMPANY,(707)443-6371,$8,365,056.00,01-Men-101-52.1/52.6,RYAN CREEK FISH PASSAGE - COHO SALMON MITIGATION
04-445004,2016-08-16,2016-07-18,2016-09-15,FBD VANGUARD CONSTRUCTION,(925)245-1300,$1,207,272.00,04-SCl-17-7.7,INSTALL WEIGH-IN-MOTION SYSTEM
11-416804,2016-08-10,2016-07-05,2016-11-03,WESTERN RIM CONSTRUCTORS, INC.,(760)489-4328,$1,131,884.65,11-SD-8, 163-2.4, 3.7,HIGH FRICTION SURFACE TREATMENT, IMPROVE DRAINAGE, DELINEATION
12-0M4904,2016-08-09,2016-06-20,2016-09-20,POWELL CONSTRUCTORS INC,(909)356-8880,$10,562,457.00,12-Ora-5-1.2/2.2,ENHANCE CURVE, BUILD UP THE APPROACH & DEPT FROM THE BRIDGE AND INSTALL OVERHEAD WARNING SIGN.
07-279114,2016-08-09,2016-06-20,2016-09-19,ORTIZ ENTERPRISES, INC.,(949)753-1414,$15,018,746.97,07-LA-60-R24.4/R25.3,Construct ramps and auxiliary lane.
04-1A2004,2016-08-09,2016-07-18,2016-09-15,GRANITE ROCK COMPANY,(408)574-1400,$1,150,293.00,04-SCl-152-R26.9,INSTALL TRAFFIC CENSUS STATION WITH WEIGH-IN-MOTION
11-295204,2016-08-03,2016-06-06,2016-09-06,GRANITE CONSTRUCTION COMPANY,(760)444-1032,$3,496,193.04,11-SD-94-59.6/60.2,CURVE REALIGNMENT
04-4G5524,2016-08-02,2016-07-11,2016-09-19,ST FRANCIS ELECTRIC,(510)639-0639,$1,269,686.00,04-Sol-29-0.8/3.0,Install Crosswalk Safety Enhancements
04-3G6704,2016-08-02,2016-07-11,2016-09-06,DREAMBUILDER CONSTRUCTION CORP,(714)646-3697,$1,225,061.00,04-SM-101-0.9/17.9,CONSTRUCT ROADSIDE PAVEMENT
06-0R0704,2016-07-28,2016-06-20,2016-09-06,GRANITE CONSTRUCTION COMPANY,(559)441-5700,$8,038,966.00,06-Mad-99-1.5/9.5,Pavement Preservation (CAPM)
08-0K5214,2016-07-28,2016-06-27,2016-09-21,SEMA CONSTRUCTION, INC,(949)470-0500,$1,866,567.62,08-SBd-15-11.1,Install drainage and replace portion of route 15 with PCC and RSC
06-0N9904,2016-07-27,2016-06-20,2016-10-13,VIKING CONSTRUCTION COMPANY,(916)852-5530,$4,425,464.00,06-Fre,Mad-41U-33.1/33.4,0.0/0.3,Bridge seismic retrofit and upgrade rail.
08-0R1304,2016-07-27,2016-06-20,2016-11-09,GRANITE CONSTRUCTION COMPANY,(760)775-7500,$4,718,520.00,08-SBd-62-16.8/25.2,INSTALL A TWO WAY LEFT TURN LANE (TWLTL) & WIDEN SHOULDERS TO 8 FEET
12-0N5904,2016-07-27,2016-06-20,2016-08-29,YAKAR,(909)599-1612,$647,819.00,12-Ora-39-11.7/12.2,Install crosswalk,pedestrian signal,raise median & wrought iron fence
04-0G6414,2016-07-27,2016-07-05,2016-09-06,BUGLER CONSTRUCTION,(925)416-0700,$186,220.00,04-Son-116-10.4, 10.5,REPAIR SEISMIC DEFICIENCIES OF RUSSIAN RIVER VIADUCTS AT PM 10.38 AND 10.46.
07-2W6604,2016-07-27,2016-06-27,2016-09-06,ODONNELL CONSTRUCTION, INC.,(909)394-4510,$885,228.01,07-LA-10-26.8/30.8,CLOSURE POUR, JOINT SEAL, SPALL REPAIR, MET
12-0J6604,2016-07-26,2016-06-20,2016-08-25,LANDSCAPE SUPPORT SERVICES,(818)475-0680,$1,946,325.46,12-Ora-241-14.5/32.5,REVEGETATION OF EXPOSED SLOPES FOR NPDES CONCERNS AND SOURCE CONTROL
03-3F9404,2016-07-26,2016-06-20,2016-08-26,VINTAGE PAVING COMPANY, INC,(530)795-0132,$2,076,954.50,03-Sac-99-8.5/22.4,ROADSIDE PAVING, SLOPE PAVING, VEGETATION REMOVAL, PLACE INERT MATERIALS.
08-1F9004,2016-07-20,2016-06-27,2016-08-10,JABRE CONTRACTING INC.,(310)720-0277,$243,142.00,08-SBd-18-58.8/73.4,INSTALL CENTERLINE GROUND-IN RUMBLE STRIPS
11-263314,2016-07-20,2016-06-20,2016-08-16,MARINA LANDSCAPE INC.,(714)939-6600,$1,463,237.00,11-Imp-8-R38.8/R39.2,LANDSCAPE MITIGATION
11-299304,2016-07-19,2016-06-27,2016-08-24,SPECTRUM CONSTRUCTION GROUP, INC.,(949)299-1400,$1,219,022.41,11-SD-5-R48.7, R59.6,REPAIR PILE CAP AND COLUMNS, TREAT DECK WITH METHACYLATE, AND REPLACE JOINT SEALS AND UNSOUND CONCRETE
08-1E1004,2016-07-19,2016-06-20,2016-10-18,HIGHLAND CONSTRUCTION, INC.,7145385156,$1,033,238.50,08-Riv-79-R33.9,INSTALL TRAFFIC SIGNAL, ADD THROUGH-LANE EACH DIRECTION AND PROVIDE STANDARD 8 FOOT SHOULDERS
05-1G4004,2016-07-19,2016-06-27,2016-08-15,CHRISP COMPANY,(510)656-2840,$204,444.50,05-SCr-152-3.7/8.3,Centerline Rumble Strip
12-0N6804,2016-07-19,2016-06-27,2016-08-16,CALIFORNIA PROFESSIONAL ENGINEERING, INC.,(626)810-1338,$312,964.45,12-Ora-72-11.9,Modify Signals. Add safety Lighting. Update ADA to current standards. Refresh Pavement Dellineation.
06-0M3704,2016-07-19,2016-06-13,2016-08-10,GRANITE CONSTRUCTION COMPANY,(559)441-5768,$3,184,184.00,06-Kin-43, 137-1.3/1.7, 0.0/0.2,CONSTRUCT ROUNDABOUT
12-0L7204,2016-07-13,2016-06-06,2016-09-06,CHUMO CONSTRUCTION INC,(626)960-9502,$4,406,407.10,12-Ora-74-2.9/5.0,CONSTRUCT 4-FOOT RIGHT SHOULDER, PAVE TURNOUTS, REPLACE/ADD MBGR
05-1C1204,2016-07-13,2016-06-13,2016-11-22,GRANITE CONSTRUCTION COMPANY,(805)964-9951,$1,728,702.00,05-SB-101-0.4/11.7,ROADSIDE SAFETY IMPROVEMENTS
06-0S4804,2016-07-12,2016-06-13,2016-08-01,CAL VALLEY CONSTRUCTION,(559)274-0300,$4,049,391.50,06-Tul-65-R9.3/14.0,PAVEMENT REHABLITATION (2R)
08-1E6604,2016-07-12,2016-06-20,2016-08-08,HIGHLAND CONSTRUCTION, INC.,(714)538-5156,$722,451.00,08-Riv-79-R33.8/40.0,INSTALL DRAINAGE INLETS
07-288204,2016-07-07,2016-05-31,2016-09-06,GRIFFITH COMPANY,(714)984-5500,$2,508,000.00,07-LA-5,60-16.0/16.8 & 0.1/R3.1,STORM WATER SOURCE CONTROL
11-409704,2016-07-07,2016-05-31,2016-07-29,HAZARD CONSTRUCTION COMPANY,(858)587-3600,$1,497,816.80,11-SD-8,15,163-Var,ROADSIDE SAFETY IMPROVEMENTS
03-3F8104,2016-07-07,2016-06-13,2016-08-01,TIM PAXINS PACIFIC EXCAVATION, INC,(916)686-2800,$1,053,398.00,03-ED,Nev,Pla,Sac,Yol-5, 28, 50, 51, 80, 89, 99, 267-VAR,Repair and Upgrade Roadside Weather Information Systems
10-0Q2904,2016-07-06,2016-06-06,2016-07-29,GEORGE REED, INC.,(209)523-0734,$1,219,048.00,10-Mer-165-29.8/30.3,IMPROVE CURVE RADIUS, SUPERELEVATION, WIDEN SHOULDER, INSTALL RUMBLE STRIP
04-4H2224,2016-07-06,2016-05-31,2016-11-08,DESILVA GATES CONSTRUCTION,(925)829-9220,$3,438,634.00,04-Ala-24, 580-R2.079, R41.4/46.1,Rehabilitate pavementcurb ramps.
08-0R5404,2016-07-06,2016-06-13,2016-08-10,ARAMEXX CONSTRUCTION,(909)746-8060,$837,864.00,08-SBd-15-32.5/42.2,INSTALL ROCK BLANKET
11-409804,2016-06-29,2016-05-23,2016-07-22,PAL GENERAL ENGINEERING INC,(858)638-7100,$1,668,297.83,11-SD-78-1.5/12.2,ROADSIDE SAFETY IMPROVEMENTS INSTALL ACCESS GATE, CONSTRUCT MVPS, PAVE BEYOND GORE AREAS, REPLACE METAL BEAM GUARD RAIL WITH CONCRETE BARRIER.
03-0H9904,2016-06-29,2016-06-06,2016-07-26,CENTRAL STRIPING SERVICE, INC.,(916)635-5175,$312,268.07,03-Nev,Pla-20, 267-0.0/R6.6, 6.8/9.9,INSTALL CENTERLINE RUMBLE STRIPS AND SHOULDER RUMBLE STRIPS
07-289204,2016-06-28,2016-05-23,2016-08-01,STL LANDSCAPE, INC.,(323)581-8200,$2,250,000.00,07-LA-710-R15.8/24.6,SOURCE CONTROL
03-0H7304,2016-06-28,2016-06-06,2016-07-26,LINEAR OPTIONS, INC.,(530)896-1800,$238,585.00,03-Col,Sut,Yol-16, 20, 80-Var,Install Centerline and Shoulder Rumble Strips
03-0H7104,2016-06-22,2016-05-31,2016-07-20,APPLY-A-LINE, INC.,(530)365-4000,$137,043.80,03-But,Gle-32-R4.2/9.6,0.4/4.6,Install Edgeline and Shoulder Rumble Strips
06-0S3504,2016-06-22,2016-05-23,2016-07-20,CORAL CONSTRUCTION COMPANY,(503)682-2252,$4,410,514.00,06-Kin,Fre-5-21.6/26.7,0/2.3,10.9/14.9,Construct High Tension Cable Median Barrier
10-0G8204,2016-06-21,2016-04-18,2016-07-20,BAY CITIES PAVING & GRADING, INC.,(925)687-6666,$24,111,632.65,10-SJ-132-0.4/7.1,REPAIR PCC PAVEMENT
03-4F9804,2016-06-21,2016-05-23,2016-07-26,WESTERN STRUCTURES,(951)352-4300,$1,129,392.53,03-Sac-51-4.1/4.4,Construct concrete median barrier, remove four trees and existing MBGR, erosion control, plant establishment and electrical
04-1SS594,2016-06-15,2016-05-16,2016-08-10,GHILOTTI BROS., INC.,(415)454-7011,$386,648.00,04-Mrn-580-2.7,Regrade slope and repair down drain
08-1F8604,2016-06-15,2016-05-23,2016-07-20,V A P CONSTRUCTION INC,(714)253-3270,$690,575.00,08-Riv-243-0.7/2.8,7.8/28.3,PLACE CENTERLINE RUMBLE STRIPS
06-0T5004,2016-06-14,2016-05-23,2016-07-20,CENTRAL STRIPING SERVICE, INC.,(916)635-5175,$352,950.07,06-Mad-41-5.2/34.7,Construct centerline rumble strip.
01-293024,2016-06-14,2016-05-09,2016-07-12,M.C.M. CONSTRUCTION, INC.,(916)334-1221,$777,777.00,01-Men-101-42.1,UPGRADE BRIDGE RAIL
12-0716U4,2016-06-09,2016-05-09,2016-07-12,GRIFFITH COMPANY,(714)984-5500,$2,863,999.53,12-Ora-22,405,605-R0.3/R2.9, 20.4/24.0, 3.0/R1.6,HIGHWAY REPLACEMENT LANDSCAPE
07-3X0214,2016-06-08,2016-05-02,2016-06-30,C. A. RASMUSSEN, INC.,(661)367-9040,$3,257,212.60,07-Ven-150-27.4, 29.4,REPAIR SLOPE FAILURE
12-0N3604,2016-06-08,2016-05-02,2016-06-30,ODONNELL CONSTRUCTION, INC.,(909)394-4510,$1,241,742.00,12-Ora-91-R1.0, 5.4,Overlay with OGAC. Enhance MBGR, lighting, drainage and signing if needed.
06-0R2304,2016-06-07,2016-05-16,2016-07-11,MYERS AND SONS CONSTRUCTION, LP,(916)283-9950,$1,741,625.93,06-Fre-41, 99, 168, 180-Various,Install High Friction Surface Treatment
04-0G7204,2016-06-07,2016-05-02,2016-07-20,BAY CITIES PAVING & GRADING, INC.,(925)687-6666,$1,656,259.30,04-SCl-152-11.9,UPGRADE INTERSECTION AND INSTALL TRAFFIC SIGNAL
02-0E24U4,2016-06-02,2016-04-18,2016-07-11,KNIFE RIVER CONSTRUCTION,(530)891-6555,$4,949,400.40,02-Plu-89-20.0/20.6,Sidewalks and Pavement Rehabilitation
01-378134,2016-06-02,2016-05-09,2016-06-24,WYLATTI RESOURCE MANAGEMENT,(707)983-8135,$796,604.92,01-Men-128-30.1/48.5,Culvert Rehabilitation
01-0E3604,2016-06-02,2016-05-09,2016-06-27,ROLLN ROCK CONSTRUCTION INC.,(530)925-1408,$271,976.50,01-Hum-96-3.4/35.9,Repair Drainage Systems
04-4G5514,2016-06-02,2016-05-02,2016-07-28,ST FRANCIS ELECTRIC,(510)639-0639,$4,574,894.00,04-SM-82/84-1.4/25.1 & 23.1/24.1,Install Crosswalk Safety Enhancements
04-2J2604,2016-06-01,2016-05-09,2016-06-27,PETERSON-CHASE GENERAL ENGINEERING CONSTRUCTION, INC.,(949)252-0441,$1,933,586.80,04-SF,SM-101, 280-var,TREAT BRIDGE DECKS WITH METHACRYLATE AND REPLACE JOINT SEALS
07-2849U4,2016-06-01,2016-04-25,2016-06-27,BEADOR CONSTRUCTION COMPANY, INC.,(951)674-7352,$1,367,300.00,07-LA-118-R4.8,Ramp Widening
02-4G2604,2016-06-01,2016-05-02,2016-06-24,DIG IT CONSTRUCTION, INC.,(530)258-3306,$919,893.00,02-Plu-147-0.0/1.0,Roadway Rehabilitation
09-364304,2016-05-26,2016-04-11,2016-07-12,ROAD AND HIGHWAY BUILDERS LLC,(775)852-7200,$10,757,757.00,09-Mno-395-106.3/120.5,Cold planing, cold in-place recycling and hot mix asphalt overlay.
07-4T7704,2016-05-26,2016-05-02,2016-09-12,CALPROMAX ENGINEERING, INC,(714)757-5738,$345,095.99,07-LA-91-R12.9/R13.7,Modify Signal and Lighting
05-1C8304,2016-05-25,2016-04-11,2016-07-12,CALPORTLAND CONSTRUCTION,(805)345-3581,$11,099,678.00,05-SB-154-R5.9/22.9,PAVEMENT PRESERVATION
01-0B2904,2016-05-25,2016-04-18,2016-07-11,SHASTA SERVICES, INC. DBA TIMBERWORKS,(530)926-4093,$2,443,350.36,01-DN-101-22.9,Construct Soldier Pile Wall
11-419704,2016-05-25,2016-04-25,2016-06-20,HAZARD CONSTRUCTION COMPANY,(858)587-3600,$764,235.50,11-SD-5,52-R25.5/R26.3,0.0/0.6,Replace AC surfacing, cold plane and overlay with rubberized HMA
07-4P0204,2016-05-25,2016-05-02,2016-09-12,V A P CONSTRUCTION INC,(714)253-3270,$323,575.00,07-LA-138-44.9,INSTALL TRAFFIC SIGNAL
04-2J2504,2016-05-24,2016-04-25,2016-06-20,ETIC,(925)602-4710,$1,615,899.55,04-SCl-Var-Var,TREAT BRIDGE DECKS WITH METHACRYLATE AND REPLACE JOINT SEALS
08-1G0604,2016-05-24,2016-05-02,2016-06-24,VSS INTERNATIONAL, INC.,(916)373-1500,$2,586,532.25,08-Riv-177-0.0/27.0,Localized Dig-Out and place Asphalt Rubber Binder Seal Coat
06-0L3404,2016-05-24,2016-04-18,2016-06-20,GRANITE CONSTRUCTION COMPANY,(559)441-5768,$2,749,067.00,06-Fre-168-T30.1/T30.4,INTERSECTION IMPROVEMENT
08-0R4504,2016-05-24,2016-05-02,2016-06-24,A. M. CONCRETE, INC.,(818)362-8300,$839,825.00,08-SBd-15-R20.0/R23.0,INSTALL VEGETATION CONTROL UNDERNEATH METAL BEAM GUARDRAIL.
05-1E0504,2016-05-19,2016-04-18,2016-06-13,DREAMBUILDER CONSTRUCTION CORP,(714)646-3697,$1,180,701.00,05-Mon-101-52.4/55.2, 60.5/60.8,REPLACE AND UPGRADE MBGR, CRASH CUSHIONS, END TREATMENTS & DRAINAGE
06-0T8704,2016-05-19,2016-04-11,2016-06-17,SECURITY PAVING COMPANY, INC.,(818)362-9200,$3,350,598.00,06-Tul-99-51.3/52.3,ROADWAY REHABILITATION
04-3J6904,2016-05-19,2016-04-11,2016-06-22,ALTA ENGINEERING GROUP, INC,(415)648-4309,$470,796.00,04-SM-280-18.3, 18.6,UPGRADE PUMP STATION
04-4J6104,2016-05-19,2016-04-25,2016-06-23,BAY CITIES PAVING & GRADING, INC.,(925)687-6666,$2,389,081.30,04-Ala-980-0.3/1.7,Cold plane asphalt concrete pavement and RHMA overlay
10-1E4304,2016-05-19,2016-04-25,2016-06-22,GEORGE REED INC,(209)523-0730,$1,401,131.00,10-Ama-88-R60.8/66.6,Hot mix asphalt overlay
01-0A3704,2016-05-18,2016-04-11,2016-06-20,STEVE MANNING CONSTRUCTION, INC.,(530)222-0810,$1,791,249.30,01-Hum-299-R23.0/R24.0,SHOULDER WIDENING
08-0K8414,2016-05-18,2016-04-18,2016-06-22,RE COM DEVELOPMENT COMPANY,(760)873-3301,$920,206.04,08-SBd-L5726-L5726,RECONSTRUCT OFFICE BUILDING B (STAGE 1)
04-3J6804,2016-05-18,2016-04-25,2016-06-24,MARTIN BROTHERS CONSTRUCTION,(916)381-0911,$734,416.00,04-Sol-113-20.4/21.2,Replace asphalt concrete pavement.
04-3J4304,2016-05-18,2016-04-25,2016-06-20,NORCAL GENERAL CONSTRUCTION CORPORATION,(408)886-0335,$646,645.00,04-SM-280-10.8,Remove and replace HPS with LED lighting.
04-3J5304,2016-05-18,2016-04-25,2016-06-24,O.C. JONES & SONS, INC.,(510)526-3424,$2,493,700.00,04-SCl-237-6.9/R9.2,Rubberized hot mix asphalt (gap graded) resurfacing.
10-0X6304,2016-05-18,2016-04-11,2016-06-24,GRANITE CONSTRUCTION COMPANY,(559)441-5700,$1,462,514.00,10-Mer-99-15.1/16.0,PLACE VEHICLE PULLOUTS, STAIR CASES, AND WEED BARRIER, REGRADE SLOPE
04-1J6904,2016-05-17,2016-04-25,2016-06-24,ARROW FENCING,(707)485-1128,$513,900.00,04-SF-101, 280-3.5/4.0, R6.7,Upgrade Fences and Gates
08-1E3004,2016-05-17,2016-04-25,2016-06-30,V A P CONSTRUCTION INC,(714)253-3270,$634,575.00,08-Riv-15-33.1 / 35.8,INSTALL RAMP METERING SYSTEMS
04-1J3804,2016-05-17,2016-04-25,2016-06-09,AMERICAN CIVIL CONSTRUCTORS WEST COAST LLC,(707)746-8028,$326,250.00,04-Son-101-var,TREAT BRIDGE DECKS WITH METHACRYLATE AND REPLACE JOINT SEALS
04-3J4704,2016-05-17,2016-04-25,2016-06-09,ARGONAUT CONSTRUCTORS,(707)542-4862,$933,180.64,04-Mrn-1-22.8/28.5,46.2/50.5,COLD PLANE AC PAVEMENT AND PLACE HMA(TYPE A)
05-1G4604,2016-05-17,2016-04-11,2016-06-13,SOUZA CONSTRUCTION, INC.,(805)546-8288,$1,088,296.00,05-SLO-101-R24.3,Replace bridge rail
04-4J1104,2016-05-12,2016-04-18,2016-06-13,TELFER PAVEMENT TECHNOLOGIES, LLC,(916)383-1756,$1,136,070.00,04-SM-84-17.0/21.5,Cold plane AC pavement and overlay with RHMA-G (BWC).
04-4J6304,2016-05-12,2016-04-11,2016-06-28,NORTHSTATE EARTH AND WATER INC.,(530)351-3604,$364,905.00,04-Sol-80-17.2,Build materials storage bins with canopy.
03-3F8404,2016-05-12,2016-04-18,2016-06-17,TIM PAXINS PACIFIC EXCAVATION, INC,(916)686-2800,$5,686,095.00,03-But,ED,Pla,Nev,Sac,Sut,Yol-VAR-Var,Repair traffic detection equipment and upgrade communications infrastructure.
08-1F1104,2016-05-12,2016-04-18,2016-06-30,BRM,(406)261-5359,$722,500.00,08-SBd-38-38.6-L5759,Building Construction
04-1J5804,2016-05-11,2016-04-11,2016-06-09,CERTIFIED COATINGS COMPANY,(707)639-4414,$4,143,212.00,04-Ala-880-28.2,SPOT BLAST CLEAN AND PAINT THE STEEL GIRDERS
07-4T7104,2016-05-11,2016-04-18,2016-06-17,FERREIRA CONSTRUCTION CO, INC.,(909)606-5900,$403,921.00,07-LA-66-2.9,Install Traffic Signal
12-0P2604,2016-05-11,2016-04-11,2016-06-17,ALL AMERICAN ASPHALT,(951)736-7600,$952,187.10,12-Ora-5-24.8,EXPAND PARK AND RIDGE FACILITY TO NONE INCREASE NUMBER OF PARKING SPACES.
01-0E5704,2016-05-11,2016-04-18,2016-06-08,J.F. SHEA CONSTRUCTION, INC.,(530)246-4292,$934,014.25,01-Hum-101, 299-VAR,Bridge Repair
03-0H1804,2016-05-10,2016-04-18,2016-06-17,CAL ELECTRO, INC.,(530)223-5937,$888,755.00,03-Nev-80-19.3,Rehabilitate Inspection Facility and Add Water Supply System
04-1J7104,2016-05-10,2016-04-11,2016-06-09,VINTAGE PAVING COMPANY, INC,(530)795-0132,$785,449.53,04-Sol-780-1.4,INSTALL DRAINAGE SYSTEM
01-0B2804,2016-05-10,2016-04-11,2016-06-08,J.F. SHEA CONSTRUCTION, INC.,(530)246-4292,$3,548,901.00,01-DN-101-17.4,RECONSTRUCT ROADWAY
04-3J4404,2016-05-10,2016-04-18,2016-06-14,GEORGE REED, INC.,(209)523-0734,$1,050,848.00,04-Sol-12-R23.5/25.5,Cold plane asphalt concrete pavement and RHMA overlay.
12-0J6504,2016-05-10,2016-04-11,2016-06-17,ORTIZ ENTERPRISES, INC.,(949)753-1414,$1,568,933.50,12-Ora-261-0.0/6.2,REVEGETATION OF EXPOSED SLOPES FOR NPDES CONCERNS AND SOURCE CONTROL
10-0Y6304,2016-05-05,2016-03-28,2016-06-24,MIDSTATE BARRIER, INC.,(209)944-9565,$2,499,244.50,10-Mer-99-23.7/R30.4,INSTALL DOUBLE THRIE BEAM MEDIAN BARRIER
08-0Q7904,2016-05-05,2016-02-29,2016-06-03,ORTIZ ENTERPRISES, INC.,(949)753-1414,$6,697,874.00,08-SBd-40-R93.1/94.2,BRIDGE REPLACEMENT (BR #54 0889L&R)
12-0H2434,2016-05-05,2016-04-11,2016-06-15,YAKAR,(909)599-1612,$1,663,845.00,12-LA,Ora-91-R20.6/R20.7, R0.0/R2.8,FROM LOS ANGELES COUNTY LINE TO STANTON AVENUE UNDERCROSSING IN ORANGE COUNTY
07-302604,2016-05-04,2016-03-07,2016-07-22,MYERS AND SONS CONSTRUCTION, LP,(916)283-9950,$11,699,669.00,07-LA-57-R4.4/R12.1,Pavement Rehabilitation
04-1J5704,2016-05-04,2016-04-11,2016-06-03,TECHNO COATINGS INC.,(714)635-1130,$1,814,337.00,04-SCl-17, 880-VAR,SPOT BLAST CLEAN AND PAINT THE STEEL GIRDERS
09-362104,2016-05-04,2016-04-11,2016-06-07,QUALCON CONTRACTORS, INC.,(775)782-2006,$397,558.00,09-Iny-395-76.0/77.0,Construct hot mix asphalt median.
11-413504,2016-05-03,2016-02-29,2016-06-23,GRANITE CONSTRUCTION COMPANY,(760)444-1000,$11,043,799.00,11-SD-8-15.3/R21.6,PAVEMENT REHABILITATION
12-0P4504,2016-05-03,2016-04-04,2016-06-03,AUTOBAHN CONSTRUCTION INC.,(714)769-7025,$3,833,501.00,12-Ora-57-11.0/22.5,PCC Groove and Slab Replacement
05-1F3404,2016-04-28,2016-03-28,2016-06-08,GRANITE ROCK COMPANY,(408)574-1400,$3,463,896.00,05-SCr-236-0.1/17.7,HMA Overlay
04-1J3504,2016-04-28,2016-04-04,2016-06-13,TRUESDELL CORPORATION OF CALIFORNIA,(602)437-1711,$1,253,028.00,04-Ala-13, 80, 880-VAR,TREAT BRIDGE DECKS WITH METHACRYLATE AND REPLACE JOINT SEALS
12-0N0404,2016-04-28,2016-03-14,2016-05-27,R.J. NOBLE COMPANY,(714)637-1550,$12,193,518.80,12-Ora-55,91-14.7/R17.9, 7.5/R18.9 08-Riv-91-R0.0/R1.6,Rehabilitate 40-ln mile AC Pavement and Replace 6 CMS.
05-4482U4,2016-04-27,2016-02-29,2016-06-20,SECURITY PAVING COMPANY, INC.,(818)362-9200,$52,615,740.00,05-SB-101-2.2/3.3,RECONSTRUCT INTERCHANGES (2) AND REPLACE CARPINTERIA CR BR LINDEN & CASITAS PASS IC
07-2W9504,2016-04-27,2016-03-21,2016-05-27,ODONNELL CONSTRUCTION, INC.,(909)394-4510,$594,774.44,07-LA-10, 39, 71, 210, 605-Var,Patch Spalls, Math Bridge, Joint Seals
07-2159U4,2016-04-27,2016-03-07,2016-05-27,SECURITY PAVING COMPANY, INC.,(818)362-9200,$139,567,930.11,07-LA,Ora-5-0.0/1.5, 44.3/44.4,Widen and realign freeway (segment 2), AC pvmt, median barriers, signs, lighting, ramp meters, drainage
12-0P4904,2016-04-27,2016-04-04,2016-06-03,R.J. NOBLE COMPANY,(714)637-1550,$1,081,005.10,12-Ora-55,57,405-Var,Resurface at various ramps.
10-0Y5714,2016-04-27,2016-03-28,2016-06-09,STUDEBAKER BROWN ELECTRIC,INC,(916)678-4660,$491,139.00,10-Sta-99-R17.3/M18.9,INSTALL AUTOMATED WARNING SYSTEM (AWS)
04-1J2504,2016-04-27,2016-04-04,2016-06-03,BAY CITIES PAVING & GRADING, INC.,(925)687-6666,$2,095,264.80,04-Ala-84-R18.0/R22.9,Asphalt concrete resurfacing.
10-1E5204,2016-04-26,2016-04-04,2016-05-26,CORAL CONSTRUCTION COMPANY,(503)682-2252,$444,444.00,10-SJ-120-R1.3/R3.9,Install Automatic Warning System.
07-300704,2016-04-26,2016-03-07,2016-05-31,SECURITY PAVING COMPANY, INC.,(818)362-9200,$14,395,951.50,07-LA-5-13.8/19.2,PVMT REHAB
04-3J5204,2016-04-26,2016-03-28,2016-06-13,DESILVA GATES CONSTRUCTION,(925)829-9220,$3,313,111.00,04-SCl-880-8.6/10.5,AC Resurfacing
08-0J8104,2016-04-26,2016-04-04,2016-06-03,DREAMBUILDER CONSTRUCTION CORP,(714)646-3697,$560,661.00,08-SBd-330-30.7/39.3,CLEAR INLET AND OUTLET AND LINE METAL PIPE CULVERT
12-0N0704,2016-04-26,2016-03-21,2016-06-30,CHUMO CONSTRUCTION INC.,(626)960-9502,$2,288,678.36,12-Ora-5,22,55,73-Var,GROOVING, OGAC, POLYESTER CONCRETE, RESTRIPING, AND GUARD RAIL UPGRADE.
07-1W8704,2016-04-21,2016-03-28,2016-05-17,PAVEMENT COATINGS CO.,(714)826-3011,$748,905.00,07-LA-23-0.0/8.9,Slurry seal and shoulder backing
06-0T0804,2016-04-21,2016-03-28,2016-05-17,BENTANCOURT BROS. CONSTRUCTION INC.,(925)454-1521,$772,429.50,06-Fre,Mad,Tul-99-Var,Install Vehicle Detection Systems (VDS)
07-2W0104,2016-04-20,2016-03-28,2016-05-19,C. A. RASMUSSEN, INC.,(661)367-9040,$3,232,520.00,07-Ven-150-0.0/R13.3, 18.6/31.4,Ruberrized Hot Mix Asphalt Overlay (Gap Graded)
07-3W0804,2016-04-20,2016-03-21,2016-05-18,VELARDE CONCRETE CONSTRUCTION, INC.,(818)898-2300,$588,772.47,07-LA-5,14,138,210-Various,Patch deck spalls, methacrylate bridge decks and replace joint seals
12-0P2504,2016-04-20,2016-03-14,2016-05-17,BMC ENTERPRISES INC,(626)813-1027,$899,227.85,12-Ora-405-3.7/3.9,Widen the existing on-ramp from 2 to 3 lanes
08-1E9904,2016-04-20,2016-03-07,2016-05-17,DANNY C. HUBBS CONSTRUCTION, INC,(909)790-2215,$366,666.00,08-SBd-330-32.4/43.8,INSTALL MGS GUARDRAIL
04-2G9404,2016-04-19,2016-03-14,2016-06-03,GORDON N. BALL, INC.,(925)838-5675,$975,920.00,04-Nap-128-17.9,CONSTRUCT ROADWAY RETAINING SYSTEM
07-3W1004,2016-04-19,2016-03-21,2016-05-09,TRUESDELL CORPORATION OF CALIFORNIA, INC.,(602)437-1711,$1,358,358.00,07-LA-01/105/110/405-var,Patch deck spalls; Methacrylate bridge decks; Replace joint seals; Superstructure repairs; Install soffit access cover plates.
07-1W9804,2016-04-14,2016-03-21,2016-05-19,SECURITY PAVING COMPANY, INC.,(818)362-9200,$4,689,689.00,07-LA-91, 110-6.1/R11.4, 9.6/10.3,Maintenance Pavement Preservation
06-0T6104,2016-04-14,2016-03-21,2016-06-13,PAPICH CONSTRUCTION COMPANY, INC.,(805)473-3016,$2,425,000.00,06-Kin-5-16.6/26.7,Rubberized hot mix asphalt overlay.
01-0E5804,2016-04-14,2016-03-21,2016-05-17,TRUESDELL CORPORATION OF CALIFORNIA,(602)437-1711,$533,533.00,01-Men-1, 101-VAR,Bridge deck repair and guardrail work.
07-3W0504,2016-04-13,2016-03-14,2016-05-05,MYERS AND SONS CONSTRUCTION, LP,(916)283-9950,$879,091.50,07-LA-1, 47, 91, 110, 405, 710-VARIES,Patch deck spalls; Methacrylate bridge decks; Place polyester deck overlay; Replace joint seals.
06-0S6504,2016-04-13,2016-03-21,2016-05-13,BRM,(406)261-5359,$1,318,325.80,06-Ker-05-36.1/41.2,Install Median Barrier
04-2A3314,2016-04-13,2016-03-21,2016-05-11,AMERICAN CIVIL CONSTRUCTORS WEST COAST LLC,(707)746-8028,$1,611,215.00,04-Ala-84-10.8/18.0,CONSTRUCT MINOR SAFETY IMPROVEMENTS
06-0V1404,2016-04-13,2016-03-21,2016-05-13,TELFER PAVEMENT TECHNOLOGIES, LLC,(916)383-1756,$3,188,213.00,06-Fre-5-37.2/48.6,Cold plane existing AC pavement and overlay RHMA-Gap Graded (BWC)
06-0T3304,2016-04-12,2016-03-21,2016-05-13,BENTANCOURT BROS. CONSTRUCTION INC.,(925)454-1521,$706,049.90,06-Ker,Tul-99-Var, Install Vehicle Detection Systems (VDS)
07-2W9704,2016-04-12,2016-03-14,2016-05-09,TRUESDELL CORPORATION OF CALIFORNIA,(602)437-1711,$1,158,158.00,07-Ven-101,126,150,232 - Var -30.94/38.95R,PLACE METHACRYLATE ON BRIDGE DECK, SEAL JOINTS AND PATCH SPALLS
01-0F2604,2016-04-12,2016-03-21,2016-05-04,MERCER FRASER COMPANY,(707)443-6371,$2,654,246.00,01-Men-162-29.8/34.0,Cold in place recycle AC and HMA overlay.
07-1W8204,2016-04-12,2016-03-21,2016-05-11,ALL AMERICAN ASPHALT,(951)736-7600,$1,496,944.80,07-LA-14-R28.7/R30.9,Pavement Overlay
09-361304,2016-04-12,2016-03-07,2016-06-22,GRANITE CONSTRUCTION COMPANY,(661)387-7751,$5,626,836.50,09-Iny-395-R122.3/R129.5,Construct rubberized hot mix asphalt overlay.
06-0S1204,2016-04-07,2016-03-14,2016-05-10,ROBERT J. FRANK CONSTRUCTION, INC.,(530)222-1408,$237,624.00,06-Fre-245-Var,Replace and abandon culverts
07-3W0604,2016-04-07,2016-03-14,2016-05-10,J. MCLOUGHLIN ENGINEERING CO., INC.,(909)944-1037,$1,097,736.60,07-LA-101, 118, 170, 405-Var,Patch spalls, Apply deck methacrylate, Replace joint seals
10-1E0004,2016-04-07,2016-03-14,2016-05-19,GEORGE REED, INC.,(209)523-0734,$1,972,188.00,10-Sta,SJ-33-18.0/27.1, 0.0/5.0,Rubberized hot mix asphalt overlay
12-0M4004,2016-04-07,2016-03-14,2016-05-06,DREAMBUILDER CONSTRUCTION CORP,(714)646-3697,$645,496.00,12-Ora-91-R0.0/R3.6,IMPROVE MAINTENANCE ACCESS & PAVING FOR ROADSIDE WORKER SAFETY.
10-1C9904,2016-04-06,2016-03-07,2016-05-16,BAY CITIES PAVING & GRADING, INC.,(925)687-6666,$3,649,496.22,10-SJ-5-R12.4/R17.5,Resurface existing roadway.
04-3J5104,2016-04-06,2016-03-14,2016-05-04,GRANITE CONSTRUCTION COMPANY,(831)763-6100,$3,440,440.00,04-SM-1-10.6/21.5,Cold plane asphalt concrete pavement and RHMA overlay.
07-3W0704,2016-04-06,2016-03-14,2016-05-05,J. FRANCIS COMPANY,(951)776-9100,$964,654.11,07-LA-2, 5, 134, 210-Var,Place methacrylate on bridge deck, seal joints and patch spalls
06-0T5504,2016-04-05,2016-03-14,2016-05-05,PAPICH CONSTRUCTION COMPANY, INC.,(805)473-3016,$780,563.55,06-Fre-198-0.0/3.5,Rubberized Hot Mix Asphalt (Type O) Overlay
05-1G6204,2016-04-05,2016-03-14,2016-05-12,GRANITE CONSTRUCTION COMPANY,(805)964-9951,$4,707,677.00,05-SB-101-27.0/36.0,Remove and Replace OGAC
07-2827U4,2016-04-05,2016-02-16,2016-05-12,PETERSON-CHASE GENERAL ENGINEERING CONSTRUCTION, INC.,(949)252-0441,$11,499,402.05,07-LA-5,101-16.4, S0.0/25.9,ROADSIDE SAFETY IMPROVMENTS
01-0B27U4,2016-04-05,2016-02-29,2016-05-11,STEWART ENGINEERING INC,(530)244-8464,$4,055,715.00,01-DN-101-14.9/15.3,Repair Storm Damage
07-2W9804,2016-04-05,2016-03-07,2016-05-05,MYERS AND SONS CONSTRUCTION, LP,(916)283-9950,$856,992.50,07-LA-1,101,405-Var,Patch deck spalls, apply methacrylate on bridge decks and replace joint seals.
02-4E6404,2016-03-30,2016-02-22,2016-05-10,VIKING CONSTRUCTION COMPANY, INC.,(916)852-5530,$5,747,451.00,02-Plu-147-8.9/9.3,REPLACE BRIDGE
05-1C0804,2016-03-30,2016-02-22,2016-04-20,SOUZA CONSTRUCTION, INC.,(805)546-8288,$2,300,000.00,05-SLO-101-44.8/59.7,ROADSIDE SAFETY IMPROVEMENTS
06-0S6004,2016-03-30,2016-03-07,2016-05-04,ETIC,(925)602-4710,$504,783.80,06-Ker,Tul-5, 46, 58, 99, 137, 198-Var,BRIDGE DECK MAINTENANCE
04-3J4604,2016-03-30,2016-03-07,2016-05-05,FBD VANGUARD CONSTRUCTION,(925)245-1300,$813,216.00,04-Ala-680-R12/R16,Individual slab replacement (RSC).
03-0C4714,2016-03-30,2016-02-29,2016-06-03,O.C. JONES & SONS, INC.,(510)526-3424,$1,381,617.00,03-Yol-16-23.2/23.5,Shoulder widening and curve correction
07-3W0904,2016-03-29,2016-03-07,2016-04-19,VELARDE CONCRETE CONSTRUCTION, INC.,(818)898-2300,$775,840.17,07-LA-5, 10, 60, 101-Var,PLACE METHACRYLATE ON BRIDGE DECK, SEAL JOINTS AND PATCH SPALLS
11-409604,2016-03-29,2016-02-22,2016-04-22,WESTERN RIM CONSTRUCTORS, INC.,(760)489-4328,$1,374,814.60,11-SD-54, 125, 805-Var,ROADSIDE SAFETY IMPROVEMENTS INSTALL ACCESS GATES, PULLOUTS, PAVE GORE AREAS, AND SHIELD OR RELOCATE CABINETS AND POLES
01-0A9904,2016-03-29,2016-02-22,2016-04-27,MERCER FRASER COMPANY,(707)443-6371,$2,260,122.00,01-Hum-96-R6.2/6.6,CURVE IMPROVEMENT
11-406404,2016-03-29,2016-02-08,2016-04-22,LB CIVIL CONSTRUCTION, INC.,(858)481-5222,$3,875,450.30,11-SD-8, 54, 67, 94, 125, 163, 805, 905-Var,UPGRADE BRIDGE RAIL END TREATMENTS TYPE 8
02-1H0204,2016-03-24,2016-02-29,2016-04-13,J.F. SHEA CONSTRUCTION, INC.,(530)246-4292,$2,176,809.00,02-Tri-36-R9.2/15.8,Place HMA with Replace AC Surfacing
05-1G3304,2016-03-24,2016-02-29,2016-04-19,AMERICAN CIVIL CONSTRUCTORS WEST COAST LLC,(707)746-8028,$884,444.00,05-Mon,SBt,SCr-1,25,68,101,158-Var,Methacylate Deck Seals, Polyester Concrete Overlay, Replace Bridge Joint Seals
12-0P4604,2016-03-24,2016-02-29,2016-04-22,AMERICA PACIFIC CONSTRUCTION,(559)577-9999,$383,522.00,12-Ora-39-3.6/7.2,CLEAN, LINE, REMOVE AND PLACE CULVERTS
08-1G0804,2016-03-24,2016-02-29,2016-04-27,PAVE-TECH INC.,(760)727-8700,$5,633,113.00,08-Riv-10-R134.3/R144.1,Cold Plane and overlay asphalt concrete pavement and replace asphalt concrete pavement
12-0N9504,2016-03-23,2016-02-29,2016-04-22,PETERSON-CHASE GENERAL ENGINEERING CONSTRUCTION, INC.,(949)252-0441,$1,705,738.30,12-Ora-5, 22-R29.1/42.5, R10.4,METHACRYLATE TREATMENT AND JOINT SEAL REPLACEMENT
08-0R5104,2016-03-23,2016-02-29,2016-06-03,WEST COAST PUBLIC WORKS, INC.,(818)206-9990,$977,780.00,08-SBd-15/210-7.5/8.7, 10.8/12.4,INSTALL VEGETATION CONTROL UNDERNEATH METAL BEAM GUARDRAIL.
05-1F7304,2016-03-23,2016-02-29,2016-04-13,CORAL CONSTRUCTION COMPANY,(503)682-2252,$786,031.00,05-Mon-156-R0.1/R1.6,Median Barrier and Rumble Strip
09-340904,2016-03-23,2016-02-29,2016-04-18,WILLIAM KANAYAN CONSTRUCTION,(909)337-5428,$1,009,037.00,09-Mno-395-72.5/86.0,Remove and construct culverts.
03-2F4604,2016-03-22,2016-02-29,2016-04-19,ST FRANCIS ELECTRIC,(510)639-0639,$380,880.00,03-Sac-5-18.7,Modify, Upgrade Signals
01-0A1004,2016-03-22,2016-02-22,2016-04-28,STEELHEAD CONSTRUCTION, INC.,(530)226-6400,$1,071,228.50,01-DN-101-VAR,BRIDGE SEISMIC RETROFIT
06-0S4304,2016-03-22,2016-02-29,2016-04-25,CENTRAL VALLEY ASPHALT,(559)562-7802,$658,175.05,06-Fre-99-23.3,Reconstruct Parking Lot
05-1G3504,2016-03-22,2016-02-22,2016-04-12,STOUDENMIRE CORPORATION,(805)461-1454,$1,185,109.20,05-SB,SLO-1, 46, 101, 154, 166, 227-Var,Methacrylate deck seals, replace bridge joint seals, polyester concrete overlay
12-0P4804,2016-03-22,2016-02-29,2016-04-22,CAL STRIPE INC.,(909)884-7170,$328,000.00,12-Ora-55, 91-17.4/R17.9, R9.2/R17.2,REFRESH STRIPING, REMOVE AND REPLACE MARKERS
12-0N2204,2016-03-17,2016-02-22,2016-04-14,SPINITAR,(714)367-2975,$1,917,714.63,12-Ora-VAR,UPGRADE THE EXISTING AUDIO-VISUAL, AND VIDEO WALL SYSTEM
06-0R0204,2016-03-17,2016-02-22,2016-06-22,ROBERT J. FRANK CONSTRUCTION, INC.,(530)222-1408,$330,488.00,06-Ker-58-T52.1/R52.3,Concrete barrier (Type K) and apply Rubberize HMA - Open Graded (Bonded Wearing Course)
08-1F4904,2016-03-17,2016-02-22,2016-04-12,VSS INTERNATIONAL, INC,(916)373-1500,$1,016,014.00,08-SBd-247-24.0/78.0,Mill and overlay pavement
11-2M8604,2016-03-17,2016-02-22,2016-05-03,AMERICAN PAVEMENT SYSTEMS, INC.,(209)522-2277,$3,348,444.00,11-Imp-78-R50.0/80.7,Apply Asphalt Rubber Binder Seal Coat
02-4G8404,2016-03-16,2016-02-22,2016-04-04,CAL ELECTRO, INC.,(530)223-5937,$989,748.00,02-Sha-5, 44, 299-VAR,Modify Fiber Optic Cable System in Shasta County
04-1J2204,2016-03-16,2016-02-22,2016-04-18,GRANITE CONSTRUCTION COMPANY,(408)327-7013,$683,740.00,04-SM-1-3.3/10.6,COLD PLANE ASPHALT CONCRETE PAVEMENT AND PLACE HMA (A)
08-1F6404,2016-03-16,2016-02-22,2016-04-28,TRUESDELL CORPORATION OF CALIFORNIA, INC.,(602)437-1711,$453,453.00,08-SBd,Riv-10, 259 and 79-Varies,Sandblast, clean, methacrylate sealing the deck and place joint seals
03-2F5404,2016-03-16,2016-02-16,2016-04-05,TIM PAXINS PACIFIC EXCAVATION, INC,(916)686-2800,$507,688.00,03-Sac-5, 80-VAR,Add, Relocate, and/or Replace Existing Freeway Lighting at 19 Locations
03-1F9904,2016-03-16,2016-02-16,2016-05-20,FRANKLIN CONSTRUCTION, INC.,(530)343-9600,$1,592,326.00,03-But-32-9.5/10.2,ADA COMPLIANCE CURB RAMPS, SIDEWALKS, CROSS SLOPES, ETC.
01-0E4904,2016-03-15,2016-02-22,2016-03-25,MERCER FRASER COMPANY,(707)443-6371,$1,520,475.00,01-Hum-101-25.5/28.5,Rubberized Hot Mix Asphalt
08-0R4404,2016-03-15,2016-02-22,2016-06-29,DREAMBUILDER CONSTRUCTION CORP,(714)646-3697,$797,061.00,08-SBd-15-R23.0/R36.2,INSTALL VEGETATION CONTROL UNDER - NEATH EXISTING METAL BEAM GUARD RAIL
09-361904,2016-03-15,2016-02-22,2016-04-19,AMERICAN PAVEMENT SYSTEMS, INC.,(209)522-2277,$1,761,500.00,09-Mno-108, 270, 395-Various,Construct asphalt-rubber seal coat.
07-4Y8504,2016-03-10,2016-02-16,2016-04-13,CL COATINGS, INC. DBA CL INDUSTRIAL COATINGS, INC.,(562)305-1520,$2,932,356.00,07-LA-103-0.9/1.2,CLEAN AND PAINT STEEL BRIDGE STRUCTURE
03-2F4004,2016-03-10,2016-02-16,2016-03-30,CCFG CONSTRUCTION,(209)743-4911,$224,000.00,03-ED-49-20.3,INSTALL UNDERGROUND PIPES
12-0N9604,2016-03-09,2016-02-16,2016-04-22,PETERSON-CHASE GENERAL ENGINEERING CONSTRUCTION, INC.,(949)252-0441,$926,520.90,12-Ora-5, 90,91,241,405-var,Methacrylic treatment and joint seal replacement
09-333404,2016-03-08,2016-02-16,2016-04-13,WILLIAM KANAYAN CONSTRUCTION,(909)337-5428,$617,900.00,09-Iny-395-75.1,Earthwork, contour grading and erosion control.
12-0N2504,2016-03-08,2016-02-01,2016-04-13,CHUMO CONSTRUCTION INC,(626)960-9502,$935,563.90,12-Ora-133, 405-8.3,13.7,14.7,22.5,OVERLAY AND WIDEN RAMPS WITH OPEN GRADED ASPHALT CONCRETE
05-1G6904,2016-03-03,2016-02-08,2016-03-25,CALPORTLAND CONSTRUCTION,(805)345-3581,$1,029,868.50,05-SLO-1-22.1/25.7,Cold plane and RHMA-OG overlay
07-251904,2016-03-03,2016-02-01,2016-03-30,C. A. RASMUSSEN, INC.,(661)367-9040,$3,644,542.00,07-Ven-101-R40.4/R43.6,PAVEMENT REHABILITATION
03-0G0404,2016-03-03,2016-02-01,2016-03-25,TRUESDELL CORPORATION OF CALIFORNIA, INC.,(602)437-1711,$973,808.00,03-Sac-5, 50, 51-VAR,Rehabilitate Bridge Decks
03-0G4704,2016-03-03,2016-02-08,2016-03-22,BALDWIN CONTRACTING COMPANY, INC. DBA KNIFE RIVER CONSTRUCT ION,(530)891-6555,$2,150,412.60,03-Col-45-24.6/28.8,Cold In-Place Recycling & Overlay
03-3F8304,2016-03-03,2016-02-08,2016-03-25,MAY-HAN ELECTRIC INC., DBA M & M ELECTRIC,(916)929-0150,$2,585,110.00,03-But,Col,ED,Nev,Pla,Sac,Sut,Yol,Yub-VAR-VAR,Update CCTV cameras and video transport technology for IP based communication
11-2M9204,2016-03-03,2016-02-08,2016-05-03,HAZARD CONSTRUCTION COMPANY,(858)587-3600,$1,549,476.00,11-Imp-86-8.8/11.4,PLACE ASPHALT-RUBBER BINDER SEAL COAT AND REPLACE AC PAVEMENT WITH RUBBERIZED HMA
08-1C4004,2016-03-03,2015-12-21,2016-04-04,J. FRANCIS COMPANY,(951)776-9100,$810,659.32,08-Riv-215-22.3/43.2,Methacrylate, joint repair, replace seal, patch concrete
08-0Q3004,2016-03-03,2015-12-21,2016-04-18,SKANSKA USA CIVIL WEST CALIFORNIA DISTRICT INC.,(951)684-5360,$21,379,324.50,08-SBd-138-R17.1/R19.2,REALIGN AND CONSTRUCT TWO LANE PAVED SECTION WITH OUTSIDE SHOULDERS, 3 WILDLIFE CROSSINGS & OHV CROSSING
11-2M7604,2016-03-02,2016-02-01,2016-04-04,MANHOLE ADJUSTING INC,(323)558-8000,$4,302,352.60,11-SD,Imp-78-66.0/95.3; 0.0/13.2,Apply Asphalt-Rubber Seal Coat
08-1G1304,2016-03-02,2016-02-08,2016-04-13,SECURITY PAVING COMPANY, INC.,(818)362-9200,$1,969,000.00,08-SBd-58-R0.0/R13.0,Replace Asphalt Concrete Surfacing, Coldplane and Overlay
03-0G4504,2016-03-02,2016-02-08,2016-03-25,A. TEICHERT & SON, INC. DBA TEICHERT CONSTRUCTION,(209)983-2300,$1,280,397.00,03-Pla-89-9.0/12.5,Cold Plane AC Pavement and HMA-A Overlay
07-2W9404,2016-03-02,2016-02-08,2016-03-30,VELARDE CONCRETE CONSTRUCTION, INC.,(818)898-2300,$848,795.13,07-LA-10, 60, 710-var,Maintenance Bridge Rehabilitation
05-1G5004,2016-03-02,2016-02-08,2016-03-16,TELFER PAVEMENT TECHNOLOGIES, LLC,(916)383-1756,$717,296.00,05-Mon-183, 218-0.0/R2.1, R0.0/1.9,Slurry seal
03-0G2904,2016-03-01,2016-02-08,2016-03-25,F.D. THOMAS, INC.,(541)664-3010,$1,284,575.00,03-But-70-14.8,Paint 2 Bridges
10-1E0904,2016-03-01,2016-02-01,2016-03-25,TRUESDELL CORPORATION OF CALIFORNIA, INC.,(602)437-1711,$688,688.00,10-Mer-5-13.9/27.4,Treat bridge deck w/ methacrylate, & replace slabs and seals
04-3J4504,2016-03-01,2016-02-08,2016-04-13,VINTAGE PAVING COMPANY, INC,(530)795-0132,$429,524.00,04-Sol-113-2.0/7.0,COLD PLANE AC PAVEMENT AND PLACE HMA (TYPE A)
06-0T6404,2016-03-01,2016-02-08,2016-04-22,GRANITE CONSTRUCTION COMPANY,(559)441-5700,$1,309,900.00,06-Tul-137-7.2/13.2,Cold plane asphalt pavement and apply Rubberized HMA-Gap Graded (BWC).
07-4Y6704,2016-03-01,2016-02-08,2016-03-30,ALL AMERICAN ASPHALT,(951)736-7661,$1,108,619.60,07-LA-1-46.9/62.9,Digout
07-2W9304,2016-03-01,2016-02-08,2016-03-25,GRIFFITH COMPANY,(661)392-6640,$1,070,124.00,07-Ven-33-40.0/42.0,Cold In-Place Recycling and HMA Overlay
08-1C3404,2016-03-01,2016-02-08,2016-04-07,VSS INTERNATIONAL, INC,(916)373-1500,$801,005.00,08-Riv-74-27.5/32.3,SLURRY SEAL AND LOCALIZED DIGOUT
07-3W1504,2016-02-25,2016-02-01,2016-03-15,TORO ENTERPRISES, INC.,(805)483-4515,$1,476,116.70,07-Ven-1-21.2/27.2,Pvmt Rehab
03-4M4504,2016-02-25,2016-02-01,2016-03-14,MICHELS CORPORATION DBA MICHELS PIPELINE CONSTRUCTION,(503)364-1199,$349,941.00,03-Nev-20-Var,Culvert Rehabilitation
08-1F6504,2016-02-25,2016-02-01,2016-03-16,J. FRANCIS COMPANY,(951)776-9100,$528,692.99,08-Riv-60, 91, 215-Varies,METHACRYLATE DECK, REPLACE JOINT SEALS, PATCH CONCRETE SPALLS AND REMOVE AC OVERLAY
08-1G0704,2016-02-25,2016-01-25,2016-04-27,ALL AMERICAN ASPHALT,(951)736-7600,$3,161,996.00,08-SBd-18-31.9/38.5,Preservation of Pavement
11-2M8404,2016-02-25,2016-01-25,2016-03-15,HAZARD CONSTRUCTION COMPANY,(858)587-3600,$2,989,884.00,11-Imp-111,186-56.0/65.4,0.0/2.1,Asphalt-Rubber Seal Coat and RHMA Overlay
05-1G6404,2016-02-25,2016-02-01,2016-03-14,GRANITE CONSTRUCTION COMPANY,(805)964-9900,$503,322.00,05-SLO-41-49.6/50.4,AC Overlay
02-1H0504,2016-02-25,2016-02-01,2016-03-11,DIG IT CONSTRUCTION, INC.,(530)258-3306,$953,650.00,02-Plu-89-8.7/12.9,Place HMA with Replace AC Surfacing
07-2W9604,2016-02-24,2016-01-25,2016-03-22,WESTERN STRUCTURES,(951)352-4300,$1,028,832.06,07-LA-19,60,91,164,605-Var,Peplace joint seals, patch deck spalls, methacrylate bridge decks
07-3W1204,2016-02-24,2016-02-01,2016-03-22,CAL STRIPE INC.,(909)884-7170,$295,295.00,07-LA-1-35.2/59.9,INSTALL PAVEMENT DELINEATORS AND RECESSED PAVEMENT MARKERS
05-1G5904,2016-02-24,2016-02-01,2016-03-15,PAVEMENT COATINGS CO.,(714)826-3011,$673,385.00,05-SB-1, 246-20.6/23.3, 28.6/29.9,Slurry Seal
11-2M8504,2016-02-24,2016-02-01,2016-03-11,GRANITE CONSTRUCTION COMPANY,(760)444-1000,$1,388,595.00,11-SD-76-34.9/40.8,Place asphalt-rubber binder seal coat and replace AC pavement with Rubberized HMA
08-1C0914,2016-02-24,2015-12-07,2016-03-30,ALL AMERICAN ASPHALT,(951)736-7600,$17,439,087.60,08-Riv-60-R12.2/22.1 & 26.5/30.4,MILL AND OVERLAY MAINLINE PAVEMENT, SHOULDERS AND RAMPS, INCLUDE DIGOUTS
08-0G9004,2016-02-24,2015-12-07,2016-04-14,GRIFFITH COMPANY,(909)270-5040,$9,285,582.00,08-SBd-247-9.6/20.3,CONSTRUCT STANDARD PAVED SHOULDER
08-0J9904,2016-02-24,2015-12-21,2016-04-13,STL LANDSCAPE, INC.,(323)581-8200,$2,670,000.00,08-SBd-18-49.0/51.7,REPLACE AND REPAIR DAMAGED SIDEWALKS, CURBS & GUTTERS
02-1H0404,2016-02-23,2016-02-01,2016-03-15,EAGLE PEAK ROCK & PAVING,(530)233-4568,$1,110,038.00,02-Las-299-12.2/18.5,Asphalt Rubber Seal Coat, Place HMA with Replace AC Surfacing
01-0E9804,2016-02-23,2016-01-25,2016-03-18,MERCER FRASER COMPANY,(707)443-6371,$2,198,593.50,01-Men-101-T91.3/R100.1,Maintenance Overlay
06-0T5304,2016-02-23,2016-02-01,2016-03-15,TELFER PAVEMENT TECHNOLOGIES, LLC,(916)383-1756,$1,622,340.90,06-Kin,Tul-137-0.1/2.0; 0.0/7.2,Cold Plane AC Pvmt and apply Rubberized HMA-Gap Graded (BWC)
08-1F6304,2016-02-23,2016-02-01,2016-03-30,TRUESDELL CORPORATION OF CALIFORNIA, INC.,(602)437-1711,$838,838.00,08-SBd-40-R105.8/149.9,REMOVE ASPHALT, PLACE CONCRETE OVERLAY AND REPLACE JOINT SEALS
01-0A4904,2016-02-18,2016-01-11,2016-03-18,STEVE MANNING CONSTRUCTION, INC.,(530)222-0810,$3,554,665.00,01-Hum-299-R25.0/R25.9,CURVE IMPROVEMENT
05-1G3204,2016-02-18,2016-01-25,2016-03-14,STOUDENMIRE CORPORATION,(805)461-1454,$245,245.00,05-Mon,SLO-41, 101-Var,Methacrylate deck seals, replace joint seals
01-0F1804,2016-02-18,2016-01-25,2016-03-10,GRANITE CONSTRUCTION COMPANY,(707)467-4100,$892,947.00,01-Men-1, 20, 101, 128-VAR,Replace AC Surfacing
07-2W6404,2016-02-17,2016-01-25,2016-03-22,ODONNELL CONSTRUCTION, INC.,(909)394-4510,$552,190.30,07-LA-10, 710-Var,Maintenance Bridge Rehab
01-0F0904,2016-02-17,2016-01-25,2016-03-10,MERCER FRASER COMPANY,(707)443-6371,$2,125,670.00,01-Tri-299-8.0/15.0,Overlay
03-0G3804,2016-02-17,2016-01-25,2016-03-10,BALDWIN CONTRACTING COMPANY, INC. DBA KNIFE RIVER CONSTRUCT,(530)891-6555,$900,822.00,03-Gle-32-1.3/R4.3,Cold Plane AC Surfacing & Rubberized Hot Mix Asphalt - Gap Graded.
06-0T6204,2016-02-17,2016-01-25,2016-03-08,GRANITE CONSTRUCTION COMPANY,(559)441-5768,$1,854,214.00,06-Fre-33-11.1/14.8, 16.9/22.7,Bonded Wearing Course Overlay
01-0E5204,2016-02-17,2016-01-25,2016-03-16,MERCER FRASER COMPANY,(707)443-6371,$1,240,954.00,01-Hum-299-39.1/43.0,Overlay
03-0G3304,2016-02-10,2016-01-11,2016-03-10,TELFER PAVEMENT TECHNOLOGIES, LLC,(916)383-1756,$2,018,300.80,03-Nev-49-15.1/17.1, 17.4/21.8,Rubberized Hot Mix Asphalt-Gap Graded (Bonded Wearing Course) Overlay
08-0N5504,2016-02-09,2015-12-21,2016-04-21,M.C.M. CONSTRUCTION, INC.,(916)334-1221,$7,532,522.00,08-SBd-40-R105.2/R106.5,BRIDGE REPLACEMENT
04-1SS024,2016-02-09,2015-12-07,2016-03-14,RGW CONSTRUCTION, INC.,(925)606-2400,$3,654,282.00,04-Ala-13-8.3,Repair landslide.
10-1E4404,2016-02-04,2016-01-11,2016-03-11,CHESTER BROSS CONSTRUCTION COMPANY,(573)221-5958,$2,179,159.00,10-Cal-4-49.6/R58.0,Hot Mix Asphalt Overlay
02-1H0004,2016-02-04,2016-01-04,2016-03-04,Q & D CONSTRUCTION, INC.,(775)786-2677,$3,276,000.00,02-Las-395-36.4/47.0,RHMA Overlay, Replace AC Surfacing
09-361104,2016-02-04,2016-01-04,2016-03-03,QUALCON CONTRACTORS, INC.,(775)782-2006,$1,868,400.00,09-Iny-178-48.6/60.0,Construct rubberized hot mix asphalt overlay.
03-0G1104,2016-02-04,2016-01-04,2016-03-10,BALDWIN CONTRACTING COMPANY, INC. DBA KNIFE RIVER CONSTRUCT ION,(530)891-6555,$2,595,863.80,03-But-32-R19.0/R23.9,RHMA (Gap Graded) Overlay
08-1F5204,2016-02-04,2016-01-04,2016-03-21,CALMEX ENGINEERING INC,(909)546-1311,$5,345,393.60,08-SBd-40-0.0/R10.0,PAVEMENT PRESERVATION TREATMENT
08-1F4604,2016-02-03,2016-01-04,2016-03-03,CALMEX ENGINEERING INC,(909)546-1311,$4,653,137.22,08-SBd-330-R29.0/44.1,Mill and overlay existing pavement and replace asphalt concrete pavement
05-0T6304,2016-02-03,2015-12-28,2016-02-24,SOUZA CONSTRUCTION, INC.,(805)546-8288,$6,485,000.00,05-SB-101-45.6/46.4,CURVE REALIGNMENT
08-1C9104,2016-02-03,2015-12-21,2016-03-11,JABRE CONTRACTING INC.,(310)720-0277,$315,132.50,08-SBd-95-R57.2/80.5,INSTALL GROUND-IN RUMBLE STRIPS
04-2G4524,2016-02-03,2016-01-11,2016-03-04,DIRT AND AGGREGATE INTERCHANGE, INC.,(503)661-5093,$244,444.00,04-CC-680-22.2/23.9,UPGRADE 7 TRANSITION RAILING
10-1E2704,2016-02-03,2016-01-04,2016-03-11,STOUDENMIRE CORPORATION,(805)461-1454,$488,888.88,10-Mer-99-13.1/R36.7,Treat bridge deck , replace approach slabs and joint seals.
07-300604,2016-02-03,2015-12-21,2016-03-01,SECURITY PAVING COMPANY, INC.,(818)362-9200,$12,279,216.00,07-LA-405-20.5/28.0,PAVEMENT REHAB
10-1E1004,2016-02-02,2016-01-11,2016-02-25,PETERSON-CHASE GENERAL ENGINEERING CONSTRUCTION, INC.,(949)252-0441,$653,604.94,10-SJ-4, 5-Var,Treat bridge deck, install anodes, and replace joint seals.
02-1H0104,2016-02-02,2016-01-04,2016-03-30,SIERRA NEVADA CONSTRUCTION,(775)355-0420,$2,206,007.00,02-Plu-70-46.2/53.5,Place HMA with Replace AC Surfacing
03-0G3504,2016-02-02,2016-01-11,2016-02-17,MYERS AND SONS CONSTRUCTION, LP,(916)283-9950,$348,170.00,03-Pla-80-69.2/69.8,PCC Slab Replacement.
08-1G1004,2016-02-02,2016-01-04,2016-02-25,PAVEMENT COATINGS CO,(714)826-3011,$1,447,381.60,08-Riv-74-36.5/42.6,Slurry Seal
11-414704,2016-02-02,2015-12-14,2016-03-03,HAZARD CONSTRUCTION COMPANY,(858)587-3600,$2,539,835.00,11-SD-67-9.3/11.2,DRAINAGE IMPROVEMENTS AND HIGH FRICTION SURFACE TREATMENT
08-1C4604,2016-01-28,2015-12-28,2016-03-03,ALL AMERICAN ASPHALT,(951)736-7600,$1,536,207.80,08-Riv-111-T50.0/56.2,APPLY PAVEMENT PRESERVATION TREATMENT
02-1H0304,2016-01-28,2016-01-04,2016-03-01,HAT CREEK CONSTRUCTION & MATERIALS, INC.,(530)335-5501,$1,995,995.00,02-Sis-161-9.0/15.0,Cold In-Place Recycle
08-1F4804,2016-01-28,2015-12-28,2016-02-24,JFL ELECTRIC,INC,(323)581-4400,$264,960.00,08-Riv,SBd-74, 111, 18 and 38-Various,INSTALL APS PUSHBUTTONS AND COUNTDOWN PEDESTRIAN SIGNALS
05-1G6704,2016-01-28,2015-12-28,2016-02-22,GRANITE ROCK COMPANY,(408)574-1400,$1,442,943.00,05-Mon-1-40.8/62.5,HMA (Type A) Overlay
03-0G0204,2016-01-28,2016-01-04,2016-02-12,TRUESDELL CORPORATION OF CALIFORNIA, INC.,(602)437-1711,$426,293.00,03-But,Col,Yub-5, 20, 45, 70, 149-VAR,Bridge Deck Rehabilitation
08-1C7404,2016-01-27,2016-01-04,2016-03-03,JFL ELECTRIC,INC,(323)581-4400,$242,451.00,08-Riv-74-43.2/43.4,INSTALL TRAFFIC SIGNALS
04-2J1404,2016-01-27,2015-12-28,2016-02-24,BC TRAFFIC SPECIALIST,(714)974-1190,$3,180,663.00,04-Ala-13, 24, 80, 84, 92, 238, 580, 680, 880, 980-Various,REPLACE OVERHEAD SIGN PANELS
03-0G3704,2016-01-27,2015-12-28,2016-03-16,TELFER PAVEMENT TECHNOLOGIES, LLC,(916)383-1756,$2,677,500.60,03-ED-50-58.0/67.6,Bonded Wearing Course-Gap Graded Overlay
08-1E8604,2016-01-26,2015-12-14,2016-03-02,GRANITE CONSTRUCTION COMPANY,(760)775-7500,$60,973,078.00,08-Riv-10-R74.0/R105.4,REHABILITATE PAVEMENT
10-1E1304,2016-01-26,2015-12-28,2016-02-22,MYERS AND SONS CONSTRUCTION, LP,(916)283-9950,$728,061.80,10-Mer,Sta,Tuo-5,59,99,108,165-Various ,Repair bridge decks and HMA shoulders.
02-0H9604,2016-01-26,2015-12-21,2016-02-18,AMERICAN PAVEMENT SYSTEMS, INC.,(209)522-2277,$677,689.00,02-Sis-3-0.4/6.9,Asphalt Rubber Chip Seal w/Replace AC Surfacing, Striping
05-1G6304,2016-01-26,2015-12-21,2016-02-09,CALPORTLAND CONSTRUCTION,(805)345-3581,$2,799,181.00,05-SLO,SB-166-21.0/25.5,Cold In Place recycling
06-0T5804,2016-01-21,2015-12-21,2016-03-02,TEICHERT CONSTRUCTION,(559)813-3036,$1,028,562.00,06-Fre,Mad-145-40.2/R41.2, R0.0/2.0, 11.0/13.6,RHMA Overlay
02-4G6504,2016-01-21,2015-12-21,2016-03-01,S.T. RHOADES CONSTRUCTION, INC.,(530)223-9322,$463,117.75,02-Sha-299-88.7/89.2,IMPROVE CLEAR RECOVERY ZONE
03-0G3604,2016-01-21,2015-12-14,2016-02-05,VINTAGE PAVING COMPANY, INC,(530)795-0132,$1,237,081.60,03-But-162-18.0/22.7,Rubberized Hot Mix Asphalt (Gap Graded) Overlay
08-0G7804,2016-01-21,2015-12-07,2016-03-02,DYNALECTRIC,(714)828-7000,$5,888,888.00,08-Riv-215-8.4/38.8,INSTALL CCTV, CMS, CENSUS STATIONS, DETECTIONS, HUBS & FIBER OPTIC CABLE & CONNECT EXISTING ICC AND RAMP METERS
12-0P4704,2016-01-20,2015-12-21,2016-02-22,V A P CONSTRUCTION INC,(714)253-3270,$275,975.00,12-Ora-1, 39-19.8/33.7, 0.0/1.1,Repair sidewalks on various locations.
04-4A0004,2016-01-20,2015-09-21,2016-03-17,GHILOTTI CONSTRUCTION CO. INC.,(707)585-1221,$2,089,940.00,04-Mrn-101-12.7/14.7,REPLACE BRIDGE RAILINGS AND REHABILITATE DECK.
08-0R9504,2016-01-20,2015-12-21,2016-02-22,ALL AMERICAN ASPHALT,(951)736-7600,$519,815.20,08-Riv-371-70.6/70.9,Construct left turn lane
04-0J3504,2016-01-20,2015-12-14,2016-03-08,AMERICA PACIFIC CONSTRUCTION,(559)577-9999,$224,322.00,04-Ala-880-8.5,Install rock slope protection (RSP)
08-0Q2304,2016-01-20,2015-12-21,2016-04-04,HIGHLAND CONSTRUCTION, INC.,7145385156,$805,893.00,08-SBd-18-110.8,SIGNALIZE INTERSECTION. PLUS CURB RAMPS, ADA REQUIREMENT.
10-1E1804,2016-01-20,2015-12-21,2016-02-22,STOUDENMIRE CORPORATION,(805)461-1454,$438,576.20,10-SJ-5, 205-Various,Treat bridge decks and replace joint seals.
02-0H9904,2016-01-20,2015-12-14,2016-02-18,TULLIS, INC.,(530)241-5105,$1,030,986.00,02-Tri-3-L0.0/0.6,Place HMA, Replace AC Surfacing
02-4G2204,2016-01-14,2015-11-30,2016-02-24,HAT CREEK CONSTRUCTION & MATERIALS, INC.,(530)335-5501,$1,146,875.00,02-Mod-299-52.2/54.7,Pavement Rehabilitation
06-0T6004,2016-01-14,2015-11-23,2016-03-01,GRIFFITH COMPANY,(661)392-6640,$4,892,476.00,06-Ker-5, 43-73.0/82.5, 9.2/15.9,Repair failed pavement and BWC overlay
10-0Y6404,2016-01-14,2015-12-07,2016-02-24,CORAL CONSTRUCTION COMPANY,(503)682-2252,$1,784,784.00,10-Sta-5-17.3/25.5,INSTALL CABLE MEDIAN BARRIER
10-0L9704,2016-01-14,2015-11-23,2016-02-22,GOLDEN STATE BRIDGE, INC.,(925)372-8000,$16,658,884.00,10-Tuo-120-R19.4/R20.0,Replace bridge deck
08-0R7104,2016-01-14,2015-12-07,2016-02-09,CORAL CONSTRUCTION COMPANY,(503)682-2252,$1,123,456.00,08-SBd-15-R87.3/R91.8,INSTALL SINGLE & DOUBLE THRIE BEAM BARRIER IN MEDIAN
11-414904,2016-01-13,2015-11-23,2016-02-24,HAZARD CONSTRUCTION COMPANY,(858)587-3600,$3,664,645.00,11-SD-67-R21.0/21.6,WIDEN INTERSECTION, ADD LANES AND SHOULDERS, NEW TRAFFIC SIGNALS, AND DRAINAGE.
08-1E8704,2016-01-13,2015-12-07,2016-02-09,SULLY-MILLER CONTRACTING COMPANY,(714)578-9600,$12,540,825.00,08-SBd-395-46.0/73.5,COLD PLANE & OVERLAY MAINLINE & SHOULDERS & INSTALL CENTERLINE AND SHOULDER RUMBLE STRIPS
10-0Y1004,2016-01-13,2015-12-07,2016-02-22,TIM PAXINS PACIFIC EXCAVATION, INC,(916)686-2800,$1,848,873.00,10-Sta-99-R11.7/R15.0,INSTALL HIGH MAST LIGHTING
02-0H9704,2016-01-13,2015-12-07,2016-02-18,TELFER PAVEMENT TECHNOLOGIES, LLC.,(916)383-1756,$2,069,995.50,02-Sha-89, 299-VAR,Asphalt Rubber Seal Coat w/Replace AC Surfacing
09-361804,2016-01-12,2015-11-30,2016-02-22,VSS INTERNATIONAL, INC,(916)373-1500,$735,777.00,09-Mno-6, 120-R17.5/26.5, 35.0/43.0,Construct seal coat.
02-0H9804,2016-01-12,2015-11-23,2016-02-17,HAT CREEK CONSTRUCTION & MATERIALS, INC.,(530)335-5501,$1,599,925.00,02-Plu-89-35.5/R42.2,Cold plane and place HMA with replace AC surfacing
04-1J6304,2016-01-12,2015-10-19,2016-03-01,GRANITE CONSTRUCTION COMPANY,(408)327-7013,$15,541,310.29,04-SCl-101-16.0 to 27.9,RESURFACE AND REPAIR FLEXIBLE PAVEMENT, PCC SLAB REPLACEMENT.
10-1E4504,2016-01-12,2015-11-23,2016-02-04,BAY CITIES PAVING & GRADING, INC.,(925)687-6666,$1,275,375.70,10-SJ-5-R23.6/25.3, Rubberized HMA overlay.
03-0G4604,2016-01-12,2015-12-07,2016-02-12,GEORGE REED INC,(209)523-0730,$221,995.00,03-Sac-12-3.6, 5.6,Replace AC Surfacing
05-330784,2016-01-12,2015-11-16,2016-02-10,BROSAMER & WALL, INC,(925)932-7900,$42,370,788.00,05-SLO-46-46.0/50.2,CONVERT TO 4-LANE EXPRESSWAY
02-1H1204,2016-01-12,2015-12-07,2016-02-05,CAL STRIPE INC.,(909)884-7170,$279,500.00,02-Las,Sha,Teh-VAR-VAR,Replace Pavement Markers
03-4M9404,2016-01-07,2015-11-23,2016-01-22,CORAL CONSTRUCTION COMPANY,(503)682-2252,$199,991.00,03-Sie-49-R11.3/R12.4,Replace Guardrail
02-4G3304,2016-01-07,2015-11-30,2016-01-25,DIG IT CONSTRUCTION, INC.,(530)258-3306,$889,228.00,02-Teh-32-21.5/R24.9,Thin Blanket Overlay
11-2M6504,2016-01-07,2015-11-23,2016-02-17,AMERICAN PAVEMENT SYSTEMS, INC.,(209)522-2277,$5,470,191.10,11-Imp-86-43.1/67.8,APPLY ASPHALT RUBBER CHIP SEAL
10-1E1204,2016-01-07,2015-11-23,2016-02-04,PETERSON-CHASE GENERAL ENGINEERING CONSTRUCTION, INC.,(949)252-0441,$287,297.85,10-Mer,Sta-5-Var,Treat bridge deck with Methacrylate ,and replace seals.
10-1C4504,2016-01-06,2015-11-30,2016-02-11,BAY CITIES PAVING & GRADING, INC.,(925)687-6666,$2,060,613.59,10-Mer-59/152-Var,Install centerline rumble strips, edge line rumble stripes and shoulder rumble strips
05-1G5104,2016-01-06,2015-11-23,2016-01-22,FBD VANGUARD CONSTRUCTION,(925)245-1300,$902,185.00,05-SLO,Mon-101-64.8/R69.3, R0.0/R2.0,Pavement rehabilitation
10-0T8104,2016-01-06,2015-11-23,2016-02-01,AMERICA PACIFIC CONSTRUCTION,(559)577-9999,$197,325.40,10-Mer-59,99,140,152-Varies,INSTALL ADA CURB RAMPS, MINOR SIDEWALK EXTENSION
09-361604,2016-01-06,2015-11-23,2016-01-28,SULLY-MILLER CONTRACTING COMPANY,(714)578-9600,$1,984,776.00,09-Iny-190-14.0/18.5,Cold in-place recycling and HMA overlay.
02-2E8004,2016-01-06,2015-11-16,2016-02-11,RANDY HILL CONSTRUCTION, INC,(530)892-1918,$5,989,907.72,02-Sis-5-R7.2,IMPROVE TRUCK INSPECTION FACILITY
12-0N78U4,2016-01-05,2015-10-26,2016-03-08,KDC INC., DBA DYNALECTRIC,(714)828-7000,$9,214,613.90,12-Ora-5,22,57,73,133,405, etc.-VARIOUS,Upgrade the existing fiber optic communication system and PTZ analog CCTVs to HD CCTVs with 20 megapixle 180 degree, and provide combined estimate.
02-0H9504,2016-01-05,2015-11-23,2016-03-11,TELFER PAVEMENT TECHNOLOGIES, LLC.,(916)383-1756,$1,620,953.00,02-Sis-96, 97-77.2/92.0, 2.0/2.6,Asphalt Rubber Seal Coat w/ Replace AC Surfacing
01-0B4504,2016-01-05,2015-11-16,2016-02-01,MCCULLOUGH CONSTRUCTION INC,(707)825-1014,$1,670,653.00,01-Hum-299-R10.5/R10.7, R25.8/R26.1,REPAIR SLIDES & SLIPOUTS
07-290004,2015-12-17,2015-10-26,2016-04-06,PETERSON-CHASE GENERAL ENGINEERING CONSTRUCTION, INC.,(949)252-0441,$13,210,850.95,07-LA-405-R12.6/R21.2,INST CONC BARRIER & UPGRD EXSTNG
01-0E2804,2015-12-17,2015-11-16,2016-03-01,CENTRAL STRIPING SERVICE, INC.,(916)635-5175,$699,861.07,01-Hum,Men-101-VAR,INSTALL CENTERLINE & SHOULDER RUMBLE STRIPS
05-0J4904,2015-12-16,2015-11-16,2016-01-13,FBD VANGUARD CONSTRUCTION,(925)245-1300,$5,680,500.00,05-Mon,SBt,SLO,SB,SCr-1, 17, 68, 101, 135, 217-VAR,Replace all freeway exit guide signs with retro-reflective sheeting and laminated box beam posts where required.
03-1F2604,2015-12-16,2015-11-16,2016-01-12,MEYERS EARTHWORK INC.,(530)365-8858,$1,605,406.00,03-Sie-89-0.6/1.8,Construct 2 wildlife undercrossing and wildlife barrier
05-1G6604,2015-12-16,2015-11-16,2016-01-22,PAVEMENT COATINGS CO,(714)826-3011,$337,775.00,05-SLO-1-L16.7/L18.2,Slurry seal with limited digouts
08-1C8404,2015-12-15,2015-11-09,2016-02-04,CL COATINGS, INC. DBA CL INDUSTRIAL COATINGS, INC.,(562)305-1520,$1,123,999.00,08-Riv,SBd-91/10-17.4/20.9,11.5,BRIDGE PREVENTIVE MAINTENANCE
07-302904,2015-12-15,2015-09-21,2016-01-13,SECURITY PAVING COMPANY, INC.,(818)362-9200,$15,822,582.30,07-LA-5-C43.9/C46.4,ROADWAY REHAB
11-416004,2015-12-15,2015-11-09,2016-02-03,SELECT ELECTRIC, INC.,(619)460-6060,$2,070,367.00,11-Imp,SD-5, 7, 8, 15, 52, etc.-Var,REPLACE AND UPGRADE TMS FIELD ELEMENTS.
10-0Q17U4,2015-12-10,2015-09-28,2016-01-27,DESILVA GATES CONSTRUCTION LP,(925)829-9220,$26,332,332.00,10-SJ-132, 580-0.2, L0.0/15.3,Repair Pavement and Hot Mix Asphalt Overlay
02-0H3604,2015-12-08,2015-11-09,2016-01-06,J. F. SHEA CONSTRUCTION, INC.,(530)246-4200,$387,451.00,02-Teh-5, 32-VAR,Bridge Maintenance
05-1F5704,2015-12-08,2015-11-09,2016-01-05,GRANITE CONSTRUCTION COMPANY,(831)763-6100,$641,350.00,05-Mon-68-0.0/1.1,Cold plane and RHMA-G Overlay
07-258404,2015-12-08,2015-10-26,2016-01-20,POWELL CONSTRUCTORS, INC.,(909)356-8880,$3,958,069.90,07-LA-5-18.4/23.2,STORM WATER MITIGATION (TRASH TMDL)
05-0F7004,2015-12-08,2015-10-05,2016-01-22,VIKING CONSTRUCTION COMPANY,(916)852-5530,$17,934,686.30,05-Mon-68-R17.4/R18.0,BRIDGE WIDENING
04-2J0704,2015-12-03,2015-09-28,2016-03-15,BAY CITIES PAVING & GRADING, INC.,(925)687-6666,$49,896,755.50,04-Ala-880-2.9/27.3,INSTALL MEDIAN CONCRETE BARRIER
07-306204,2015-12-03,2015-10-12,2016-01-13,USS CAL BUILDERS,(714)828-4882,$15,011,485.74,07-LA-91-R11.3/R20.7,ROADWAY REHABILITATION
06-0T5904,2015-12-03,2015-10-19,2016-01-14,NORTHWEST PAVING,(530)246-4388,$1,934,911.00,06-Tul-137;190-18.2/27.4; 26.5/56.6,PME CHIP SEAL
12-0N3304,2015-12-03,2015-10-19,2016-01-06,SECURITY PAVING COMPANY, INC.,(818)362-9200,$7,571,967.00,12-Ora-5-12.8/21.6,Replace conc. slabs, overlay ramps & OC/UC FWY Lanes; Upgrade MBGRs, curb ramps, crash cushions; replace roadway signs, traffic delineations, dikes. Also overlay several under crossings, NB on/off ra
12-0H2254,2015-12-03,2015-10-26,2016-01-20,SMART TECH GROUP INC,(949)800-6040,$833,255.00,12-Ora-73-26.1/28.0,Install fiber optic cables & CCTV on SR-405 & SR-73.
02-0H9404,2015-12-03,2015-11-02,2016-02-10,S.T.RHOADES CONSTRUCTION INC.,(530)223-9322,$1,319,205.98,02-Las-139-53.0/57.0,AC Overlay
12-0M3404,2015-12-02,2015-10-19,2016-03-29,PETERSON-CHASE GENERAL ENGINEERING CONSTRUCTION, INC.,(949)252-0441,$2,219,115.03,12-Ora-73, 133-16.6, 4.2,WIDEN ROADWAY TO IMPROVE CHANNELIZATION AT GORE AREA & WIDEN RAMP, MODIFY SIGNAL OPERATIONS
07-2750U4,2015-12-02,2015-10-05,2016-03-14,ORTIZ ENTERPRISES, INC.,(949)753-1414,$7,846,375.20,07-Ven-33, 101-0.9/T5.8 2.3/13.8 ,INSTALL TREATMENT BMPS DEVICES
11-415504,2015-12-02,2015-11-02,2016-01-22,CROSSTOWN ELECTRICAL & DATA, INC.,(626)813-6693,$2,942,487.00,11-SD-5, 8, 15, 52, 54, etc-Var,REPLACE AND UPGRADE TMS FIELD ELEMENTS.
11-413304,2015-12-02,2015-10-19,2015-12-29,COFFMAN SPECIALTIES, INC.,(858)536-3100,$10,565,000.00,11-SD-15-R6.5/R10.9,GRIND PCC PAVEMEMENT AND SLAB REPLACEMENT
07-306404,2015-12-01,2015-10-12,2016-01-06,SELECT ELECTRIC, INC.,(619)460-6060,$11,663,702.82,07-LA-210-R24.7/R44.9,INSTALL & UPGRADE TMS FOR THE CORRIDOR
10-0Y9504,2015-11-19,2015-10-05,2015-12-18,BAY CITIES PAVING & GRADING, INC.,(925)687-6666,$2,970,000.00,10-SJ-120-6.7/16.7,RHMA overlay.
07-290104,2015-11-19,2015-10-05,2015-12-30,AUTOBAHN CONSTRUCTION INC.,(714)769-7025,$7,832,900.00,07-LA-91, 105-R6.5/R11.0, R4.0/R11.3,CONC BARRIER & RECONSTRUCT MBGR
04-4G4604,2015-11-19,2015-09-28,2016-01-28,GHILOTTI BROS/RM HARRIS JV,(925)335-3000,$8,376,663.77,04-Mrn-101-1.5/14.0,UPGRADE BRIDGE RAILS
02-0E0904,2015-11-19,2015-09-21,2016-02-03,GOLDEN STATE BRIDGE, INC.,(925)372-8000,$25,571,139.50,02-Sha-5-R29.3/R31.1, R45.0/R45.8,Bridge replacement and seismic retrofit
12-0N8214,2015-11-19,2015-10-19,2015-12-29,SERVITEK SOLUTIONS INC,(626)227-1650,$821,036.77,12-Ora-1, 74, 133, 142-Var,Install TMS equipment and traffic detection devices.
11-2M7304,2015-11-19,2015-10-19,2015-12-22,PETERSON-CHASE GENERAL ENGINEERING CONSTRUCTION, INC.,(949)252-0441,$1,617,153.50,11-SD-5,8,15,94,125,805,905-var,Clean and treat bridge decks with methacrylate, replace joint seals and repair spalls.
07-287404,2015-11-19,2015-10-05,2015-12-30,ODONNELL CONSTRUCTION, INC.,(909)394-4510,$1,994,796.50,07-LA-405-8.7/11.2,INSTALL CONCRETE/METAL BARRIERS
04-1SS474,2015-11-19,2015-10-19,2016-01-05,RGW CONSTRUCTION, INC.,(925)606-2400,$2,799,212.50,04-CC-680-R10.5/R11.0,Remove slide, install RSP and anchored wire mesh system.
04-3G4034,2015-11-18,2015-08-24,2016-01-05,AMERICAN CIVIL CONSTRUCTORS WEST COAST, INC.,(707)746-8028,$6,097,372.10,04-CC,Sol-80-13.4/14.1, 0.0/0.6,REPLACE JOINT SEALS AND DECK OVERLAY.
07-290704,2015-11-18,2015-09-21,2016-04-06,GOLDEN STATE BRIDGE, INC.,(925)372-8000,$15,204,505.00,07-LA-47-0.9/2.0,Replace bridge dampers and install buckling restrained braces
03-1F4004,2015-11-18,2015-09-28,2016-03-10,A. TEICHERT & SON INC. DBA TEICHERT CONSTRUCTION,(916)757-6400,$32,226,145.60,03-Pla-80-35.1/38.3,WIDENING EASTBOUND ROADWAY
11-416904,2015-11-18,2015-09-28,2015-12-22,SECURITY PAVING COMPANY, INC.,(818)362-9200,$34,451,017.20,11-Imp-8-R90.0/R96.8,PAVEMENT REHABILITATION
07-287604,2015-11-18,2015-10-19,2015-12-30,HIGHLAND CONSTRUCTION, INC.,(714)538-5156,$1,535,214.00,07-LA-101-8.5/9.4,INSTALL SAFETY LIGHT & MBGR BARRIER
06-0T5604,2015-11-18,2015-10-19,2015-12-18,GRANITE CONSTRUCTION COMPANY,(661)387-7747,$663,423.00,06-Ker-99-8.9/10.7,Rubberized Asphalt Concrete overlay Type G
07-129974,2015-11-18,2015-10-19,2015-12-30,FERREIRA CONSTRUCTION CO,, INC.,(909)606-5900,$4,921,321.00,07-LA-210-R18.8/R24.9,INSTALL COMM/TOS #4 FIELD HARDWARE
04-4S1904,2015-11-18,2015-10-19,2016-01-14,GHILOTTI CONSTRUCTION CO. INC.,(707)585-1221,$1,814,460.00,04-Son-116-15.0,CONSTRUCT SOLDIER PILE WALL
03-4F0204,2015-11-17,2015-09-21,2015-12-16,A. TEICHERT & SON, INC. DBA TEICHERT CONSTRUCTION,(209)983-2300,$7,317,000.00,03-Pla-65-R4.8/R12.2,RHMA-O (OGFC) and HMA-A Overlay
12-0N7904,2015-11-17,2015-10-19,2015-12-18,AEGIS ITS, INC.,(714)575-5734,$2,697,538.00,12-Ora-5,73,91,133,241, etc-VAR,To deploy a solid network security system that would protect, identify and eliminate the various potential threats and infusions to our current IP Gigabit Ethernet network.
08-0R4704,2015-11-17,2015-10-26,2016-01-05,YAKAR,(909)599-1612,$1,267,750.00,08-Riv-10,60-6.3/7.0, 30.3/30.5,IMPROVE WORKER SAFETY CONDITIONS, UPGRADE GUARDRAIL AND ROADSIDE FACILITES
01-0B4704,2015-11-17,2015-10-19,2015-12-22,MENDOCINO CONSTRUCTION SERVICES, INC.,(707)459-2377,$168,806.00,01-Men-1-35.7,REPAIR SLIPOUT
11-260414,2015-11-17,2015-10-12,2016-01-11,GRANITE CONSTRUCTION COMPANY,(760)444-1028,$2,099,732.00,11-SD-8-R37.8/R39.1,DRAINAGE IMPROVEMENTS
07-207604,2015-11-17,2015-10-12,2015-12-30,PETERSON-CHASE GENERAL ENGINEERING CONSTRUCTION, INC.,(949)252-0441,$2,948,412.57,07-LA-101-S0.5/17.1,INSTALL HIGH INT RTRORFLCTV SHEETNG
02-0H9304,2015-11-10,2015-10-19,2015-12-10,AMERICAN PAVEMENT SYSTEMS, INC.,(209)522-2277,$875,770.00,02-Las-139-20.0/30.0,Asphalt Rubber Seal Coat w/ Replace AC Surfacing
07-287104,2015-11-10,2015-09-28,2015-12-22,PETERSON-CHASE GENERAL ENGINEERING CONSTRUCTION, INC.,(949)252-0441,$2,308,410.95,07-LA-10, 101-S0.0/S0.1, 0.0/0.1,INSTALL CONCRETE BARRIER, FLASHING BEACON & SAFETY LIGHTING
01-0B3204,2015-11-10,2015-09-28,2016-03-18,STEWART ENGINEERING INC,(530)244-8464,$1,977,516.50,01-DN-199-24.7,CONSTRUCT SOLDIER PILE WALL
04-1SS034,2015-11-05,2015-09-28,2015-12-18,GHILOTTI CONSTRUCTION CO. INC.,(707)585-1221,$7,650,793.00,04-Ala-580-R4.9/R5.6,CONSTRUCT SOLDIER PILE WALL, RECONSTRUCTION OF LANES & SHOULDERS
02-4G8204,2015-11-05,2015-09-21,2015-12-18,J.F. SHEA CONSTRUCTION, INC.,(530)246-4292,$24,852,817.00,02-Sis-5-R10.7/R19.5,Roadway Rehabilitation
04-1A6724,2015-11-05,2015-09-21,2015-12-14,CERTIFIED COATINGS COMPANY,(707)639-4414,$16,733,408.00,04-Ala-580-46.0/46.8,Clean and paint structural steel girders, replace and upgrade electrical equipment, install TOS elements, and replace structural sign panels
04-2G4424,2015-11-05,2015-10-12,2015-12-23,MIDSTATE BARRIER, INC.,(209)944-9565,$288,391.00,04-CC-80-5.2/9.7,UPGRADE GUARDRAIL
07-308604,2015-11-05,2015-10-12,2015-11-30,CROSSTOWN ELECTRICAL & DATA, INC.,(626)813-6693,$2,669,946.00,07-LA-10,710-Various,UPGRADE RAMP METERING SYSTEM
11-076714,2015-11-05,2015-09-28,2015-12-14,HAL HAYS CONSTRUCTION INC.,(951)788-0703,$3,091,919.00,11-Imp-5708,CONSTRUCT SUB-SHOP AT EL CENTRO MAINTENANCE STATION
10-0X9704,2015-11-05,2015-09-28,2016-01-29,AMERICAN CIVIL CONSTRUCTORS WEST COAST, INC.,(707)746-8028,$2,485,163.20,10-SJ-4,99-16.0/19.4,18.5,INSTALL AUTOMATED WARNING SYSTEM
04-172454,2015-11-05,2015-10-12,2015-12-16,JOHN SEMSEN LANDSCAPING COMPANY,(209)743-4911,$454,444.44,04-Ala-880-18.4 Spot Location,ENVIRONMENTAL MITIGATION (SITE 1)
07-243204,2015-11-04,2015-10-05,2015-12-23,STATEWIDE TRAFFIC SAFETY & SIGNS INC.,(805)929-5070,$2,448,553.03,07-LA-5-39.4/R88.6,RPL OVERHEAD & GROUND SIGN PANELS
04-3G4864,2015-11-04,2015-06-29,2015-12-18,LIBERTY MAINTENANCE, INC. DBA OHIO LIBERTY MAINTENANCE, INC.,(330)755-7711,$53,786,915.00,04-SM-92-14.4/16.3,Clean and Paint Structural Steel on Bridge
02-4E8004,2015-11-04,2015-10-12,2016-02-24,HAT CREEK CONSTRUCTION & MATERIALS, INC.,(530)335-5501,$1,167,761.00,02-Sis-161-2.7/4.5,Rehabilitate Pavement
01-0B3104,2015-11-04,2015-09-28,2016-01-04,FLATIRON WEST INC,(707)742-6000,$1,788,411.00,01-DN-199-8.7, 21.7,CONSTRUCT BUTTRESSES
04-2G8504,2015-11-04,2015-09-28,2016-01-11,RGW CONSTRUCTION, INC.,(925)606-2400,$4,672,858.50,04-Ala-580-R4.0,Construct soldier pile tie-back wall
04-4H9004,2015-11-04,2015-09-28,2015-12-14,GRANITE ROCK COMPANY,(408)574-1400,$1,538,992.30,04-SF-280-R0.1, R1.5,Concrete Barrier, Retaining Wall, Shoulder and Sidewalk Widening
11-413704,2015-11-04,2015-09-14,2015-12-15,COFFMAN SPECIALTIES, INC.,(858)536-3100,$47,875,000.00,11-Imp-8-R65.0/R74.5,PAVEMENT REHABILITATION
07-297204,2015-11-03,2015-10-12,2015-12-11,PTM GENERAL ENGINEERING SERVICES INC.,(951)710-1000,$3,199,199.00,07-LA-105, 710-R12.8/R14.2, R15.4/R16.4,INSTALL SAFETY LIGHTING AND PAVEMENT DELINEATION
04-4G6404,2015-11-03,2015-09-21,2015-12-11,GHILOTTI CONSTRUCTION CO. INC.,(707)585-1221,$3,657,137.00,04-SM-84-21.6,Construct Secant Wall
05-0T9804,2015-11-03,2015-09-21,2015-12-22,GRANITE CONSTRUCTION COMPANY,(831)763-6100,$5,141,683.95,05-SCr-17-8.3/9.4,SHOULDER WIDENING AND CONCRETE GUARDRAIL
04-2G9504,2015-11-03,2015-10-12,2015-12-10,STEELHEAD CONSTRUCTORS, INC.,(530)226-6400,$1,061,377.00,04-Nap-128-29.7,CONSTRUCT ROADWAY RETAINING SYSTEM
10-1E4204,2015-11-03,2015-10-12,2015-12-14,GEORGE REED, INC.,(209)523-0700,$2,518,956.50,10-SJ-12-11.0/15.0,Cold In-Place Recycle
04-4A3614,2015-11-03,2015-09-28,2015-12-18,FBD VANGUARD CONSTRUCTION,(925)245-1300,$2,101,582.00,04-SM-1, 82, 101, 280-Var,Replace Metal Beam Guardrail With Concrete Barrier
04-264094,2015-11-03,2014-12-08,2016-01-21,GHILOTTI BROS / RM HARRIS JV,(415)454-7011,$42,838,764.51,04-Mrn,Son-101-26.8/27.6, 0.0/2.0,Roadway and structure
04-1A3404,2015-10-29,2015-09-21,2016-01-19,GRANITE ROCK COMPANY,(408)574-1400,$2,095,105.00,04-SCl-9-3.6, 11.4,BRIDGE RAIL REPLACEMENT
04-1J3204,2015-10-29,2015-09-21,2016-03-08,GORDON N. BALL, INC.,(925)838-5675,$1,429,690.00,04-Son-116-13.7,Construct retaining wall, place rock protection, modify drainage, and repair roadway
04-2J1704,2015-10-29,2015-09-28,2015-12-01,CORAL CONSTRUCTION COMPANY,(503)682-2252,$4,315,290.00,04-SCl-17, 85, 87, 101, 280, 680, 880, 237-VARIOUS,REPLACE OVERHEAD SIGN PANELS
04-2J0804,2015-10-29,2015-09-21,2015-11-24,GRANITE ROCK COMPANY,(408)574-1400,$16,899,530.00,04-SM-280-R2.1/10.8,RESURFACE ASPHALT CONCRETE PAVEMENT, REPLACE PCC SLABS (CAPM)
01-378174,2015-10-29,2015-09-21,2015-12-18,WYLATTI RESOURCE MANAGEMENT, INC.,(707)983-8135,$1,453,897.78,01-Men-128-2.8/11.1,Rehabilitate Culverts
04-4A3624,2015-10-29,2015-09-28,2015-12-02,FBD VANGUARD CONSTRUCTION,(925)245-1300,$1,755,559.50,04-Nap,Sol-80,680-VAR,Replace MBGR with concrete barrier.
03-0G0304,2015-10-29,2015-09-21,2016-02-10,VIKING CONSTRUCTION COMPANY, INC.,(916)852-5530,$2,587,589.90,03-ED,Pla-50, 80, 193-VAR,Bridge deck rehabilitation work at 8 locations
10-0W3604,2015-10-29,2015-10-05,2015-12-14,MAY-HAN ELECTRIC INC., DBA M & M ELECTRIC,(916)929-0150,$342,535.00,10-Ama-49-3.6,INSTALL TRAFFIC SIGNALS AND INTERSECTION IMPROVEMENTS
07-255104,2015-10-29,2015-09-08,2016-01-08,POWELL CONSTRUCTORS, INC.,(909)356-8880,$4,924,190.80,07-LA-60-R23.8/R24.5,CONTRUCT ON-RAMPS *PHASE 1 *OVERSIGHT
03-0F3704,2015-10-28,2015-09-21,2015-12-02,BALDWIN CONTRACTING COMPANY, INC. DBA KNIFE RIVER CONSTRUCTION,(530)891-6555,$4,099,147.73,03-Gle-5-R24.8/R28.6,LOWER ROADWAY PROFILE TO IMPROVE VERTICAL CLEARANCE
04-3G7004,2015-10-28,2015-09-28,2015-12-14,GHILOTTI BROS., INC.,(415)454-7011,$1,992,117.50,04-Mrn,SF-101, 280-Var,ROADSIDE SAFETY IMPROVEMENTS
01-497714,2015-10-28,2015-09-21,2015-12-14,GRANITE CONSTRUCTION COMPANY,(707)467-4100,$779,789.00,01-Men-1-2.4,PERMANENT RESTORATION
07-288024,2015-10-27,2015-09-21,2016-01-05,POWELL CONSTRUCTORS, INC.,(909)356-8880,$1,914,395.50,07-LA-210-R10.5/R15.7,CONSTRUCT STORM WATER TREATMENT BMP’S
04-1SS364,2015-10-27,2015-10-05,2015-12-04,DREAMBUILDER CONSTRUCTION CORP.,(714)646-3697,$667,661.00,04-Son-101-33.5,In Healdsburg, at 0.1 mile south of Grant Avenue undercrossing. Repair slipout.
04-2G4514,2015-10-27,2015-09-21,2015-11-24,DREAMBUILDER CONSTRUCTION CORP.,(714)646-3697,$2,930,337.18,04-CC-160, 242, 680-var,Upgrade transition railing
02-4E4404,2015-10-27,2015-09-21,2015-11-24,HAT CREEK CONSTRUCTION & MATERIALS, INC.,(530)335-5501,$18,595,000.00,02-Mod-139-R10.7/28.0,Pavement Rehabilation
02-0H2104,2015-10-27,2015-09-28,2016-02-05,CORAL CONSTRUCTION COMPANY,(503)682-2252,$1,959,002.00,02-Sha,Sis,Teh-3, 5, 44, 89, 273, 299-VAR,Upgrade signs to retro-reflective
07-4T7604,2015-10-27,2015-10-05,2015-11-30,SECURITY PAVING COMPANY, INC.,(818)362-9200,$706,756.00,07-LA-60-R4.0/R8.6,Slab Replacement
03-2F6304,2015-10-27,2015-09-28,2015-11-16,DESILVA GATES CONSTRUCTION LP,(925)829-9220,$958,858.00,03-Sac-5-32.2/32.7,CREATE A LONGER DECELERATION LANE
07-308504,2015-10-22,2015-09-28,2016-01-05,SERVITEK SOLUTIONS INC,(626)227-1650,$2,172,624.38,07-Ven-23, 118-R4.8/R11.4, T19.0/R32.6,UPGRADE RAMP METERING SYSTEM
04-2J1504,2015-10-22,2015-09-21,2016-01-28,CORAL CONSTRUCTION COMPANY,(503)682-2252,$2,523,200.00,04-CC-4, 80, 580, 680-Var,REPLACE OVERHEAD SIGN PANELS
05-1G2804,2015-10-22,2015-09-21,2015-11-13,PTM GENERAL ENGINEERING SERVICES INC.,(951)710-1000,$1,086,896.00,05-Mon,SLO,SB,SCr-VAR-VAR,Install Countdown Pedestrian Signal (CPS) / Accessible Pedestrian Signal (APS)
10-0P6704,2015-10-22,2015-09-14,2015-12-30,SCS FIELD SERVICES,(925)426-0080,$236,229.00,10-Tuo-5724,CLEANUP SOIL AND GROUNDWATER
04-2G5224,2015-10-21,2015-09-28,2015-12-04,DIRT AND AGGREGATE INTERCHANGE, INC.,(503)661-5093,$1,435,195.00,04-Ala-580 and 680-VAR,UPGRADE TRANSITION RAILING AT VARIOUS LOCATIONS
10-1C2104,2015-10-21,2015-09-21,2015-11-18,ST. FRANCIS ELECTRIC,(510)639-0639,$2,977,726.85,04, 10-Ala, SJ-5, 205,580-Var,INSTALL RAMP METERS, CCTV, RWIS, AND FO
04-2J1804,2015-10-21,2015-09-21,2016-01-12,PETERSON-CHASE GENERAL ENGINEERING CONSTRUCTION, INC.,(949)252-0441,$1,416,990.00,04-Mrn,Nap,Son-12,29,37,101,580-VAR,REPLACE OVERHEAD SIGN PANELS
11-413604,2015-10-21,2015-08-31,2015-11-18,COFFMAN SPECIALTIES, INC.,(858)536-3100,$50,555,000.00,11-Imp-8-R45.5/R55.0,PAVEMENT REHABILITATION.
04-272054,2015-10-21,2015-09-14,2015-11-24,DESILVA GATES CONSTRUCTION LP,(925)829-9220,$1,575,575.00,04-SCl-280-7.5/11.5,REHABILITATE EXISTING PAVEMENT ON RAMPS
04-2G4414,2015-10-20,2015-09-21,2015-12-11,MIDSTATE BARRIER, INC.,(209)944-9565,$1,287,530.00,04-CC-80, 580-Various,Upgrade transition railing
07-297804,2015-10-20,2015-09-28,2016-01-08,DREAMBUILDER CONSTRUCTION CORP.,(714)646-3697,$1,447,061.00,07-LA-138-2.1/36.7,INSTALL CENTERLINE & SHOULDER RUMBLE STRIPS
09-355304,2015-10-20,2015-09-21,2016-01-08,PAVE-TECH INC.,(760)727-8700,$10,311,168.06,09-Iny-127-0.0/21.0,Cold in-place recycling and HMA overlay.
08-0Q2004,2015-10-15,2015-08-31,2015-11-04,DREAMBUILDER CONSTRUCTION CORP.,(714)646-3697,$881,253.00,08-Riv-10, 15-Var,Replace Rock Slope Protection
07-1193U4,2015-10-15,2015-08-17,2015-11-16,GUY F. ATKINSON,(949)382-7172,$172,198,015.00,07-LA-10-37.2/42.4,Widen FWY, Construct HOV Lanes and Roadway Rehabilitation (Segment 3)
04-3G1104,2015-10-15,2015-09-21,2015-11-10,GHILOTTI CONSTRUCTION CO. INC.,(707)585-1221,$540,737.00,04-Son-116-39.8,PLACE ROCK SLOPE PROTECTION
12-0L0904,2015-10-15,2015-09-21,2015-11-06,AUTOBAHN CONSTRUCTION INC.,(714)769-7025,$3,095,479.00,12-Ora-57-11.0/22.5,PCC PROFILE GRINDING AND SLAB REPLACEMENT.
03-3F6904,2015-10-15,2015-09-21,2015-11-04,FBD VANGUARD CONSTRUCTION,(925)245-1300,$1,417,167.50,03-Yol-50-0.4/0.6,Relocate existing Weigh In Motion station
09-356904,2015-10-15,2015-09-21,2016-01-04,PETERSON-CHASE GENERAL ENGINEERING CONSTRUCTION, INC.,(949)252-0441,$2,124,870.00,09-Iny,Mno-6, 108, 136, 158, 168, 182, 395-var,Construct concrete barrier and midwest guardrail system.
05-1G1904,2015-10-15,2015-09-21,2015-11-10,PETERSON-CHASE GENERAL ENGINEERING CONSTRUCTION, INC.,(949)252-0441,$1,195,580.00,05-Mon,SBt,SLO,SB,SCr-1,9,17,41, 46, etc-various,Remove and replace sign panels
12-0N1104,2015-10-14,2015-08-24,2016-01-05,USS CAL BUILDERS,(714)828-4882,$15,014,625.79,12-Ora-133-9.5,ORANGE COUNTY IN CITY OF IRVINE AT ROUTE 133/5 SEPARATION
10-0K3404,2015-10-14,2015-09-21,2015-11-18,TIM PAXINS PACIFIC EXCAVATION, INC,(916)686-2800,$2,332,739.00,10-Sta-5,99-Var,INSTALL TRAFFIC MONITORING STATIONS (TMS) AT VARIOUS LOCATIONS
08-0R4604,2015-10-14,2015-08-31,2015-11-17,YAKAR,(909)599-1612,$994,929.00,08-Riv-91-10.8/12.9,IMPROVE WORKER SAFETY CONDITIONS. UPGRADE GUARDRAIL AND ROADSIDE FACILITIES.
04-2J1604,2015-10-14,2015-09-21,2015-12-01,PETERSON-CHASE GENERAL ENGINEERING CONSTRUCTION, INC.,(949)252-0441,$601,070.00,04-Sol-12, 37, 80, 113, 505, 680, 780-Var,REPLACE OVERHEAD SIGN PANELS
03-3F6404,2015-10-14,2015-09-21,2015-11-10,MARTIN BROTHERS CONSTRUCTION,(916)381-0911,$1,346,115.00,03-Sac-99-6.9,REPLACE AND LENGTHEN CONCRETE, REPLACE SENSORS FOR CABINET CONTROLLER, RAISE CABINET, AND WIDEN SHOULDER FOR MAINTENANCE PULLOUT
09-364504,2015-10-14,2015-09-21,2015-12-18,PETERSON-CHASE GENERAL ENGINEERING CONSTRUCTION, INC.,(949)252-0441,$843,706.20,09-Ker,Iny-14, 58, 395-various,Install changeable message sign.
05-1C0904,2015-10-13,2015-09-21,2015-10-30,CLEAN CUT LANDSCAPE,(559)322-2041,$2,180,636.60,05-Mon-68, 101-Var,ROADSIDE SAFETY IMPROVEMENTS
10-1C2204,2015-10-13,2015-09-21,2015-11-17,ST. FRANCIS ELECTRIC, LLC,(510)639-0639,$2,764,979.50,10-Mer,SJ,Sta,Tuo-5,99,108,120,152,205-Varies,REPAIR OF TRANSPORTATION MANAGEMENT SYSTEM ELEMENTS
03-4F7104,2015-10-13,2015-09-21,2016-01-12,PETERSON-CHASE GENERAL ENGINEERING CONSTRUCTION, INC.,(949)252-0441,$2,530,412.00,03-ED,Pla,Sac,Yol-5, 50, 51, 80, 99-VAR,Replace sign panels and upgrade sign structures
09-360604,2015-10-13,2015-09-21,2015-10-27,HERBACK GENERAL ENGINEERING,(775)267-6800,$4,408,631.00,09-Mno-395-69.9/76.0,Cold plane asphalt concrete pavement and place hot mix asphalt.
04-2G8304,2015-10-13,2015-09-08,2015-11-20,GRANITE CONSTRUCTION COMPANY,(408)327-7013,$1,555,546.83,04-Ala-13-8.8,REPAIR SLOPE SLIDE WITH SOLDER BEAM TIE BACK RETAINING WALL
02-4E6904,2015-10-13,2015-09-21,2016-01-08,CAL ELECTRO, INC.,(530)223-5937,$1,890,029.00,02-Las,Sac-395, 5-49.6, 23.3,Rehabilitate waste water system.
05-1C2404,2015-10-13,2015-09-21,2015-10-30,SOUZA CONSTRUCTION, INC.,(805)546-8288,$1,698,500.00,05-SLO-1-17.7/59.0,INSTALL RUMBLE STRIP
07-3X7114,2015-10-08,2015-08-17,2015-11-16,POWELL CONSTRUCTORS, INC.,(909)356-8880,$6,255,779.65,07-LA-60-R7.4/R8.1,REALIGN RAMP & APPROACHES TO NEW BRIDGE PERMANENT RESTORATION
08-0K2924,2015-10-07,2015-08-03,2015-10-30,J. MCLOUGHLIN ENGINEERING CO., INC.,(909)944-1037,$25,855,928.00,08-SBd-10-32.9/R37.4,LANE REPLACEMENT
04-2G5014,2015-10-07,2015-08-10,2015-11-03,MIDSTATE BARRIER, INC.,(209)944-9565,$4,155,900.00,04-Ala-24, 80,84, 92, 880, 980-Var,Upgrade Existing Transition Railing
10-1E4104,2015-10-01,2015-09-08,2015-11-20,GEORGE REED INC,(209)523-0730,$1,989,120.00,10-Tuo-108-R21.0/27.0,37.8/45.5,Cold plane and resurface with HMA.
03-0G1004,2015-09-30,2015-09-08,2015-10-20,VINTAGE PAVING COMPANY, INC,(530)795-0132,$1,083,125.40,03-Sie-89-19.9/29.6,Replace AC Surfacing
04-2G5404,2015-09-29,2015-08-31,2016-01-06,OGRADY PAVING INC.,(650)966-1926,$4,769,298.60,04-SCl-82-14.8/18.1,Improve Safety, Reduce accidents, upgrade existing drainage system.
11-408004,2015-09-29,2015-08-31,2015-11-24,PAL GENERAL ENGINEERING INC,(858)638-7100,$1,276,646.00,11-SD-79-0.0/29.6,Bridge rail upgrades, replacements
04-264H34,2015-09-24,2015-08-03,2015-11-04,GHILOTTI BROS/RM HARRIS JV,(925)335-3000,$2,706,563.15,04-Mrn-101-18.9/25.8,CONSTRUCT FOLLOW-UP MITIGATION AND SOUNDWALL
07-316604,2015-09-24,2015-08-31,2015-10-02,NORDIC INDUSTRIES, INC.,(530)742-7124,$8,234,261.00,07-LA-1-41.8/42.1,
11-002714,2015-09-24,2015-08-24,2015-10-26,CLEAN CUT LANDSCAPE,(559)322-2041,$798,801.00,11-SD-5-R20.3/R21.4,LANDSCAPE MITIGATION.
08-0M2804,2015-09-23,2015-08-03,2015-11-04,M.C.M. CONSTRUCTION, INC.,(916)334-1221,$10,600,000.00,08-SBd-15-171.8/ 173.8,REPLACE CENDA DITCH BRIDGE AND REHABILITATE WHEATON WASH BRIDGE
04-4H8304,2015-09-23,2015-08-24,2015-10-15,WESTERN STRUCTURES,(951)352-4300,$2,962,034.82,04-Ala-24, 580, 680, 880 & 980-Var,Bridge repair work
06-0Q0204,2015-09-22,2015-08-31,2015-10-20,TRUESDELL CORPORATION OF CALIFORNIA, INC.,(602)437-1711,$518,518.00,06-Fre,Mad-41,99,168,180-Var,BRIDGE DECK AND JOINT SEALS
04-0J9404,2015-09-22,2015-08-31,2015-12-23,MCGUIRE AND HESTER,(510)632-7676,$553,850.00,04-Ala-5706,CONSTRUCT VEHICLE RINSE STATION
04-1SS354,2015-09-22,2015-08-31,2015-10-12,REGE CONSTRUCTION, INC.,(707)894-5143,$387,792.00,04-Son-101-11.6,IN SONOMA COUNTY NEAR COTATI AT 0.4 MILE SOUTH OF SIERRA AVENUE UNDERCROSSING, REGRADE SLOPE
07-293404,2015-09-17,2015-08-17,2015-12-07,WEST COAST PUBLIC WORKS, INC.,(818)256-9401,$3,010,497.40,07-LA-5-25.2/25.9,CONSTRUCT MEDIAN BARRIER
10-0V2904,2015-09-17,2015-08-03,2015-10-26,GEORGE REED, INC.,(209)523-0737,$904,211.00,10-Cal-26-8.8/9.1,INSTALL A TWO-WAY LEFT-TURN LANE
04-3G1704,2015-09-16,2015-08-17,2015-10-12,PACIFIC INFRASTRUCTURE CONSTRUCTION, LLC,(707)449-3604,$875,125.00,04-SF-101-3.4,RECONSTRUCT SLOPE
12-0N5404,2015-09-16,2015-08-03,2015-10-14,ORTIZ ENTERPRISES, INC.,(949)753-1414,$9,391,173.32,12-Ora-405-8.4,Stabilize embankment in Red Hill Avenue on the south side of Route 405
04-1SS414,2015-09-15,2015-07-27,2015-10-26,GORDON N. BALL, INC.,(925)838-5675,$1,871,121.00,04-Ala-13-4.9,Soldier pile retaining wall
11-299204,2015-09-15,2015-08-03,2015-10-13,FUTURE DB INTERNATIONAL INC.,(949)390-2110,$2,491,341.48,11-SD-94, 805-Var,SEISMIC RETROFIT 4 BRIDGES UPGRADES
04-3G4574,2015-09-15,2015-08-17,2015-10-21,MYERS AND SONS CONSTRUCTION, LP,(916)283-9950,$4,756,936.70,04-CC,Mrn,SF-580, 80-6.1/7.8, 0.0/2.6; 5.7/7.7,REPLACE JOINT SEALS AND RELATED WORK
05-1F69U4,2015-09-10,2015-07-20,2015-10-12,GRANITE ROCK COMPANY,(408)574-1400,$22,809,871.00,05-Mon-101-55.2/73.8,Pavement Preservation
04-4G4704,2015-09-10,2015-08-03,2015-10-12,VIKING CONSTRUCTION COMPANY, INC.,(916)852-5500,$1,838,798.00,04-Mrn-580-3.3/4.5,Upgrade bridge rails
02-4F7104,2015-09-10,2015-08-03,2015-09-29,TULLIS, INC.,(530)241-5105,$890,875.00,02-Teh-5-R24.4/R25.2,R26.3/R26.8,Pavement Preservation
04-286804,2015-09-10,2015-08-17,2015-10-13,FBD VANGUARD CONSTRUCTION,(925)245-1300,$1,823,141.70,04-CC-04 & 29-R11.0;04-29-R9.1,WEIGH IN MOTION
06-360234,2015-09-09,2015-07-20,2015-10-15,A. TEICHERT & SON INC. DBA TEICHERT CONSTRUCTION,(559)813-3025,$15,423,000.00,06-Tul-99-35.2/R37.3,Widen highway from 4 lane to 6-lane.
07-4Y7004,2015-09-09,2015-08-10,2015-10-12,MURPHY INDUSTRIAL COATINGS, INC.,(562)427-7720,$5,696,175.00,07-LA-405-8.8,Full Removal and Paint Steel Girders
07-292204,2015-09-09,2015-08-03,2015-10-02,DREAMBUILDER CONSTRUCTION CORP.,(714)646-3697,$1,746,640.00,07-LA-2, 134-Various,MAINTENANCE SAFETY *2012 SHOPP *AADD
11-2T1904,2015-09-03,2015-07-13,2015-12-15,COFFMAN SPECIALTIES, INC.,(858)536-3100,$9,285,000.00,11-SD-15-M5.6/R6.0,CONSTRUCT COMMUTER BIKE FACILITY
03-0G0504,2015-09-03,2015-07-27,2015-09-25,AMERICAN CIVIL CONSTRUCTORS WEST COAST, INC.,(707)746-8028,$2,183,099.60,03-Yol-5, 113-Var,Place bridge deck preventative maintenance polyester and methacrylate overlay deck treatments on 15 bridges
11-415404,2015-09-02,2015-07-27,2015-09-30,HAZARD CONSTRUCTION COMPANY,(858)587-3600,$1,474,563.00,11-SD-8-16.0/R30.5,ENHANCE STRIPING AND UPGRADE BRIDGE END TREATMENTS
05-1E0604,2015-09-02,2015-08-10,2015-10-30,GRANITE CONSTRUCTION COMPANY,(408)327-7013,$4,848,536.08,05-Mon-101-47.7/53.9,CONCRETE MEDIAN BARRIER, INSIDE SHOULDER WIDENING AND RUMBLE STRIP
01-0B3004,2015-09-02,2015-07-27,2015-10-02,J. F. SHEA CONSTRUCTION, INC.,(530)246-4292,$3,387,881.60,01-DN-101-21.9,STABILIZE ROADWAY
12-0E31A4,2015-09-01,2015-08-03,2015-09-22,STL LANDSCAPE, INC.,(323)581-8200,$818,022.00,12-Ora-5,74-9.3/10.0 , 0.0/0.2,HIGHWAY REPLACEMMENT PLANTING
03-2F3304,2015-09-01,2015-07-20,2015-09-29,BALDWIN CONTRACTING COMPANY, INC. DBA KNIFE RIVER CONSTRUCT ION,(530)891-6555,$9,876,093.90,03-But-99-30.1/T37.5,RHMA-O (OGFC) and HMA-A Overlay
06-0R1504,2015-08-27,2015-07-20,2015-09-30,PAVE-TECH INC.,(760)727-8700,$13,438,235.91,06-Ker-58-R88.5/R99.8,Cold Plane AC Pavement and overlay the existing payment
04-1SS484,2015-08-27,2015-08-03,2015-09-29,GRANITE ROCK COMPANY,(408)574-1400,$159,240.00,04-SCl-87-4.9,Install Permeable Blanket, Pavement
08-3555V4,2015-08-27,2015-06-15,2015-11-05,AMES CONSTRUCTION, INC.,(951)356-1275,$70,455,276.90,08-SBd-15-42.5/46.0,
01-0B3604,2015-08-26,2015-07-20,2015-10-07,MERCER FRASER COMPANY,(707)443-6371,$1,066,950.00,01-Hum-36-35.9,RECONSTRUCT ROADWAY AND DRAINAGE
08-0R2204,2015-08-26,2015-08-03,2015-09-24,ALCORN FENCE COMPANY,(323)875-1342,$4,207,164.00,08-SBd-18-T8.3/R17.7,INSTALL MEDIAN BARRIER
04-1J1904,2015-08-26,2015-07-27,2015-09-28,GRANITE CONSTRUCTION COMPANY,(408)327-7013,$4,096,327.58,04-Ala-13-4.3/R9.6,Cold plane asphalt concrete pavement and overlay with RHMA-G.
04-1SS374,2015-08-25,2015-07-27,2016-01-25,GRANITE CONSTRUCTION COMPANY,(707)467-4100,$568,528.50,04-Son-121-10.2,Slipout
07-292104,2015-08-25,2015-07-20,2015-09-29,MARTINEZ LANDSCAPE CO., INC.,(818)364-9188,$1,243,755.00,07-LA-101,134,170-11.4/11.8, 0.0/0.5, R14.5/R14.8,MAINTENANCE SAFETY *2012 SHOPP
01-487404,2015-08-25,2015-07-27,2015-09-23,MERCER FRASER COMPANY,(707)443-6371,$5,825,925.00,01-Hum-299-R29.2/38.6,PAVEMENT REHABILITATION
04-2G5214,2015-08-25,2015-07-06,2015-09-30,DIRT AND AGGREGATE INTERCHANGE, INC.,(503)661-5093,$3,496,222.00,04-Ala-580 & 680-I-580 ( PM 19.4/46.0) & I-680 (PM 3.3/21.7),UPGRADE TRANSITION RAILING AT VARIOUS LOCATIONS
04-1J1704,2015-08-19,2015-07-27,2015-09-16,O.C. JONES & SONS, INC.,(510)526-3424,$2,032,131.00,04-Son-1-0.0/7.1,COLD PLANE ASPHALT CONCRETE PAVEMENT AND PLACE RHMA
09-361404,2015-08-19,2015-07-20,2015-09-16,PAVE-TECH INC.,(760)727-8700,$2,691,000.43,09-Iny-395-R0.0/R8.6,Rubberized HMA thin blanket overlay.
03-4F0404,2015-08-18,2015-07-20,2015-09-10,DESILVA GATES CONSTRUCTION LP,(925)829-9220,$3,388,488.00,03-Pla,Yub-65-R23.8/R24.3, 0.0/0.6, 1.7/R4.8,HMA overlay
09-350604,2015-08-18,2015-07-20,2015-09-18,SPIESS CONSTRUCTION CO., INC.,(805)937-5859,$910,712.00,09-Iny-168-16.8/17.5,CONSTRUCT SIDEWALKS
10-1C0904,2015-08-18,2015-07-20,2015-10-09,GOLDEN STATE BRIDGE, INC.,(925)372-8000,$5,298,628.60,10-SJ-4-R16.6/R17.4,REPAIR HINGES AND BEARING PADS
01-0E2304,2015-08-13,2015-07-20,2015-11-16,STEWART ENGINEERING INC,(530)244-8464,$1,787,954.50,01-Hum-101-R48.7,REHABILITATE BRIDGE DECK
04-1J5904,2015-08-13,2015-07-20,2015-10-20,GRANITE ROCK COMPANY,(408)574-1400,$603,287.20,04-SM-1-32.0/32.2,ROCK SLOPE PROTECTION, INSTALL STAIRCASE
11-410604,2015-08-13,2015-07-13,2015-09-22,WESTERN RIM CONSTRUCTORS, INC.,(760)489-4328,$1,359,008.29,11-Imp,SD-5,54,75,78,115,163-Var,INSTALL AND UPGRADE CURB RAMPS AND SIDEWALKS TO CURRENT ADA STANDARDS
03-4E8604,2015-08-13,2015-06-29,2015-09-08,A. TEICHERT & SON, INC DBA TEICHERT CONSTRUCTION,(916)645-4800,$5,337,812.00,03-Pla-193-4.4/5.5,CURVE IMPROVEMENT
06-0M0504,2015-08-13,2015-06-22,2015-09-11,LEES PAVING, INC.,(559)651-1337,$2,325,366.55,06-Fre-168-T29.0/T29.4,Realign 2-Lane Roadway
05-1A8704,2015-08-13,2015-07-06,2015-09-08,GRANITE CONSTRUCTION COMPANY,(831)763-6100,$1,083,868.00,05-SCr-1, 17-17.0, 0.0,Re-striping and shoulder widening.
03-0H1504,2015-08-12,2015-07-20,2015-09-03,MIDSTATE BARRIER, INC.,(209)944-9565,$854,980.00,03-Sac,Sut-99-35.2/36.9, 0.0/1.7,Install thrie beam median barrier
04-3G6804,2015-08-12,2015-07-13,2015-09-16,GRANITE ROCK COMPANY,(408)574-1400,$741,472.90,04-SM-101,280,380-Var,Construct Roadside Pavement, MVPs and Access Gates at Various Locations
01-0B03U4,2015-08-12,2015-06-29,2015-10-13,R. BROWN CONSTRUCTION COMPANY, INC.,(530)629-3702,$5,342,383.25,01-Hum-96-8.3/8.9,STABILIZE ROADWAY
11-407604,2015-08-12,2015-07-06,2015-09-16,PETERSON CHASE GENERAL ENGINEERING CONSTRUCTION INC,(949)252-0441,$2,273,062.40,11-SD-5,8,52-Var,UPGRADE BRIDGE RAIL END TREATMENTS
10-0Y9804,2015-08-12,2015-07-20,2015-09-08,CHRISP COMPANY,(209)948-2175,$655,902.00,10-Cal-49-var,Construct rumble strips.
05-1C1304,2015-08-11,2015-07-20,2015-08-25,SOUZA CONSTRUCTION INC,(805)546-8288,$350,525.00,05-SLO-1-R12.6,CURB RAMPS AND SIDEWALK
12-0N1404,2015-08-11,2015-07-06,2015-09-08,ALL AMERICAN ASPHALT,(951)736-7600,$975,342.40,12-Ora-57-20.7/21.2,SHOULDER WIDENING, MODIFY CURBS, GUTTER AND DRAINAGE.
04-2G8604,2015-08-11,2015-07-13,2015-08-31,GORDON N. BALL, INC.,(925)838-5675,$1,649,952.00,04-Ala-580-R33.4,Re-build embankment.
10-0S7204,2015-08-11,2015-07-13,2015-09-11,GEORGE REED, INC.,(209)523-0734,$2,611,277.50,10-Ama-49-4.0/7.0,ASPHALT CONCRETE OVERLAY, CURB RAMPS, REPLACE GUARDRAIL AND DIKES
03-2F6004,2015-08-05,2015-06-22,2015-09-04,ROBERT J. FRANK CONSTRUCTION,(530)222-1408,$857,316.00,03-ED-49-15.0,ADA curb ramps, right turn lane.
01-463924,2015-08-05,2015-06-22,2015-08-25,APEX FENCE COMPANY INC,(530)365-3316,$4,097,371.50,01-Hum-VAR-VAR,Reconstruct guard railing.
07-2W7604,2015-08-05,2015-07-13,2015-08-31,PETERSON-CHASE GENERAL ENGINEERING CONSTRUCTION, INC.,(949)252-0441,$960,034.76,07-LA-5, 118, 210-Var,JT SEAL,METH DECK,PATCH SPALLS
12-0N3404,2015-08-04,2015-07-06,2015-10-06,WESTERN STRUCTURES,(951)352-4300,$2,266,581.76,12-Ora-22, 55, 57-Various,Project consist of repairing concrete bridge deck spalls, placement of polyester concrete, installation of Type B seals and expansion joint neoprene gland, remove and replace existing damaged approach
10-0Y6504,2015-08-04,2015-07-13,2015-08-26,CENTRAL STRIPING SERVICE, INC.,(916)635-5175,$650,070.07,10-Cal,SJ-12,26-Var,INSTALL CENTERLINE AND EDGE LINE RUMBLE STRIPES
02-4E8904,2015-07-30,2015-06-22,2015-08-20,J. F. SHEA CONSTRUCTION, INC.,(530)246-4292,$1,983,967.00,02-Sha-299-47.5/48.1,CURVE IMPROVEMENT
04-4A4804,2015-07-30,2015-06-22,2015-10-20,GORDON N. BALL, INC.,(925)838-5675,$9,552,755.00,04-Ala-260-R0.8/R2.0,Replace Guardrail
06-424714,2015-07-29,2015-06-22,2015-09-01,GRANITE CONSTRUCTION COMPANY,(661)399-3361,$5,525,494.70,06-Ker-119-R10.0/R13.3,Add truck climbing lanes
01-0B3404,2015-07-29,2015-06-22,2015-08-20,MERCER FRASER COMPANY,(707)443-6371,$1,489,626.00,01-Hum-36-22.8/27.7,RECONSTRUCT ROADWAY & DRAINAGE
09-351204,2015-07-29,2015-06-22,2015-09-09,CUTTING EDGE CONCRETE SERVICES,(760)955-2888,$1,715,686.16,09-Iny-395-R20.3/R22.3,Widen shoulders, install culverts, widen bridge.
06-0N9604,2015-07-28,2015-06-22,2015-09-24,AMERICAN CIVIL CONSTRUCTORS WEST COAST, INC.,(707)746-8028,$6,945,265.44,06-Ker-204-5.4/6.7,PLACE DECK OVERLAY, REPLACE JOINT SEALS & PAINT
01-0A3204,2015-07-28,2015-06-22,2015-08-19,R. BROWN CONSTRUCTION COMPANY, INC.,(530)629-3702,$1,858,087.50,01-Hum-299-30.2/30.6,Curve Improvement
07-293804,2015-07-28,2015-06-22,2015-09-08,CROSSTOWN ELECTRICAL & DATA, INC.,(626)813-6693,$2,165,436.16,07-LA-110-8.6/14.0,RAMP/ARTERIAL SIGNALIZED INTERSECT
11-409304,2015-07-23,2015-05-26,2015-09-01,ABHE & SVOBODA, INC.,(952)447-6025,$17,433,710.00,11-SD-75-R21.0/R21.6,Paint Steel Surfaces and Build Traveler Systems
05-1A7604,2015-07-23,2015-06-22,2015-08-12,GRANITE CONSTRUCTION COMPANY,(831)763-5578,$7,122,069.98,05-Mon-1-R77.6/R85.3,PAVEMENT PRESERVATION (CAP M)
06-0S2704,2015-07-23,2015-06-22,2015-08-18,GRANITE CONSTRUCTION COMPANY,(661)399-3361,$4,903,682.00,06-Ker-395-0.0/R23.4,Resurface existing pavement with RHMA (gap graded).
06-0S9304,2015-07-22,2015-06-29,2015-08-18,PELAGIC ENGINEERING,(805)984-3421,$235,905.00,06-Fre,Ker,Mad,Tul-58, 63, 65, 137, 145, etc-Var,Install Accessible/Countdown Signal Heads
10-0Y90U4,2015-07-22,2015-06-15,2015-12-04,BAY CITIES PAVING & GRADING, INC.,(925)687-6666,$4,966,899.95,10-SJ-99-18.4/23.0,Rehabilitate pavement and install ramp metering systems, closed circuit televisions.
01-0E2604,2015-07-22,2015-06-29,2015-08-19,MERCER FRASER COMPANY,(707)443-6371,$3,267,122.50,01-DN-101-20.4/23.6,Cold Plane AC, place HMA Type A, place High Friction Surface Treatment
06-0S2804,2015-07-21,2015-06-22,2015-08-17,PAVE-TECH INC.,(760)727-8700,$3,783,110.70,06-Ker-58-R136.0/R143.8,Cold plane AC pavement and RHMA overlay
01-0B5704,2015-07-21,2015-06-22,2015-08-13,MENDOCINO CONSTRUCTION SERVICES, INC.,(707)459-2377,$2,477,668.00,01-Men-253-6.9,Construct Soldier Pile Wall
01-4939U4,2015-07-21,2015-06-29,2015-08-20,GRANITE CONSTRUCTION COMPANY,(707)467-4100,$1,165,212.50,01-Men-20, 162-7.14/29.18, 5.28/22.45,Construct Turnouts
04-3G7104,2015-07-21,2015-06-29,2015-08-24,PACIFIC INFRASTRUCTURE CONSTRUCTION, LLC,(707)449-3604,$964,468.00,04-Ala-238, 580, 680, 880-Various,ROADSIDE SAFETY IMPROVEMENTS
05-0R5104,2015-07-21,2015-06-22,2015-08-26,PACIFIC INFRASTRUCTURE CONSTRUCTION, LLC,(707)449-3604,$1,092,510.00,05-Mon,SCr-1, 9, 68, 218-Various,ADA CURB RAMPS AND MINOR SIDEWALKS
10-0Y6804,2015-07-16,2015-06-22,2015-08-05,CHRISP COMPANY,(510)656-2840,$130,585.00,10-SJ-88-15.4/19.4,INSTALL IN-GROUND CENTERLINE AND SHOULDER RUMBLE STRIPS
06-0S7504,2015-07-16,2015-06-22,2015-08-05,STATEWIDE TRAFFIC SAFETY & SIGNS INC.,(805)929-5070,$1,333,322.80,06-Ker-5, 58, 99, 178-var,Remove and replace sign panels
02-0H2904,2015-07-15,2015-06-22,2015-08-13,CENTRAL STRIPING SERVICE, INC.,(916)635-5175,$556,330.00,02-Sha,Sis-89, 97-VAR,Install Rumble Strips
02-3E8004,2015-07-15,2015-06-22,2015-08-31,STIMPEL-WIEBELHAUS ASSOCIATES INC.,(530)223-6605,$756,713.00,02-Sha-273-15.0/15.8,CONSTRUCT & MODIFY ADA CURB RAMPS
06-0S7404,2015-07-14,2015-06-22,2015-08-17,PETERSON-CHASE GENERAL ENGINEERING CONSTRUCTION, INC.,(949)252-0441,$1,525,426.00,06-Fre,Kin,Tul-5, 41, 168, 180, 198-Varies,Upgrade Sign Panels
07-2W6804,2015-07-14,2015-06-22,2015-08-03,TRUESDELL CORP. OF WI, INC. DBA TRUESDELL CORP. MIDWEST,(602)437-1711,$488,488.00,07-LA-5,110,134-Var,DECK METH,SPALL REPR,APPROACH SLAB
06-0G9004,2015-07-02,2015-05-26,2015-10-08,A. TEICHERT & SON INC. DBA TEICHERT CONSTRUCTION,(559)813-3025,$9,968,937.40,06-Mad-41-11.7/13.4,Construct passing lanes.
06-0N1804,2015-07-02,2015-06-08,2015-07-29,SECURITY PAVING COMPANY, INC.,(818)362-9200,$2,056,277.00,06-Kin-198-R8.8/R10.6,INSTALL MEDIAN BARRIER
05-0T5404,2015-07-01,2015-05-26,2015-07-21,GRANITE ROCK COMPANY,(408)574-1400,$4,535,533.00,05-SCr-129-9.5/10.0,Curve realignment
04-4S2204,2015-07-01,2015-05-26,2015-08-05,GHILOTTI CONSTRUCTION CO. INC.,(707)585-1221,$1,704,874.00,04-Mrn-1-11.0,Construct soldier pile/tie back retaining wall.
03-1A8434,2015-06-30,2015-05-11,2015-09-09,DON GARCIA EXCAVATING & PAVING, INC.,(530)577-0558,$7,980,629.00,03-ED-89-13.8/18,Storm Water Quality Improvements
07-276004,2015-06-30,2015-05-26,2015-09-01,GRANITE CONSTRUCTION COMPANY - PALMDALE OFFICE,(661)726-4447,$1,776,260.40,07-Ven-101-14.1/21.1, GSRDs and Treatment BMPs in Ventura County Trash TMDL
04-297624,2015-06-25,2015-05-04,2015-09-30,DESILVA GATES CONSTRUCTION,(925)829-9220,$34,721,242.16,04-Ala-84-22.9/25.7,EXPRESSWAY WIDENING - SEGMENT 2 SOU TH WIDEN AND UPGRADE EXISTING SR 84 FROM TWO TO FOUR LANES
04-2641A4,2015-06-25,2015-06-01,2015-07-31,BORTOLUSSI & WATKIN, INC.,(415)453-4675,$553,044.00,04-Nap,Sol-12-0.0/3.3, 0.0/R2.6,Highway planting, irrigation, and Plant Establishment.
06-462214,2015-06-25,2015-05-18,2015-07-28,MYERS AND SONS CONSTRUCTION, LP,(916)283-9950,$3,047,590.00,06-Kin-198-R15.4/R16.0,Deck Replacement
06-0J5304,2015-06-24,2015-05-11,2015-09-23,LEES PAVING, INC.,(559)651-1300,$2,868,657.30,06-Tul-190-20.9/21.2,INTERSECTION IMPROVEMENT
11-2M7804,2015-06-24,2015-05-26,2015-07-22,GRANITE CONSTRUCTION COMPANY,(760)444-1028,$4,606,605.00,11-Imp-8-R28.0/R40.9,Remove AC surface, pave with HMA, and place asphalt rubber seal coat
02-0E3604,2015-06-24,2015-05-26,2015-07-28,RANDY HILL CONSTRUCTION, INC,(530)892-1918,$5,431,708.18,02-Teh-5-10.5,REHABILITATE AND RECONSTRUCT SAFETY ROADSIDE REST AREAS
07-2W7404,2015-06-24,2015-05-26,2015-08-31,J. MCLOUGHLIN ENGINEERING CO., INC.,(909)944-1037,$959,784.58,07-LA-110-VARIOUS,JT SEAL,METH DECK,SPALL REPR,APP SL
06-0M2604,2015-06-23,2015-05-18,2015-07-21,GRANITE CONSTRUCTION COMPANY,(661)399-3361,$1,813,686.80,06-Ker-58-R99.2/R99.8,Bridge replacement
11-282304,2015-06-23,2015-05-18,2015-07-21,HAZARD CONSTRUCTION COMPANY,(858)587-3600,$822,710.25,11-SD-5-31.7,SLOPE STABILIZATION
04-1G8304,2015-06-18,2015-05-18,2015-07-28,CORAL CONSTRUCTION COMPANY,(503)682-2252,$3,120,263.00,04-SM-280-R0.3/M27.1,UPGRADE TO STANDARD THE EXISTING METAL BEAM GUARD RAIL CONNECTIONS
11-2M7404,2015-06-18,2015-05-18,2015-07-21,MANHOLE ADJUSTING INC,(323)558-8000,$3,074,091.00,11-Imp-111-23.9/40.5,PLACE ASPHALT RUBBER SEAL COAT
10-3A7504,2015-06-18,2015-05-18,2015-07-17,A. TEICHERT & SON INC. DBA TEICHERT CONSTRUCTION,(209)983-2300,$4,276,000.00,10-SJ-4-0.0/4.3, 4.4/5.4, 6.9/8.3,Repair failed areas and HMA resurfacing.
07-2W7304,2015-06-18,2015-05-26,2015-07-29,AUTOBAHN CONSTRUCTION INC.,(714)769-7025,$918,186.22,07-LA-110-VARIOUS,JT SEAL,METH DECK,SPALL REPR
10-0X3904,2015-06-17,2015-05-11,2015-07-17,GEORGE REED, INC.,(209)523-0734,$4,162,898.00,10-Cal-4-R0.0/R21.1,RHMA Overlay
07-2W7004,2015-06-17,2015-05-26,2015-07-10,PETERSON-CHASE GENERAL ENGINEERING CONSTRUCTION, INC.,(949)252-0441,$986,198.65,07-LA-1,10,405-VARIOUS,JT SEAL,METH DECK,SPALL REPR,EPOXY
04-1G8504,2015-06-17,2015-05-18,2015-07-13,DREAMBUILDER CONSTRUCTION CORP,(714)646-3697,$901,061.00,04-SM,Sol-92/780-varies,INSTALL OR MODIFY METAL BEAM GUARD RAILS.
10-1C0004,2015-06-17,2015-05-04,2015-07-20,HIGHWAY SPECIALTY CO. INC.,(530)949-5681,$698,676.70,10-Mer,SJ,Sta-4, 5, 59, 99, 108, 120, 152-Various,Sign panel and lighting rehabilitation
01-0A5204,2015-06-17,2015-05-11,2015-07-10,R. BROWN CONSTRUCTION COMPANY, INC.,(530)629-3702,$2,558,796.25,01-Hum-299-R21.1/R21.5,CURVE IMPROVEMENT
04-2G4104,2015-06-16,2015-05-26,2015-07-15,FBD VANGUARD CONSTRUCTION,(925)245-1300,$656,090.00,04-Ala-680-R20.0/R20.3,REPLACE METAL GUARDRAIL WITH CONCRETE BARRIER
10-0X6104,2015-06-16,2015-05-11,2015-07-20,GOLDEN STATE BRIDGE, INC.,(925)372-8000,$1,860,888.20,10-Mer-5-21.4,Rehabilitate Bridge Deck
01-0B4004,2015-06-16,2015-05-11,2015-07-10,MERCER FRASER COMPANY,(707)443-6371,$1,545,385.00,01-Hum-101-R15.0 , 29.4,RECONSTRUCT ROADWAY & DRAINAGE
11-288814,2015-06-11,2015-03-30,2015-07-31,FLATIRON WEST, INC.,(760)916-9100,$11,952,886.00,11-SD-11, 125, 905-Var,Construct North Bound Connectors.
07-2W7504,2015-06-11,2015-05-18,2015-06-30,J. FRANCIS COMPANY,(951)776-9100,$666,955.00,07-LA-405, 710-1.6/15.8, 7.8/10.9,JT SEAL,METH DECK,PATCH SPALLS
01-0A6904,2015-06-10,2015-05-18,2015-07-06,APEX FENCE COMPANY INC,(530)365-3316,$682,400.00,01-Lak-20-1.1/3.9,MBGR Installation
10-0W5904,2015-06-10,2015-05-11,2015-06-25,CHESTER BROSS CONSTRUCTION COMPANY,(573)221-5958,$5,464,350.00,10-Ama-88-R54.7/R60.8,DIGOUT AND REPAIR LOCALIZED AREAS OF SEVERE FAILURE, APPLY HOT MIX ASPHALT OVERLAY, REPLACE DIKE AND RUMBLE STRIPS, UPGRADE GUARD RAILS, AND PLACE SHOULDER BACKING
02-4F6104,2015-06-09,2015-05-04,2015-07-06,J. F. SHEA CONSTRUCTION, INC.,(530)246-4292,$3,949,218.90,02-Sha,Sis-5-VAR,Remove Existing AC, Repair Unsound Concrete, Place Polyester Concrete Overlays, and Repair Joint Seals.
10-0Q2204,2015-06-09,2015-05-11,2015-07-17,GEORGE REED INC.,(209)523-0734,$6,577,707.00,10-Ama-88-46.9/R54.7,AC OVERLAY AND DIGOUTS
10-0X4204,2015-06-04,2015-05-11,2015-06-25,GEORGE REED, INC.,(209)523-0734,$1,070,474.50,10-Tuo-49 -R8.8/12.8,Repair and Rubberized Hot Mix Asphalt Overlay
06-0E3404,2015-06-04,2015-05-04,2015-08-12,STL LANDSCAPE, INC.,(323)581-8200,$680,000.00,06-Ker-99-21.7/24.7,Freeway maintenance access
05-0S2504,2015-06-04,2015-05-04,2015-06-17,A. M. CONCRETE, INC.,(818)362-8300,$1,944,815.00,05-SB-101-13.2/27.1,ROADSIDE SAFETY IMPROVEMENTS
02-4E8124,2015-06-03,2015-05-11,2015-06-30,TULLIS, INC.,(530)241-5105,$2,857,646.00,02-But,Las,Plu,Sha-5, 36, 70,299-VAR,Widen, pave and lighting at chain control locations
06-0Q8804,2015-06-03,2015-05-11,2015-06-23,TRUESDELL CORPORATION OF CALIFORNIA, INC.,(602)437-1711,$583,583.00,06-Fre,Ker,Kin,Mad,Tul-5, 33, 41, 99-varies,TREAT BRIDGE DECKS, REPLACE SEAL, JOINTS AND PAINT.
10-0K1404,2015-06-03,2015-05-04,2015-07-28,A. TEICHERT & SON, INC. DBA TEICHERT CONSTRUCTION,(530)406-4200,$3,186,280.00,10-Sta-120-0.0/4.1,Pavement Preservation (CAPM)
03-3F1704,2015-06-03,2015-05-04,2015-07-16,MARTIN BROTHERS CONSTRUCTION,(916)381-0911,$2,630,850.00,03-Sac-5, 50, 51, 99-VAR,VEGETATION CONTROL AND PAVE GORE AREAS
04-4G6304,2015-06-03,2015-05-11,2015-07-20,TKO GENERAL ENGINEERING AND CONSTRUCTION INC,(650)465-8697,$283,549.44,04-SM-280-R25.5,Repair Washout With RSP
12-0H8904,2015-06-03,2015-05-11,2015-07-10,HIGHLAND CONSTRUCTION, INC.,(714)538-5156,$1,016,072.50,12-Ora-55, 5-9.6/12.0, 29.6/31.1,REPAIR EXISTING ROCK BLANKET, UPGRADE EXIST IRRIGATION, PROVIDE MTCE ACCESS & INSTALL GROUND COVER
02-4F2904,2015-06-02,2015-05-11,2015-06-25,AMERICAN CIVIL CONSTRUCTORS WEST COAST, INC.,(707)746-8028,$314,313.50,02-Sha-44-58.9/59.6,Curve Improvement
12-0N1304,2015-06-02,2015-05-11,2015-06-30,HIGH LIGHT ELECTRIC, INC.,(951)352-9646,$337,878.00,12-Ora-57-20.7/21.8,Safety Lighting and Midwest Guardrail
08-0P9804,2015-06-02,2015-05-11,2015-06-19,DREAMBUILDER CONSTRUCTION CORP,(714)646-3697,$451,061.00,08-SBd-18-101.9,SIGNALIZE INTERSECTION & CONSTRUCT LANDING PAD. PEDESTRIAN PUSH BUTTON & CROSSWALK EW DIRECTION
03-3F0804,2015-06-02,2015-05-04,2015-06-23,MYERS AND SONS CONSTRUCTION, LP,(916)283-9950,$4,994,672.00,03-Sac-51-0.2/1.1,Rehabilitate and Resurface Bridge Deck
04-4G5914,2015-06-02,2015-05-04,2015-06-24,RGW CONSTRUCTION, INC.,(925)606-2400,$774,752.00,04-SM-280-9.4,Repair pipe system and backfill sinkhole.
01-0B3504,2015-06-02,2015-05-11,2015-07-06,MERCER FRASER COMPANY,(707)443-6371,$995,796.00,01-Hum-36-30.2,Stabilize Roadway.
10-0W1104,2015-05-28,2015-04-27,2015-07-17,FBD VANGUARD CONSTRUCTION,(925)245-1300,$1,436,950.00,10-SJ-4-R16.2,HIGH FRICTION SURFACE TREATMENT, FLASHING BEACONS, UPGRADE GUARDRAIL
09-352404,2015-05-28,2015-04-27,2015-06-12,RE COM DEVELOPMENT COMPANY,(760)873-3301,$626,687.87,09-Mno-5710,REMODEL TRUCK SHED
06-430714,2015-05-28,2015-05-04,2015-06-25,WABO LANDSCAPE & CONSTRUCTION, INC.,(510)741-9226,$306,329.00,06-Tul-216-1.9/2.9,Landscaping
12-0M1204,2015-05-28,2015-04-27,2015-06-22,BMC ENTERPRISES,(626)813-1027,$865,945.78,12-Ora-5-28.3/28.6,CONVERT THE TWO-LANE ON-RAMP TO THREE-LANE ON-RAMP (ONE HOV & TWO GP LANES)
01-0E3704,2015-05-27,2015-05-11,2015-06-30,WYLATTI RESOURCE MANAGEMENT, INC.,(707)983-8135,$234,224.85,01-Men-1-85.3/104.7,REPAIR DRAINAGE SYSTEMS
10-0X1604,2015-05-27,2015-04-27,2015-06-25,GEORGE REED, INC.,(209)523-0700,$805,366.50,10-Ama-49-4.3, 4.6,INSTALL TRAFFIC SIGNALS
06-0S5904,2015-05-27,2015-05-04,2015-06-23,BUGLER CONSTRUCTION,(925)416-0700,$342,000.00,06-Tul-198-R14.6,Repair Bridge Girders
03-4F3304,2015-05-27,2015-05-04,2015-06-12,VINTAGE PAVING COMPANY, INC,(530)795-0132,$430,100.00,03-SJ,Sac-5-49.4/49.8, 0.0/18.3,INSTALL 10 PULLOUTS AND CONSTRUCT CROSSOVERS FOR THE CHP AND OTHER EMERGENCY VEHICLES
01-0E5904,2015-05-21,2015-04-27,2015-06-18,DARREN TAYLOR CONSTRUCTION,INC,(530)378-2211,$1,939,555.50,01-Men-20-R0.0/7.1,HMA OVERLAY
01-0E2104,2015-05-21,2015-04-27,2015-06-16,MYERS AND SONS CONSTRUCTION, LP,(916)283-9950,$702,877.70,01-Hum-36, 96, 101, 254-VAR,BRIDGE DECK REPAIR
12-0K4104,2015-05-21,2015-04-27,2015-06-30,ALL AMERICAN ASPHALT,(951)736-7600,$1,626,864.30,12-Ora-133-4.2/8.3,RHMA Type G Overlay
08-0N5404,2015-05-21,2015-04-27,2015-06-19,DESERT CONCEPTS CONSTRUCTION, INC.,(760)200-9007,$550,075.70,08-SBd-62-32.7,33.3/33.5,CONSTRUCT CONTINUOUS SIDEWALK, CURB RAMPS & UPGRADE EXISTING SIDEWALK FEATURES
08-0R8114,2015-05-21,2015-04-27,2015-06-16,PETERSON-CHASE GENERAL ENGINEERING CONSTRUCTION, INC.,(949)252-0441,$522,967.00,08-Riv-215-R15.0,Install A Weigh In Motion (WIM) System
01-0C6104,2015-05-20,2015-04-27,2015-06-19,STEWART ENGINEERING INC,(530)244-8464,$1,378,473.50,01-Men-1-40.2,Clean & Paint Bridge
06-0Q4404,2015-05-20,2015-04-27,2015-06-18,EMMETTS EXCAVATION, INC.,(559)299-1256,$619,984.00,06-Tul-137-R15.4/R15.7,REMOVE REPLACE ASPHALT CONCRETE PAVEMENT AND REPAIR FAILED AREAS
01-378144,2015-05-20,2015-04-27,2015-06-25,GRANITE CONSTRUCTION COMPANY,(707)467-4100,$753,860.00,01-Men-128-Var,Culvert Rehabilitation
08-0R9604,2015-05-20,2015-04-27,2015-06-17,MGP CONSTRUCTION,(909)982-2364,$1,261,274.38,08-SBd-5724,RECONSTRUCT WASHRACK SYSTEM
06-0S8204,2015-05-20,2015-04-27,2015-06-30,PETERSON-CHASE GENERAL ENGINEERING CONSTRUCTION, INC.,(949)252-0441,$414,099.10,06-Fre-41-R25.4,Replace MBGR with concrete guardrail
07-2W8304,2015-05-20,2015-04-27,2015-06-18,INTERMOUNTAIN SLURRY SEAL, INC.,(775)358-1355,$2,721,721.00,07-LA-2-26.4/82.3,MAINLINE SEAL COAT
01-0E2904,2015-05-19,2015-04-27,2015-06-19,MERCER FRASER COMPANY,(707)443-6371,$2,630,030.50,01-Hum-101-R10.2/R11.4, R22.5/25.5,HMA OVERLAY
03-4F3904,2015-05-19,2015-04-27,2015-06-05,WESTERN STRUCTURES,(951)352-4300,$629,552.51,03-ED,Sac,Yol-49, 50, 80-VAR,HIGH FRICTION SURFACE TREATMENT
08-1F0004,2015-05-19,2015-04-27,2015-06-10,C&W CONSTRUCTION SPECIALTIES, INC.,(805)642-0204,$224,103.15,08-Riv-62-R6.9-9.2,INSTALL MIDWEST GUARDRAIL SYSTEM
11-2M7504,2015-05-19,2015-04-27,2015-06-22,HAZARD CONSTRUCTION COMPANY,(858)587-3600,$2,048,951.00,11-SD-163-0.6/4.0,COLD PLANE AND PAVE WITH RUBBERIZED HOT MIX ASPHALT
07-1W5104,2015-05-19,2015-04-27,2015-06-17,FLEMING ENVIRONMENTAL INC.,(714)871-2800,$762,291.00,07-LA-5718,Install Pre-Wash
10-0W9804,2015-05-19,2015-04-27,2015-06-23,TIM PAXINS PACIFIC EXCAVATION, INC,(916)686-2800,$204,428.72,10-Sta-108-37.6,INSTALL IN ROADWAY WARNING LIGHTS (IRWL) AND OVERHEAD CANTILEVER FLASHING BEACONS
08-0N6804,2015-05-19,2015-04-27,2015-06-17,ODONNELL CONSTRUCTION, INC.,(909)394-4510,$673,409.40,08-SBd-71-R1.6/R1.8,WIDEN THE OFF-RAMP FROM THE OUTSIDE SHOULDER
01-0B2404,2015-05-19,2015-04-27,2015-06-16,TRUESDELL CORPORATION OF CALIFORNIA, INC.,(602)437-1711,$884,884.00,01-Hum-VAR-VAR,REHAB BRIDGE DECK
04-1G5404,2015-05-14,2015-04-20,2015-06-15,NORCAL GENERAL CONSTRUCTION CORPORATION,(408)886-0335,$284,232.00,04-SM-82-17.1,Construct signalized intersection.
04-3E7704,2015-05-14,2015-04-20,2015-06-09,ETIC,(925)602-4710,$599,519.46,04-SCl-17, 85, 87, 101, 130, 237-VAR,TREAT BRIDGE DECKS WITH METHACRYLATE AND REPLACE JOINT SEALS
07-183124,2015-05-14,2015-04-20,2015-05-29,MARTINEZ LANDSCAPE CO., INC.,(818)364-9188,$1,490,000.10,07-LA-710-9.8/18.4,LANDSCAPE
04-1J8304,2015-05-14,2015-04-20,2015-06-09,FBD VANGUARD CONSTRUCTION,(925)245-1300,$1,022,775.00,04-Ala-680-R12.4/R15.9,REPLACE CONCRETE PAVEMENT
10-0W1404,2015-05-14,2015-03-30,2015-06-24,BAY CITIES PAVING & GRADING, INC.,(925)687-6666,$2,704,318.00,04,10-SCl, Mer-152-R35.0/R35.2,R0.0/R2.4,CONSTRUCT MEDIAN BARRIER
06-0S7804,2015-05-14,2015-04-20,2015-06-12,TELFER HIGHWAY TECHNOLOGIES,(916)383-1756,$3,668,766.00,06-Fre-269-0.5/8.6, 10.0/24.8,COLD PLANE AC PAVEMENT AT FAILED REPAIR AREAS ,CAP WITH AN RHMA TYPE G (BWC) OVERLAY
08-1C1104,2015-05-14,2015-04-20,2015-06-12,ALL AMERICAN ASPHALT,(951)736-7600,$1,534,559.90,08-Riv-371-56/61.9,72.9/77.2,In Aguanga & Anza from JCT. Rte 79 to Rte 74 (POR), RAC Overlay
06-0S3004,2015-05-13,2015-04-20,2015-06-09,GRIFFITH COMPANY,(661)392-6600,$2,165,344.00,06-Ker-33,119-19.6/27.0; 20.2/27.3,BWC Type G Overlay
06-0S2604,2015-05-13,2015-04-20,2015-06-09,PAPICH CONSTRUCTION COMPANY, INC.,(805)473-3016,$3,670,077.77,06-Kin-41-17.1/R39.9,Cold plane failed areas and place RHMA on existing pavement.
11-2T0414,2015-05-13,2015-04-20,2015-06-22,CLEAN CUT LANDSCAPE,(559)322-2041,$1,137,004.95,11-SD-805-26.8/27.3,HWY PLANTING & LONG TERM PLANT ESTABLISHMENT FOR 2T040
08-1E2904,2015-05-13,2015-04-20,2015-06-05,CHRISP COMPANY,(510)656-2840,$231,075.00,08-SBd-210-10.3/21.4,MODIFY HOV LANE
11-2M7704,2015-05-13,2015-04-20,2015-06-23,MANHOLE ADJSUTING INC,(323)558-8000,$2,499,154.50,11-Imp-115-R8.5/21.2,Apply asphalt rubber chip seal and slurry seal
10-0Y8504,2015-05-13,2015-04-20,2015-06-12,MYERS AND SONS CONSTRUCTION, LP,(916)283-9950,$573,188.95,10-Mer,SJ,Sta-5,33,59,99-Var,Treat bridge decks and replace joint seals.
04-3E3904,2015-05-13,2015-04-20,2015-06-09,GRANITE ROCK COMPANY,(408)574-1400,$2,684,050.00,04-CC-4-0.0/4.9,Cold plane asphalt concrete pavement and overlay with RHMA.
10-0W8004,2015-05-13,2015-04-20,2015-06-12,CCFG CONSTRUCTION,(209)743-4911,$348,101.00,10-Tuo-120-27.4,Soil nail wall.
04-1J1504,2015-05-12,2015-04-20,2015-06-09,ARGONAUT CONSTRUCTORS,(707)542-4862,$2,298,615.10,04-Son-121-0.0/R7.3,PLACE RUBBERIZED HOT MIX ASPHALT
03-4F2704,2015-05-12,2015-04-20,2015-06-02,STUDEBAKER BROWN ELECTRIC, INC,(916)678-4660,$183,694.50,03-Gle,Sac-16, 32, 50, 80, 160-VAR,Install and/or modify signals and signs to reduce collisions.
04-1J7604,2015-05-12,2015-04-20,2015-06-17,CE GREEN INC,(916)365-4925,$419,600.00,04-Sol-80-39.8,Build materials storage bins with canopy.
04-3E2304,2015-05-12,2015-04-20,2015-06-09,GRANITE ROCK COMPANY,(408)574-1400,$599,847.00,04-Ala-13-9.0/10.0,Replace asphalt concrete surfacing.
07-4T7304,2015-05-12,2015-04-20,2015-06-03,HIGHLAND CONSTRUCTION, INC.,(714)538-5156,$710,867.00,07-LA-405-41.7,RE-ALIGN SW & INSTL CONCRTE BARRIER
04-4H8404,2015-05-12,2015-04-20,2015-06-09,PETERSON-CHASE GENERAL ENGINEERING CONSTRUCTION, INC.,(949)252-0441,$693,753.46,04-CC-4,24,80,242,580-VAR,TREAT BRIDGE DECKS WITH METHACRYLATE RESIN AND REPLACE JOINT SEALS
06-0P9804,2015-05-12,2015-04-20,2015-06-03,CAL VALLEY CONSTRUCTION,(559)274-0300,$208,511.50,06-Fre-168-R6.9/R7.1,concrete barrier installation
08-0Q5004,2015-05-12,2015-04-20,2015-06-08,PAVEMENT COATINGS CO,(714)826-3011,$1,581,295.90,08-SBd,Riv-62-66.0/91.0,PLACE SEAL COAT
08-1E4104,2015-05-06,2015-03-30,2015-05-29,ODONNELL CONSTRUCTION, INC.,(909)394-4510,$1,083,048.90,08-SBd-15, 210, 330-Various,Methacrylate Bridge Deck, Replace Joint Seals and Replace MBGR
10-1E0104,2015-04-30,2015-03-30,2015-05-15,GEORGE REED INC.,(209)523-0734,$3,848,731.50,10-Cal-12, 26-9.9/18.2, 3.1/14.0,Repair failed areas and rubberized HMA resurfacing.
10-0V9004,2015-04-29,2015-03-30,2015-06-23,CHESTER BROSS CONSTRUCTION COMPANY,(573)221-5958,$3,888,888.00,10-Ama-88-15.0/32.3,Cold Plane and Overlay
04-2J2804,2015-04-28,2015-03-30,2015-05-29,BAY CITIES PAVING & GRADING, INC.,(925)687-6666,$3,662,456.40,04-Sol-780-0.5/7.4,RUBBERIZED HOT MIX ASPHALT CONCRETE SURFACING
01-262064,2015-04-28,2015-03-16,2015-06-30,BORTOLUSSI & WATKIN, INC.,(415)453-4675,$4,275,232.00,01-Men-101-48,Willits Mitigation
04-2J2004,2015-04-23,2015-03-30,2015-05-29,BAY CITIES PAVING & GRADING, INC.,(925)687-6666,$3,468,196.95,04-SCl-152-30.4/35.2,Cold plane AC pavement and place rubberized hot mix asphalt.
03-0G2104,2015-04-23,2015-03-23,2015-05-13,A. TEICHERT & SON, INC DBA TEICHERT CONSTRUCTION,(209)983-2300,$1,152,423.00,03-Sac-99-15.5/18.1,RHMA-O HB (OGFC) Overlay
08-1C7604,2015-04-23,2015-03-23,2015-05-20,MATICH CORPORATION,(909)382-7400,$4,042,000.00,08-SBd-18-R17.7/31.9,38.5/39.8 and 44.3/48.1,MILL AND OVERLAY EXISTING PAVEMENT
03-0G1504,2015-04-23,2015-03-23,2015-05-20,A. TEICHERT & SON INC. DBA TEICHERT CONSTRUCTION,(209)983-2300,$3,998,277.00,03-Nev-49-0.0/9.6, 11.1/R14.4,RHMA-O (OGFC) Overlay
05-1F8504,2015-04-23,2015-03-16,2015-05-14,GRANITE ROCK COMPANY,(408)574-1400,$2,689,970.00,05-SBt-25-38.2/44.2,Cold in-place recycling, HMA-SP (Type A) recosntruct MBGR
05-1G3404,2015-04-23,2015-03-23,2015-06-08,TELFER HIGHWAY TECHNOLOGIES,(916)383-1756,$4,528,777.00,05-SLO-101-R23.9/32.3,AC Overlay (Bonded Wearing Course)
06-0S2404,2015-04-23,2015-03-30,2015-05-27,VSS INTERNATIONAL, INC.,(916)373-1500,$1,049,135.00,06-Fre-33-R63.0/69.1, 72.8/R83.0,PAE Chip Seal
08-1E3204,2015-04-23,2015-03-30,2015-05-14,SMART TECH GROUP INC,(949)800-6040,$156,206.00,08-SBd-15-41.4,MODIFY CURB RAMPS TO ADA COMPLIANCE
08-1F5304,2015-04-23,2015-03-30,2015-05-19,SULLY-MILLER CONTRACTING COMPANY,(714)578-9600,$2,367,000.00,08-SBd-15-70.1/75.3,Place overlay and fog seal shoulders
08-1C4204,2015-04-22,2015-03-30,2015-05-12,TRUESDELL CORPORATION OF CALIFORNIA, INC.,(602)437-1711,$393,393.00,08-Riv-15, 71, 91-Var,Bridge rehabilitation and pavement marker replacement.
02-4G7304,2015-04-22,2015-03-23,2015-05-21,MYERS AND SONS CONSTRUCTION, LP,(916)283-9950,$1,690,326.40,02-Sha-VAR-VAR,Bridge Maintenance
06-0S2104,2015-04-22,2015-03-23,2015-05-19,GRANITE CONSTRUCTION COMPANY,(559)441-5768,$821,552.00,06-Kin-269-1.1/5.6,Resurface existing pavement with RHMA (bonded wearing course).
06-0T1904,2015-04-22,2015-03-30,2015-05-19,GRANITE CONSTRUCTION COMPANY,(559)441-5700,$2,719,842.00,06-Fre-145-13.2/20.5,COLD-IN-PLACE RECYCLING WITH HMA OVERLAY
07-2W7104,2015-04-22,2015-03-23,2015-05-15,AUTOBAHN CONSTRUCTION INC.,(714)769-7025,$1,093,991.55,07-Ven-1,33,101-Var,METH DECK, SPALL REPAIR
06-0P6504,2015-04-22,2015-03-30,2015-05-22,ESLICK CONSTRUCTION, INC.,(559)593-8630,$337,814.47,06-Tul-201-5.8/23.3,Replace culverts and end treatments
04-1J2604,2015-04-22,2015-03-30,2015-05-29,GRANITE CONSTRUCTION COMPANY,(831)750-0673,$2,333,649.50,04-SCl-237-R4.0/6.9,COLD PLANE ASPHALT CONCRETE PAVEMENT AND PLACE RHMA (GAP GRADED)
10-1E0204,2015-04-22,2015-03-30,2015-05-15,GEORGE REED, INC.,(209)523-0734,$1,871,203.20,10-Mpa-49-18.5/27.0,Repair failed areas and resurface with rubberized HMA.
06-0S2904,2015-04-21,2015-03-23,2015-05-19,GRIFFITH COMPANY,(661)392-6640,$2,507,765.00,06-Ker-43-9.2/16.1,Cold in-place recycling and overlay with HMA (Type A).
10-0X5404,2015-04-21,2015-03-30,2015-06-09,APEX FENCE COMPANY INC,(530)365-3316,$1,348,639.00,10-SJ-5-41.7/45.9,Install median barrier.
08-1C0504,2015-04-21,2015-03-30,2015-05-15,ALL AMERICAN ASPHALT,(951)736-7600,$1,443,266.90,08-Riv-79-R33.9/40.3,REHABILITATE MAINLINE PAVEMENT AND SHOULDERS
08-1E4304,2015-04-21,2015-03-23,2015-05-14,WESTERN STRUCTURES,(951)352-4300,$935,210.27,08-SBd,Riv-10,15,60,83,215-VARIOUS,METHACRYLATE DECKS AND REPLACE JOINT SEALS
02-4E6004,2015-04-21,2015-03-23,2015-05-13,TIMBERWORKS,(530)926-4093,$738,577.78,02-Tri-3-30.8/31.1,Install Sidewalks
04-2J7104,2015-04-21,2015-03-30,2015-05-20,NORTHWEST PAVING,(530)246-4388,$1,654,724.00,04-SM,SCl-35-0.0/21.0,Resurface roadway with sand cover (Seal).
05-0T2704,2015-04-21,2015-03-30,2015-05-18,GRANITE ROCK COMPANY,(408)574-1400,$660,692.50,05-Mon-68-19.0/19.3,INSTALL TRAFFIC SIGNAL
01-0C9404,2015-04-16,2015-03-23,2015-05-20,AMERICAN PAVEMENT SYSTEMS, INC.,(209)522-2277,$779,798.00,01-Hum-96-3.7/11.6,AR Chip Seal
08-1C3504,2015-04-16,2015-03-23,2015-05-14,ALL AMERICAN ASPHALT,(951)736-7600,$893,239.60,08-Riv-74-32.3/36.5,MILL AND AC OVERLAY
03-4M4604,2015-04-16,2015-03-23,2015-05-19,DREAMBUILDER CONSTRUCTION CORP.,(714)646-3697,$447,661.00,03-Sie-89-15.8/28.1,CULVERT REHABILITATION
02-4F3904,2015-04-16,2015-03-16,2015-06-03,HAT CREEK CONSTRUCTION & MATERIALS, INC.,(530)335-5501,$989,898.00,02-Plu-147-7.5/8.9,Roadway Rehabilitation
07-2W7804,2015-04-16,2015-03-23,2015-05-14,STOUDENMIRE CORPORATION,(805)461-1454,$462,462.00,07-LA-2, 27, 101, 170, 210, 405, 710-Var,METH DECK, JOINT SEALS, DEPARTURE SLAB
05-1F6104,2015-04-16,2015-03-23,2015-05-19,PETERSON-CHASE GENERAL ENGINEERING CONSTRUCTION, INC.,(949)252-0441,$792,678.50,05-SB-101-R14.2,Install Concrete Pavers
04-1J2104,2015-04-16,2015-03-23,2015-05-12,OGRADY PAVING INC.,(650)966-1926,$622,886.00,04-SM-84-17.0/21.5,Replace asphalt concrete surfacing.
06-0Q7204,2015-04-16,2015-03-23,2015-05-15,TEICHERT CONSTRUCTION,(559)813-3100,$2,580,592.00,06-Ker-33-27.0/34.2,COLD IN-PLACE RECYCLING AND HMA OVERLAY
05-492804,2015-04-16,2015-02-23,2015-05-27,PAPICH CONSTRUCTION CO. INC,(805)473-3016,$19,724,469.30,05-SLO-1-64.0/R66.9,REALIGN ROADWAY PIEDRAS BLANCAS REALIGNMENT
05-1F9404,2015-04-15,2015-03-23,2015-05-12,CALPORTLAND CONSTRUCTION,(805)345-3581,$1,356,664.20,05-SLO-227-7.1/R10.3,RHMA overlay with some dig outs
04-4H8204,2015-04-15,2015-03-23,2015-05-12,AMERICAN CIVIL CONSTRUCTORS WEST COAST, INC.,(707)746-8028,$370,363.50,04-Mrn-1,101,580-Var,Treat bridge deck with methacrylate and replace joint seals.
07-1W7004,2015-04-15,2015-03-23,2015-05-07,PAVEMENT COATINGS CO,(714)826-3011,$513,226.80,07-LA-66-0.0/3.0,Slurry seal and digouts
12-0N3504,2015-04-15,2015-03-23,2015-06-25,PRO TECH ENGINEERING CORP,(714)446-0800,$479,845.00,12-Ora-5,91,405-Var,Lighting and sign repairs
04-3E3404,2015-04-15,2015-03-23,2015-05-12,VINTAGE PAVING COMPANY, INC,(530)795-0132,$887,298.00,04-Mrn-1-17.0/19.0,PLACE RUBBERIZED HOT MIX ASPHALT (GAP GRADED)
08-1E2204,2015-04-15,2015-03-23,2015-05-12,SULLY-MILLER CONTRACTING COMPANY,(714)578-9600,$5,464,670.00,08-SBd-127-3.0/10.5 37.7/41.47,COLD IN PLACE (CIR) RECYCLE ASPHALT PAVEMENT
07-2W9204,2015-04-14,2015-03-23,2015-05-07,ODONNELL CONSTRUCTION, INC.,(909)394-4510,$815,802.00,07-LA-10-29.4, 29.5,Deck Spalls, Joint Seals and Closure Pour
04-3E7904,2015-04-14,2015-03-16,2015-07-31,CERTIFIED COATINGS COMPANY,(707)639-4414,$5,164,268.00,04-SM-101-23.7,SPOT BLAST CLEAN AND PAINT ALL STEEL ELEMENTS
03-0G1304,2015-04-14,2015-03-23,2015-05-13,GEORGE REED, INC.,(209)523-0700,$1,686,215.40,03-ED-49-0.0/9.6,Bonded wearing course overlay, replace HMA dike and replace Midwest Guardrail Systems
04-4H8104,2015-04-14,2015-03-23,2015-05-07,STOUDENMIRE CORPORATION,(805)461-1454,$679,859.56,04-Nap,Sol-29,121,37,80,780-Var,Treat bridge decks with methacrylate and replace joint seals.
01-0E5104,2015-04-14,2015-03-23,2015-05-12,MERCER-FRASER COMPANY,(707)443-6371,$2,073,743.00,01-Tri-299-0.0/8.0,OVERLAY
05-1F3604,2015-04-14,2015-03-23,2015-06-09,BUGLER CONSTRUCTION,(925)416-0700,$694,531.00,05-SCr-1-31.6, 36.3,Superstructure Rehabilitation, Install Tiltometer
06-0S2504,2015-04-14,2015-03-23,2015-05-15,AMERICAN PAVEMENT SYSTEMS, INC.,(209)522-2277,$4,833,343.00,06-Ker-166, 178-9.0/24.5, 27.2/57.1,Asphalt Rubber CHIP Seal
05-1F8904,2015-04-14,2015-03-09,2015-05-13,RGW CONSTRUCTION, INC.,(925)606-2400,$3,878,561.00,05-Mon-1-28.0/28.4,Construct Viaduct
06-0T1804,2015-04-09,2015-03-09,2015-05-06,GRANITE CONSTRUCTION COMPANY,(559)441-5700,$2,689,417.00,06-Tul-99-41.3/52.0,RHMA-O (BWC)
04-1J8404,2015-04-09,2015-03-16,2015-05-07,GHILOTTI CONSTRUCTION CO. INC.,(707)585-1221,$799,020.00,04-Mrn-1-13.1/15.0,Asphalt concrete resurfacing.
06-0S1704,2015-04-09,2015-03-16,2015-05-06,GRANITE CONSTRUCTION COMPANY,(559)441-5700,$1,521,912.50,06-Fre-33-11.1/14.8,Cold in Place Work Recycle and Overlay
07-3P7004,2015-04-09,2015-03-16,2015-05-15,MGP CONSTRUCTION,(909)982-2364,$929,990.00,07-LA-L5724,1116 MARIC MAINTENANCE STATION
09-361504,2015-04-09,2015-03-16,2015-04-30,QUALCON CONTRACTORS, INC.,(775)782-2006,$3,466,720.00,09-Iny-190-73.3/96.8,Hot mix asphalt thin blanket overlay.
03-0G1804,2015-04-09,2015-03-16,2015-05-01,SIERRA NEVADA CONSTRUCTION,(775)355-0420,$629,007.00,03-Yol-128-7.8/10.0,Slurry Seal
01-0E4404,2015-04-09,2015-03-16,2015-05-06,TIDEWATER CONTRACTORS, INC.,(541)469-5341,$1,322,954.50,01-DN-101-35.7/39.9,HMA OVERLAY
08-1F5404,2015-04-09,2015-03-16,2015-05-01,MATICH CORPORATION,(909)382-7400,$1,394,000.00,08-SBd-138-R15.2/17.1, 19.2/R24.1,APPLY PAVEMENT PRESERVATION TREATMENT, AC OVERLAY
08-1F0304,2015-04-08,2015-03-16,2015-04-30,PETERSON-CHASE GENERAL ENGINEERING CONSTRUCTION, INC.,(949)252-0441,$377,653.00,08-SBd-215-11.8/12.8,INSTALL MGS
07-4T7404,2015-04-08,2015-03-16,2015-05-21,ODONNELL CONSTRUCTION, INC.,(909)394-4510,$271,834.60,07-LA-134-R10.8/R11.5,RECONSTRUCT MEDIAN CONCRETE BARRIER
03-0G1604,2015-04-08,2015-03-16,2015-05-19,A. TEICHERT & SONS, INC. DBA TEICHERT CONSTRUCTION,(916)645-4800,$1,862,283.00,03-Yol-16-31.7/R40.6,RAC OVERLAY
08-1F4704,2015-04-08,2015-03-16,2015-05-14,GRIFFITH COMPANY,(661)392-6640,$3,532,186.00,08-SBd-178-0.0/7.5,COLD IN PLACE (CIR) RECYCLE
01-0E7404,2015-04-08,2015-03-16,2015-05-01,CENTRAL STRIPING SERVICE, INC.,(916)635-5175,$243,922.00,01-Men,Hum-101-VAR,REPLACE STRIPING & PAVEMENT MARKERS
02-3E7714,2015-04-08,2015-02-17,2015-06-25,MERCER-FRASER COMPANY,(707)443-6371,$9,375,280.40,02-Tri-299-36.9/53.5,.121 PAVEMENT REHAB
04-0G2104,2015-04-07,2015-03-02,2015-04-24,GORDON N. BALL, INC.,(925)838-5675,$1,047,677.00,04-Ala-13-9.9/10.1,Upgrade shoulder/sidewalk and construct a retaining wall.
01-493704,2015-04-07,2015-03-02,2015-06-09,MERCER-FRASER COMPANY,(707)443-6371,$1,892,180.20,01-Hum-96-11.0/R13.2,Shoulder Widening/Light Guard Crosswalk
08-1F5804,2015-04-07,2015-03-16,2015-04-29,AMERICAN PAVEMENT SYSTEMS, INC.,(209)522-2277,$889,271.00,08-SBd-18-103.9/115.9,SCRUB SEAL & INSTALL RUMBLE STRIPS
03-0G1404,2015-04-07,2015-03-16,2015-05-01,NORTHWEST PAVING,(530)246-4388,$1,398,408.00,03-Yol-16-0.0/18.9,POLYMER ASPHALTIC EMULSION CHIP SEAL
02-0H3004,2015-04-07,2015-03-16,2015-05-01,J.F. SHEA CONSTRUCTION, INC.,(530)246-4292,$2,726,940.00,02-Sha-44-R14.4/34.0,Place HMA, replace AC surfacing
06-0S1804,2015-04-07,2015-03-16,2015-05-06,AGEE CONSTRUCTION CORPORATION,(559)299-3290,$484,282.00,06-Fre-63-0.0/2.0,Cold plane and overlay.
07-4T7004,2015-04-07,2015-03-16,2015-05-15,CARLSONS CONSTRUCTION INC.,(530)842-6063,$453,226.52,07-LA-10-41.0,Construct soil nail and erosion control.
05-1F3904,2015-04-07,2015-03-16,2015-05-04,PETERSON-CHASE GENERAL ENGINEERING CONSTRUCTION,INC.,(949)252-0441,$330,128.82,05-SB-101,154-1.6/22.5,Methacrylate Deck Seals
12-0N3104,2015-04-02,2015-03-02,2015-04-28,WESTERN STRUCTURES,(951)352-4300,$763,157.44,12-Ora-5, 73-12.5, 11.3/27.3,Methacrylate and Polyester Concrete Overlay
05-1C9404,2015-04-02,2015-03-09,2015-04-21,PETERSON-CHASE GENERAL ENGINEERING CONSTRUCTION, INC.,(949)252-0441,$816,025.68,05-Mon-1-11.7/43.1,Bridge maintenance - spot prep / full paint bridges, seal bridge deck.
05-1A3304,2015-04-02,2015-03-02,2015-04-28,GRANITE CONSTRUCTION COMPANY,(805)964-9951,$3,107,091.00,05-SB,SLO-166-55.1/70.6,Seal Coat
02-3E7304,2015-04-02,2015-02-17,2015-05-15,J. F. SHEA CONSTRUCTION, INC.,(530)246-4200,$4,651,059.00,02-Sis-5-68.3,Replace Bridge
11-405504,2015-04-02,2015-01-20,2015-05-07,HAZARD CONSTRUCTION COMPANY,(858)587-3600,$5,244,784.50,11-SD-8-6.9/8.2,UPGRADE EXISTING MEDIAN MBGR TO CONCRETE BARRIER
07-4T7504,2015-04-02,2015-03-09,2015-04-27,GRANITE CONSTRUCTION COMPANY,(805)964-9951,$594,247.00,07-Ven-1-27.1/28.5,MILL AND FILL RHMA FROM EP TO EP
09-356004,2015-04-01,2015-03-09,2015-04-24,GRANITE CONSTRUCTION COMPANY,(661)387-7747,$854,783.00,09-Mno-6-0.8/2.4,SHOULDER WIDENING AND CONSTRUCT SHOULDER RUMBLE STRIP
03-3F7904,2015-04-01,2015-03-09,2015-05-06,TIM PAXINS PACIFIC EXCAVATION, INC,(916)686-2800,$272,349.00,03-Sut-20-16.5,Replace signal poles for eastbound and westbound traffic, upgrade ADA facilities.
05-1A7204,2015-04-01,2015-02-17,2015-05-12,GRANITE CONSTRUCTION COMPANY,(805)964-9951,$9,422,361.00,05-SB-101-21.0/27.1,PAVEMENT PRESERVATION (CAP M)
07-1W2404,2015-04-01,2015-03-02,2015-06-30,CL COATINGS, INC. DBA CL INDUSTRIAL COATINGS, INC.,(562)305-1520,$16,601,000.00,07-LA-5-20.3,Paint Bridge
05-1F7804,2015-04-01,2015-03-02,2015-04-24,TELFER HIGHWAY TECHNOLOGIES,(916)383-1756,$3,125,575.18,05-SLO-101-32.3/35.6,Overlay Cuesta Grade with bounded wearing course.
04-1SS524,2015-03-26,2015-02-17,2015-04-29,BAY CITIES PAVING & GRADING, INC.,(925)687-6666,$1,237,421.45,04-SCl-280-R2.6,Construct geosynthetic reinforced embankment.
07-2W6904,2015-03-26,2015-02-23,2015-04-23,AUTOBAHN CONSTRUCTION INC.,(714)769-7025,$722,341.10,07-LA-5-Various,DECK METH, JOINT SEALS, SPALL REPAIR, CLOSURE
10-0W6004,2015-03-26,2015-02-23,2015-04-28,CHESTER BROSS CONSTRUCTION COMPANY,(573)221-5958,$3,753,400.00,10-Ama-88-R66.6/71.7,PAVEMENT REPAIR
10-0W6104,2015-03-25,2015-02-17,2015-04-24,GEORGE REED INC,(209)523-0730,$7,224,957.00,10-Alp-88-0.0/7.5,Pavement Repair
03-4F1604,2015-03-25,2015-03-02,2015-05-05,ALL PHASE EXCAVATING AND CONSTRUCTION INC.,(530)604-6011,$247,695.00,03-But-99-R34.2/R36.3,INSTALL STREET LIGHTING
03-0G0904,2015-03-25,2015-02-23,2015-04-15,BALDWIN CONTRACTING CO., INC. DBA KNIFE RIVER CONSTRUCTION,(530)891-6555,$2,122,196.00,03-Yub-49-0.0/6.4,Bonded Wearing Course-Gap Graded Overlay and Replace Guardrailing
02-299714,2015-03-25,2015-02-17,2015-05-27,ROCKY MOUNTAIN CONSTRUCTION,(541)882-8370,$2,400,400.40,02-Mod-299-39.3/40.5,Widen Shoulders, Improve Drainage, and Install Radar Feedback Signs
06-0S2004,2015-03-25,2015-02-23,2015-04-17,AGEE CONSTRUCTION CORPORATION,(559)299-3290,$763,984.00,06-Tul-245-12.0/16.0, 21.0/26.0,Resurface existing pavement with hot mix asphalt (Type A).
05-1C9304,2015-03-25,2015-02-23,2015-04-15,PETERSON-CHASE GENERAL ENGINEERING CONSTRUCTION, INC.,(949)252-0441,$859,535.84,05-Mon-101-R21.9/87.0,Bridge Maintenance-Seal Bridge Decks with methacrylate or polyester
01-0E3904,2015-03-24,2015-03-02,2015-04-13,DARREN TAYLOR CONSTRUCTION,INC,(530)378-2211,$937,802.00,01-Hum,Men-101, 162-VAR,Replace AC Surfacing
09-359904,2015-03-24,2015-03-02,2015-04-20,PAVE-TECH INC.,(760)727-8700,$4,086,177.00,09-Iny,Mno-127, 120-34.5/41.8, 43.0/45.1,Cold in-place recycled pavement and HMA overlay.
07-1W6404,2015-03-24,2015-03-02,2015-04-10,J. MCLOUGHLIN ENGINEERING CO., INC.,(909)944-1037,$844,431.24,07-LA-5,14,126,138-Var,DECK METH, JOINT SEALS, SPALL REPAIR
07-4T6104,2015-03-24,2015-03-02,2015-05-11,PETERSON-CHASE GENERAL ENGINEERING CONSTRUCTION, INC.,(949)252-0441,$268,936.60,07-LA-101-16.7,Modify existing signal and lighting
06-0Q2104,2015-03-19,2015-02-17,2015-06-03,WABO LANDSCAPE & CONSTRUCTION, INC.,(510)741-9226,$3,939,896.00,06-Fre-180-R58.5/R62.4,Freeway landscaping
03-4M6704,2015-03-19,2015-02-23,2015-04-03,MIDSTATE BARRIER, INC.,(209)944-9565,$319,251.00,03-Sac-104-9.5/16.9,Replace Guardrailing
R08-1C840,2015-03-19,2015-02-23,2015-04-07,YBANAG REALTY & DEVELOPMENT CORPORATION DBA DYBANAG CONSTRUCTION,(951)657-7144,$1,295,835.00,08-Riv,SBd-91/10-17.4/20.9,11.5,BRIDGE PREVENTIVE MAINTENANCE
06-0S2204,2015-03-19,2015-02-23,2015-04-21,INTERMOUNTAIN SLURRY SEAL, INC.,(775)358-1355,$1,652,652.00,06-Fre,Mad,Tul-145, 198, 201-Var,Seal Coat
03-4E5404,2015-03-19,2015-02-17,2015-04-07,DREAMBUILDER CONSTRUCTION CORP.,(714)646-3697,$704,061.00,03-Sie-49-48.3/49.2,Replace Culverts
07-2W8704,2015-03-19,2015-02-23,2015-04-23,ALL AMERICAN ASPHALT,(951)736-7600,$3,499,221.00,07-Ven-33-12.3/57.5,Overlay, digouts.
10-0Y9104,2015-03-18,2015-02-23,2015-05-21,TEICHERT CONSTRUCTION,(559)813-3025,$2,119,070.00,10-Mer-59-23.3/33.7,0.1 RHMA OVERLAY
07-3P7204,2015-03-18,2015-02-23,2015-04-15,AUTOBAHN CONSTRUCTION INC.,(714)769-7025,$273,111.50,07-LA-60-0.5,Repair AC and PCC pavement
08-1F5004,2015-03-18,2015-02-23,2015-04-10,PAVE-TECH INC.,(760)727-8700,$2,417,169.00,08-Riv-111-6.0/18.4,Cold Plan 0.1 and Overlay RHMA-G
06-0P0604,2015-03-18,2015-02-17,2015-04-03,WESTERN STRUCTURES,(951)352-4300,$787,033.98,06-Fre,Tul-5, 33, 137, 216, 245, 269-VARIOUS,Treat bridge deck and replace joint seal.
06-0S2304,2015-03-18,2015-02-23,2015-04-10,NORTHWEST PAVING,(530)246-4388,$761,408.00,06-Mad,Mpa-41,49-40.9/45.7,0.0/4.9,1.3/9.3,PME CHIP SEAL (MED CHIP)
03-3F7004,2015-03-18,2015-02-23,2015-04-10,STEELHEAD CONSTRUCTORS, INC.,(530)226-6400,$426,777.00,03-Yub-49-6.1, 6.3,repair the embankment at postmile 6.1 and repair pavement settlement at postmile 6.3
06-0M0204,2015-03-17,2015-02-09,2015-05-15,AGEE CONSTRUCTION CORPORATION,(559)299-3290,$1,415,982.00,06-Fre-168-R36.0,Enhance Vista Point.
02-4G1404,2015-03-17,2015-02-23,2015-04-17,HAT CREEK CONSTRUCTION & MATERIALS, INC.,(530)335-5501,$2,656,656.00,02-Las-395-R24.7/36.4,Place HMA with replace AC surfacing
03-0G2604,2015-03-17,2015-02-23,2015-05-13,BALDWIN CONTRACTING COMPANY, INC. DBA KNIFE RIVER CONSTRUCT ION,(530)891-6555,$2,377,881.00,03-But-162-0.0/7.7,Cold In-Place Recycling and HMA Overlay
07-1W7204,2015-03-17,2015-02-23,2015-04-07,PETERSON-CHASE GENERAL ENGINEERING CONSTRUCTION, INC.,(949)252-0441,$632,275.10,07-LA-134-0.0/R6.1,SLABS/PCC PROFILE GRIND SLABS
03-3F3404,2015-03-17,2015-02-17,2015-06-17,FD THOMAS, INC,(541)664-3010,$8,984,000.00,03-Sac-160-L7.0,Paint entire bridge
04-4G6104,2015-03-17,2015-02-17,2015-04-10,FBD VANGUARD CONSTRUCTION,(925)245-1300,$275,899.60,04-SCl-87-9.0/9.2,Replace K-Rail barrier and metal beam guard rail with concrete barrier.
01-262054,2015-03-12,2015-02-02,2015-04-15,HANFORD APPLIED RESTORATION & CONSERVATION,(707)996-6633,$12,631,386.78,01-Men-101-45.0/50.8,Wetland and Riparian Mitigation and Monitoring
02-4G1204,2015-03-12,2015-02-09,2015-04-01,TULLIS, INC.,(530)241-5105,$3,992,330.00,02-Tri-3, 36-L0.0/L0.1, 27.1/R41.2,Cold-in-Place Recycle with HMA Overlay
10-1C9304,2015-03-12,2015-02-17,2015-04-30,GEORGE REED, INC.,(209)523-0700,$3,415,823.00,10-Ama-124-R2.5/R10.3,Cold-in-Place Recycling and Hot Mix Asphalt Overlay
01-0B3704,2015-03-12,2015-02-17,2015-04-15,ROBERT J. FRANK CONSTRUCTION,(530)222-1408,$204,620.00,01-Hum-36-44.4,Slide repair
04-1637N4,2015-03-12,2015-02-19,2015-03-19,POWER ENGINEERING CONSTRUCTION COMPANY,(510)337-3800,$2,417,000.30,04-SF-101-9.0,RESTORATION AND REHABILITATION
06-0T1704,2015-03-11,2015-02-17,2015-04-03,GRIFFITH COMPANY,(661)392-6600,$1,538,549.00,06-Ker-58-28.2/31.5,Cold in-place recycling, cold plane and HMA (Type A) overlay.
10-0W5604,2015-03-11,2015-01-05,2015-04-10,GEORGE REED, INC.,(209)523-0734,$6,140,762.00,10-SJ-12-5.0/11.0,Digout and repair localized areas of severe failure, apply rubberized hot mix asphalt overlay
03-4F7004,2015-03-11,2015-02-02,2015-04-03,BALDWIN CONTRACTING CO., INC. DBA KNIFE RIVER CONSTRUCTION,(530)891-6555,$1,023,374.03,03-Pla-80-31.8,Increase on and offramp radius and lane width of Illinoistown Overcrossing to allow for STAA truck turn movements
03-3F1804,2015-03-11,2015-02-17,2015-04-03,VINTAGE PAVING COMPANY, INC,(530)795-0132,$1,811,631.05,03-Sac-5, 99-VAR,Vegetation Control and Gore Area Paving
03-0F2704,2015-03-10,2015-02-17,2015-05-15,ROBERT J. FRANK CONSTRUCTION,(530)222-1408,$393,246.00,03-Yub-65-2.2,Excavation & place rock slope protection; place erosion control products.
03-4F3604,2015-03-10,2015-02-17,2015-03-27,AMERICAN CIVIL CONSTRUCTORS,(707)746-8028,$473,415.00,03-Yol,ED,Sac-5, 50, 51-VAR,Installation of High Friction Surface Treatment at 3 Locations
02-0H0004,2015-03-10,2015-02-17,2015-04-02,TULLIS, INC.,(530)241-5105,$1,998,721.00,02-Sha-5, 273-R16.2/R19.0, 19.7/20.0,Cold Plane and Place HMA
03-0G1704,2015-03-05,2015-02-09,2015-03-25,VSS INTERNATIONAL, INC.,(916)373-1500,$815,375.00,03-Pla-28-0.8/5.9, 10.5/11.1,Micro-Surfacing
08-0Q4704,2015-03-05,2015-01-12,2015-04-15,SULLY-MILLER CONTRACTING COMPANY,(714)578-9600,$4,387,000.00,08-SBd-15-R29.6/42.5, 45.3/70.1,Place Overlay and Fog Seal Shoulders
07-2W8404,2015-03-05,2015-02-09,2015-03-19,VELARDE CONCRETE CONSTRUCTION, INC.,(818)898-2300,$491,115.00,07-LA-57,101-Var,Line ditch, repair and replace culverts
05-1F8704,2015-03-05,2015-02-09,2015-04-03,FERREIRA CONSTRUCTION CO,, INC.,(909)606-5900,$391,581.00,05-SLO-46-R4.3/R7.6,Replace Fences.
08-0L5904,2015-03-05,2015-01-05,2015-04-06,RED MOUNTAIN, LLC CONSTRUCTION-DIVISION,(805)439-1042,$455,441.60,08-Riv-10-R135.10,REPLACE SEPTIC SYSTEM
04-013524,2015-03-04,2014-07-14,2015-03-19,CALIFORNIA ENGINEERING CONTRACTORS INC/SILVERADO CONTRACTORS INC, JV DIR #1000007939,(925)461-1500,$69,470,000.00,04-SF,Ala-80-8.6/8.9, 0.0/1.2,Dismantling of Existing East Span of SFOBB (Superstructures)
03-0G1904,2015-03-03,2015-02-09,2015-03-20,AMERICAN PAVEMENT SYSTEMS, INC.,(209)522-2277,$1,119,748.00,03-Sac-104-4.6/17.7,Hot Applied Chip Seal
02-4G3404,2015-02-26,2015-02-02,2015-04-20,ROCKY MOUNTAIN CONSTRUCTION, INC.,(541)882-8377,$2,025,525.02,02-Mod-299-14.7/20.0,Cold in-place recycle and place HMA
10-0Y9404,2015-02-26,2015-02-02,2015-05-01,GEORGE REED, INC.,(209)523-0734,$2,495,256.00,10-Ama-88-38.0/46.9,Rubberized hot mix asphalt overlay.
06-0S1904,2015-02-25,2015-02-02,2015-03-17,ODONNELL CONSTRUCTION, INC.,(909)394-4510,$210,690.00,06-Tul-198-R3.8/6.7,PCC SLAB REPLACEMENT
01-0B4104,2015-02-25,2015-01-20,2015-03-16,MERCER-FRASER COMPANY,(707)443-6371,$1,124,406.00,01-Hum-101-R40.9/R41.2,Reconstruct roadway and dewater
02-0H0104,2015-02-25,2015-02-02,2015-03-17,J.F. SHEA CONSTRUCTION, INC.,(530)246-4292,$1,286,115.00,02-Sis-89-0.0/7.0,Place HMA with replace AC surfacing
10-1C9004,2015-02-24,2015-02-02,2015-03-12,GEORGE REED, INC.,(209)523-0734,$1,465,344.00,10-Sta-132-41.0/51.0,Rubberized hot mix asphalt overlay.
08-1C9004,2015-02-24,2015-02-02,2015-03-19,PETERSON-CHASE GENERAL ENGINEERING CONSTRUCTION, INC.,(949)252-0441,$775,368.20,08-Riv,SBd-15, 60, 138 & 215-Varies,Bridge Rehab, and repair approach slab
04-259404,2015-02-18,2014-12-01,2015-03-17,GHILOTTI BROS., INC.,(415)454-7011,$11,125,777.00,04-Nap-29-25.5/28.4,Overlay, roadway widening and construct two-way left-turn lanes.
03-4M7904,2015-02-18,2015-01-20,2015-03-06,J.F. SHEA CONSTRUCTION, INC.,(530)246-4292,$1,015,075.00,03-But-99-24.5/30.2,PCC Profile Grinding
05-1F8804,2015-02-18,2015-01-26,2015-03-13,VSS INTERNATIONAL, INC.,(916)373-1500,$825,095.00,05-SCr-152-T0.3/R2.0,Slurry Seal
09-335004,2015-02-18,2015-01-12,2015-03-09,PAPICH CONSTRUCTION CO. INC.,(805)473-3016,$5,799,999.00,09-Mno-395-52.3/R53.7,Slope stabilization, erosion control and plant establishment.
11-2M6404,2015-02-18,2015-01-20,2015-03-09,HAZARD CONSTRUCTION COMPANY,(858)587-3600,$619,967.50,11-SD-67-R5.8/R18.5,Cold plane and pave HMA
07-2W8604,2015-02-18,2015-01-20,2015-03-09,AUTOBAHN CONSTRUCTION INC.,(714)769-7025,$1,030,661.00,07-LA-71-1.4/R3.6,CPOL,RHMA & SOME DIGOUTS
07-2W8804,2015-02-12,2015-01-20,2015-04-07,CAL STRIPE, INC.,(909)884-7170,$421,421.00,07-LA,Ven-23,27,33,150-Var,REPLACE RECESSED MARKERS AND STRIPING.
04-1J5204,2015-02-12,2015-01-05,2015-03-18,GORDON N. BALL, INC.,(925)838-5675,$943,914.00,04-SM,Ala-84-R28.8/R29.3, R0.5,CONSTRUCT PUBLIC ACCESS
03-1F4204,2015-02-12,2015-01-05,2015-05-13,VIKING CONSTRUCTION COMPANY, INC.,(916)852-5530,$3,096,763.00,03-But-99-40.5/40.8,Shoulder widening on structure.
01-0B4604,2015-02-12,2015-01-05,2015-03-27,R. BROWN CONSTRUCTION COMPANY, INC.,(530)629-3702,$300,090.50,01-Hum-299-32.1,Stabilize roadway
05-0T5004,2015-02-11,2015-01-05,2015-03-27,RSB GROUP, INC.,(949)454-1999,$699,985.00,05-Mon,SLO,SB,SCr-1, 101, 154-Var,Vista Point Interpretive Displays
07-2W0604,2015-02-11,2015-01-20,2015-02-25,J. FRANCIS COMPANY,(951)776-9100,$987,284.00,07-LA-105,710-Var,DECK METH, DECK SPALL, JOINT SEAL
02-4G7204,2015-02-11,2015-01-12,2015-03-03,MYERS AND SONS CONSTRUCTION, LP,(916)283-9950,$1,747,156.20,02-Sis-5, 89-VAR,Bridge maintenance, polyester concrete overlay
07-2W6504,2015-02-05,2015-01-12,2015-03-06,WEST COAST STRUCTURES INC DBA WESTERN STRUCTURES,(951)352-4300,$1,117,000.00,07-LA-57, 60, 71-Var,Minor Paint, HMA Overlay and Joint Seal
03-4F1304,2015-02-05,2015-01-12,2015-03-02,WEST COAST STRUCTURES INC DBA WESTERN STRUCTURES,(951)352-4300,$2,076,611.25,03-Sac,But-5, 50, 51, 80, 99, 191-VAR,High Friction Surface Treatment
10-1C0304,2015-01-29,2015-01-05,2015-02-18,CCFG CONSTRUCTION,(209)743-4911,$203,375.90,10-Tuo-49, 108-var,Excavate embankment and modify traffic signals.
02-4E7904,2015-01-29,2015-01-05,2015-02-25,STATEWIDE TRAFFIC SAFETY AND SIGNS, INC.,(805)929-5070,$802,817.20,02-Sha-5-R10.7/R15.5,Replace overhead signs
09-359704,2015-01-29,2014-12-29,2015-02-24,CORAL CONSTRUCTION COMPANY,(503)682-2252,$344,443.00,09-Mno-395-46.2, 96.0,Construct concrete barrier and guardrail.
10-0Y9204,2015-01-29,2015-01-05,2015-02-18,CHESTER BROSS CONSTRUCTION COMPANY,(573)221-5958,$3,398,110.00,10-Alp-88-7.5/25.3,Hot mix asphalt overlay
05-0C6404,2015-01-29,2014-11-03,2015-02-27,PAPICH CONSTRUCTION CO. INC.,(805)473-3016,$14,885,001.00,05-SB-246-12.3/R16.7,Passing lanes and Operational Improvements.
11-410304,2015-01-29,2015-01-05,2015-02-18,V A P CONSTRUCTION INC,(714)253-3270,$505,575.00,11-SD-8-37.9,Cold plane and overlay Descanso Maintenance Station
07-2656U4,2015-01-28,2014-09-22,2015-02-25,GRANITE CONSTRUCTION COMPANY,(661)726-4447,$8,751,487.00,07-LA-138-69.9/75.0,WIDEN ROADWAY AND PAVE SHOULDERS
06-0N5604,2015-01-28,2014-12-29,2015-02-23,GRANITE CONSTRUCTION COMPANY,(661)387-7747,$537,041.00,06-Ker-58-R94.5,Widen intersection
02-4G9604,2015-01-28,2014-12-29,2015-02-11,DIG IT CONSTRUCTION, INC.,(530)258-3306,$825,490.00,02-Plu-89-16.4/20.0,Place HMA with replace AC surfacing.
07-4Y6604,2015-01-22,2014-12-29,2015-02-09,TORO ENTERPRISES, INC.,(805)483-4515,$839,171.10,07-Ven-1-R14.2/R15.5,MAINLINE RHMA-G OVERLAY AND RAMP SLURRY SEAL.
03-4M7204,2015-01-22,2014-12-29,2015-02-04,C.C. MYERS, INC.,(916)635-9370,$1,155,555.00,03-Sac,Yol-50-VAR,Rehabilitate Bridge Decks
02-4G9904,2015-01-22,2014-12-29,2015-02-09,HAT CREEK CONSTRUCTION & MATERIALS, INC.,(530)335-5501,$1,049,940.00,02-Las-395-133.0/139.0,0.10 HMA Thin Blanket Overlay w/Replace AC Surfacing
12-0M1104,2015-01-22,2014-11-24,2015-02-10,ALL AMERICAN ASPHALT,(951)736-7600,$1,545,163.80,12-Ora-73-23.6/25.2,WIDEN NB ROUTE 73 AND PLACE OVERLAY, WIDEN NB MACARTHUR BLVD ON-RAMP
03-4F6704,2015-01-22,2014-12-22,2015-02-10,AMERICA PACIFIC CONSTRUCTION,(559)577-9999,$174,426.00,03-Nev-49-3.4,Add Right Turn Pocket
08-0R7404,2015-01-22,2014-12-08,2015-02-04,JABRE CONTRACTING INC.,(310)720-0277,$80,946.00,08-Riv-371-PM 56.3/60.2,Install Centerline and Edge-line Rumble Strip
03-4M8604,2015-01-22,2014-12-15,2015-02-11,ARROW FENCING,(707)485-1128,$218,505.00,03-Nev-80-15.0/16.4,Replace damaged fence
08-1E3304,2015-01-22,2014-12-15,2015-02-18,ALL AMERICAN ASPHALT,(951)736-7600,$1,413,970.00,08-Riv-74-71.8/80.3,REHAB PAVEMENT
10-0Y8904,2015-01-21,2014-12-22,2015-02-18,GEORGE REED, INC.,(209)523-0734,$3,092,642.00,10-Alp-89-10.0/21.4,21.4/24.0,RUBBERIZED HOT MIX ASPHALT OVERLAY
04-4A0904,2015-01-21,2014-11-10,2015-02-23,GORDON N. BALL, INC.,(925)838-5675,$6,000,382.00,04-Nap-29-47.0/47.2 ,Bridge Replacement
04-1SS574,2015-01-21,2014-12-01,2015-03-09,GORDON N. BALL, INC.,(925)838-5675,$169,451.00,04-Sol-80-19.6,Repair Drainage System
03-0F6904,2015-01-21,2014-11-17,2015-05-18,VIKING CONSTRUCTION COMPANY, INC.,(916)852-5530,$2,632,505.00,03-But-70-24.0/24.5,Replace bridge
05-1F8404,2015-01-15,2014-12-08,2015-02-23,PETERSON-CHASE GENERAL ENGINEERING CONSTRUCTION, INC.,(949)252-0441,$1,017,225.40,05-SB-101-10.0/10.6,Slab Replacement
C04-4H221,2015-01-15,2014-11-03,2015-02-18,O.C. JONES & SONS, INC.,(510)526-3424,$13,561,608.00,04-Ala-80, 580-2.8, R41.2/47.0,AC Resurfacing
05-1C8004,2015-01-14,2014-12-08,2015-01-30,SOUZA CONSTRUCTION INC,(805)546-8288,$277,166.00,05-SLO-101-37.7,Realign Route 58 SB Off-Ramp.
07-2W7704,2015-01-08,2014-12-01,2015-01-30,WEST COAST STRUCTURES, INC DBA WESTERN STRUCTURES,(951)352-4300,$373,937.00,07-LA-118, 210, 405-Various,DECK METH, DECK SPALL, JOINT SEAL
11-261604,2015-01-08,2014-11-17,2015-01-28,LB CIVIL CONSTRUCTION,(858)481-5222,$5,293,502.00,11-SD-5-4.0/R22.3,Roadside safety improvements
04-3E4204,2015-01-07,2014-12-01,2015-01-27,G. BORTOLOTTO & COMPANY, INC.,(650)595-2591,$1,076,805.39,04-SCl-35-14.1/17.1,Rubberized asphalt concrete overlay.
04-4H8504,2015-01-07,2014-12-01,2015-02-06,MYERS AND SONS CONSTRUCTION, LP,(916)283-9950,$538,672.00,04-SM-280,380-Var,Treat bridge decks with methacrylate and replace joint seals.
06-0P0704,2015-01-07,2014-12-01,2015-01-28,GRANITE CONSTRUCTION COMPANY,(661)387-7747,$282,444.00,06-Ker-58-R85.1,Broome Road Intersection improvements
12-0N2404,2014-12-18,2014-11-17,2015-01-14,V A P CONSTRUCTION INC,(714)253-3270,$285,575.00,12-Ora-39-1.1/ 8.2,Repair Curb, Gutter and Sidewalk
08-0N56U4,2014-12-18,2014-10-27,2015-01-22,OHL USA, INC.,(949)242-4432,$20,616,067.80,08-SBd-40-R94.7/R99.7,
11-407004,2014-12-18,2014-10-27,2015-02-04,COFFMAN SPECIALTIES, INC,(858)536-3100,$34,885,000.00,11-SD-8-R61.2/R77.8,Pavement rehabilitation
08-0P8204,2014-12-18,2014-11-17,2015-01-26,JABRE CONTRACTING INC.,(310)720-0277,$371,975.00,08-Riv-215-R9.2/R15.4,Line and/or Invert Pave 3 Culverts
03-1A8454,2014-12-17,2014-11-03,2015-01-14,A. TEICHERT & SON, INC. DBA TEICHERT CONSTRUCTION,(530)406-4200,$3,996,219.77,03-ED-89-24.9/27.2,Storm water quality improvements and overlay
02-4G9804,2014-12-17,2014-11-17,2015-01-09,ROCKY MOUNTAIN CONSTRUCTION, INC.,(541)882-8377,$1,344,134.34,02-Sis-97-17.0/24.0,Cold Plane and Place HMA
03-3F6604,2014-12-17,2014-11-03,2015-01-21,BAY CITIES PAVING & GRADING INC,(925)687-6666,$2,088,769.43,03-Sac-160-L1.4/L4.2,Place Rubberized Hot Mix Asphalt, roadway excavation and replace guardrail.
11-241514,2014-12-11,2014-10-20,2015-01-28,HAZARD CONSTRUCTION COMPANY,(858)587-3600,$8,084,176.00,11-SD-163-8.4/9.4,Interchange Reconfiguration for Traffic Handling Improvements
10-0W4304,2014-12-10,2014-10-06,2014-12-24,BAY CITIES PAVING & GRADING, INC,(925)687-6666,$1,419,817.62,10-SJ-99-4.5/23.0,Install ramp metering system.
06-325514,2014-12-10,2014-11-03,2015-01-02,WABO LANDSCAPE & CONSTRUCTION, INC.,(510)741-9226,$667,615.00,06-Kin-198-R8.9/R10.1,Landscaping and plant establishment
09-358604,2014-12-09,2014-10-27,2015-01-13,PAVE-TECH INC.,(760)729-7592,$2,942,124.00,09-Iny-190-24.5/40.0,Hot mix asphalt thin blanket overlay.
08-0M2004,2014-12-04,2014-10-20,2015-01-28,GRANITE CONSTRUCTION COMPANY,(408)327-7013,$5,796,835.00,08-Riv-371-67.7/72.9,CONSTRUCT SHOULDER
03-4F1204,2014-12-03,2014-11-03,2014-12-24,AMERICAN CIVIL CONSTRUCTORS WEST COAST, INC.,(707)746-8028,$424,415.00,03-Sac-5-12.9,Treat bridge deck; apply High Friction Surface Treatment & striping.
03-2F9904,2014-12-03,2014-11-03,2014-12-31,O.C. JONES & SONS, INC.,(510)526-3424,$3,872,002.10,03-Sac-160-R0.0/12.0,Rubberized Hot Mix Asphalt (Gap Graded) Overlay
06-0H6304,2014-11-20,2014-09-22,2015-01-05,M C M CONSTRUCTION, INC.,(916)334-1221,$3,261,418.00,06-Tul-198-R12.0,Construct pedestrian overcrossing.
07-2055A4,2014-11-20,2014-09-29,2015-01-09,PETERSON-CHASE GENERAL ENGINEERING CONSTRUCTION, INC.,(949)252-0441,$3,106,852.10,07-LA-2-14.1/14.8,LANDSCAPE AND CONST SOUNDWALLS
07-259024,2014-11-20,2014-09-22,2014-12-31,ORTIZ ENTERPRISES, INC.,(949)753-1414,$15,680,893.39,07-LA-5,10,91,110,134-Var,
09-358804,2014-11-20,2014-10-27,2015-01-09,QUALCON CONTRACTORS INC.,(775)782-2006,$2,219,566.00,09-Mno-395-R44.6/50.7,Thin blanket hot mix asphalt overlay.
06-0Q2704,2014-11-20,2014-09-22,2014-12-11,SECURITY PAVING COMPANY, INC.,(818)362-9200,$14,038,336.50,06-Fre-5-48.8/53.0,Pavement Rehabilitation (2R)
07-4Y6404,2014-11-20,2014-10-27,2014-12-31,INTERMOUNTAIN SLURRY SEAL, INC.,(775)355-5237,$487,487.00,07-Ven-150-32.0/34.4,SLURRY SEAL AND DIGOUTS
01-0C4604,2014-11-19,2014-09-15,2014-12-09,MERCER-FRASER COMPANY,(707)443-6371,$4,740,700.00,01-Hum-299-R5.5/R11.0,CAPM
04-3G1204,2014-11-19,2014-10-13,2014-12-12,GRANITE CONSTRUCTION COMPANY,(707)467-4100,$1,099,963.50,04-Son-128-1.8,
11-282504,2014-11-19,2014-09-29,2014-12-16,WESTERN RIM CONSTRUCTORS, INC.,(760)489-4328,$4,366,997.46,11-SD-15, 94, 805-var,STORM WATER MITIGATION, CONSTRUCT BIOSWALES AND INFILTRATION TRENCHES, PHASE 2 OF 2.
02-3E4104,2014-11-19,2014-09-22,2014-12-22,STEVE MANNING CONSTRUCTION, INC.,(530)222-0810,$27,173,164.00,02-Sha-299-0.3/7.1,HIGHWAY REALIGNMENT
08-0Q7604,2014-11-19,2014-09-29,2014-12-19,J. MCLOUGHLIN ENGINEERING CO., INC.,(909)944-1037,$33,864,800.50,08-SBd-10-0.0/30.9,Rehabilitation of Route 10
08-043514,2014-11-14,2014-09-08,2014-12-30,SKANSKA-TEICHERT A JOINT VENTURE,(951)684-5360,$126,510,018.00,08-SBd-58-R22.2/R31.1,
11-2T2514,2014-11-13,2014-10-20,2014-12-17,CLEAN CUT LANDSCAPE,(559)322-2041,$970,497.40,11-SD-805-4.4/5.5,LANDSCAPE MITIGATION
01-0C3504,2014-11-13,2014-10-13,2015-02-12,GHILOTTI BROS., INC.,(415)454-7011,$3,839,414.00,01-Lak-29-R34.4/R40.0,Cold plane AC, apply crack treatment and place rubberized HMA overlay.
04-3G1604,2014-11-13,2014-10-06,2014-12-12,RGW CONSTRUCTION, INC.,(925)606-2400,$3,606,859.35,04-CC-24-5.2/5.6,Repair Slope Slide By Tie Back Retaining Wall
04-0J5804,2014-11-13,2014-10-20,2014-12-15,PETERSON-CHASE GENERAL ENGINEERING CONSTRUCTION, INC.,(949)252-0441,$1,910,545.50,04-SCl-VAR-VAR,TREAT BRIDGE DECK WITH METHACRYLATE AND REPLACE JOINT SEALS.
02-4G9704,2014-11-13,2014-10-20,2014-12-08,AMERICAN PAVEMENT SYSTEMS, INC.,(209)522-2277,$1,826,340.40,02-Sis-3-6.9/23.0,Asphalt rubber seal coat with replace asphalt concrete surfacing
10-0A8304,2014-11-13,2014-10-06,2014-12-08,DREAMBUILDER,(714)646-3697,$1,263,061.00,10-SJ-88-6.1/8.9,Upgrade approarch bridge rail and extend culverts.
07-3X9304,2014-11-13,2014-10-13,2014-12-29,DBX, INC.,(951)296-9909,$8,569,369.50,07-LA,Ven-101,110,118,170,405-Var,Repair and Replace Stolen Electrical Wiring
12-0M7204,2014-11-06,2014-09-22,2014-12-03,PETERSON-CHASE GENERAL ENGINEERING CONSTRUCTION, INC.,(949)252-0441,$2,968,062.22,12-Ora-91,405-VAR,Seismic retrofit 4 bridges
06-432604,2014-11-06,2014-09-29,2015-02-27,MYERS AND SONS, CONSTRUCTION LP,,$3,850,672.00,06-Fre-33-10.9/11.1,Bridge replacement.
07-287304,2014-11-06,2014-09-29,2014-12-29,YAKAR,(909)599-1612,$1,433,960.91,07-LA-210-R39.8/R42.2,STORM WATER SOURCE CONTROL
01-362914,2014-11-06,2014-10-06,2014-12-12,DESILVA GATES CONSTRUCTION LP,(925)829-9220,$8,265,267.00,01-Men-101-9.6/10.7,11.2/20.9,Rubberized HMA Overlay
03-3F8904,2014-11-05,2014-10-13,2014-12-08,AMERICA PACIFIC CONSTRUCTION,(559)577-9999,$237,102.00,03-ED-50-17.0/17.3,Install drainage pipe culverts & inlets; HMA paving and striping.
05-1A7004,2014-11-05,2014-09-15,2014-12-24,JOHN MADONNA CONSTRUCTION CO., INC.,(805)543-7751,$9,534,641.80,05-SLO-1-73.7/74.0,Construct Soldier Pile Wall with Ground Anchors
06-0P1404,2014-11-05,2014-09-15,2014-12-03,GRIFFITH/COFFMAN JOINT VENTURE,(661)392-6640,$40,344,304.00,06-Ker-5-62.5/73.1,RRPC NB & SB LN2 W/CRCP, RPLC LN1 PCC PANELS, DIAMOND GRIND ENTIRE LN#1
04-2G8704,2014-11-05,2014-10-13,2015-01-16,DREAMBUILDER,(714)646-3697,$333,061.00,04-Mrn-1-R1.4,Construct soil nail wall, additional shoulder, and guardrail.
01-4154U4,2014-11-05,2014-09-29,2014-12-24,MERCER-FRASER COMPANY,(707)443-6371,$8,387,138.00,01-Men-101-64.7/69.3, 74.8/81.4,CAPM
12-0L92U4,2014-10-30,2014-10-06,2015-02-24,DREAMBUILDER,(714)646-3697,$1,899,061.00,12-Ora-5-0.0/29.6,UPGRADE PEDESTRIAN FACILITIES W/IN CT R/W TO CURRENT ADA STANDARDS
07-274804,2014-10-30,2014-09-22,2014-12-09,MCM CONSTRUCTION, INC.,(916)334-1221,$2,070,732.00,07-LA-18-0.2,REPLACE BRIDGE DECK AND RAIL
08-0Q7514,2014-10-30,2014-09-22,2014-12-04,CHUMO CONSTRUCTION INC.,(626)960-9502,$7,372,230.40,08-SBd,Riv-60-R0.0/R4.6, R3.0/R6.9,Replace concrete pavement slabs, cold plane and overlay existing shoulders and ramps with hot mix asphalt, upgrade guard rail, replace dikes
07-3X9204,2014-10-30,2014-10-06,2015-01-23,YAKAR,9095991612,$8,114,354.50,07-LA-5, 47, 101-Var,REPAIR & REPLACE STOLEN ELECTRICAL WIRING
11-2M4604,2014-10-30,2014-10-06,2014-11-21,PENHALL COMPANY,(510)357-8810,$2,271,040.00,11-Imp-86-R21.9/43.1,PCC Slab replacement and repair
05-1C8604,2014-10-30,2014-09-22,2014-11-20,GRANITE CONSTRUCTION COMPANY,(408)327-7013,$9,976,229.00,05-SCr-1-20.2 / 37.4,Overlay with RHMA-G
07-2838U4,2014-10-30,2014-10-06,2014-12-23,YAKAR,(909)599-1612,$889,310.48,07-LA-2,101,134,210-Var,VINE PLANTING TRANS ENHANCEMENT
06-0Q2504,2014-10-29,2014-09-15,2014-12-03,GRANITE CONSTRUCTION COMPANY,(559)441-5700,$4,544,846.00,06-Kin-198-R9.5/R14.7,Cold in-place recycling and HMA Overlay
06-0P1804,2014-10-29,2014-09-15,2014-12-03,GRANITE CONSTRUCTION COMPANY,(559)441-5700,$13,982,722.00,06-Kin-5-9.0/16.5,Cold plane and overlay the existing pavement.
02-4G4804,2014-10-29,2014-09-15,2014-11-24,RTA CONSTRUCTION, INC.,(530)223-1100,$1,722,381.50,02-Sha-299-18.4/18.7,Construct sidewalk
03-3E1104,2014-10-29,2014-10-06,2014-11-25,F.D. THOMAS, INC.,(541)664-3010,$1,487,000.00,03-Nev-80-28.0,Paint Structures
04-272044,2014-10-29,2014-09-22,2014-11-25,GRANITE ROCK COMPANY,(408)574-1400,$4,895,733.00,04-SCl-280-7.8/11.5,Rehabilitate existing pavement on mainline.
04-4C2004,2014-10-29,2014-09-22,2014-12-03,GRANITE ROCK COMPANY,(408)574-1400,$4,759,837.00,04-SCl-152-R9.9/21.9 ,Pavement Preservation (CAP M)
04-4A3424,2014-10-28,2014-09-29,2015-01-27,PETERSON-CHASE GENERAL ENGINEERING CONSTRUCTION, INC.,(949)252-0441,$951,154.80,04-Ala-24 , 580-Var,Replace Gore Signs with Overhead Signs.
10-0X3004,2014-10-28,2014-10-06,2014-11-17,TIM PAXINS PACIFIC EXCAVATION INC,(916)686-2800,$169,678.90,10-Mer,Sta-99, 108, 140-Var,Flashing Beacons
10-0C9004,2014-10-28,2014-10-06,2014-11-13,DREAMBUILDER,(714)646-3697,$525,861.00,10-Sta-108-31.2,Widen roadway and provide driveway access.
04-3G7604,2014-10-28,2014-09-15,2014-12-18,GHILOTTI CONSTRUCTION COMPANY, INC.,(707)585-1221,$585,148.00,04-Nap-128-20.2,Drainage and planting
08-1C3704,2014-10-28,2014-09-29,2014-12-30,SKANSKA USA CIVIL WEST CALIFORNIA DISTRICT INC.,(951)684-5360,$14,569,140.00,08-Riv-95-L0.0/36.2,HMA Overlay, Upgrade Curb Ramp, and upgrade Metal Beam Guard Railing
03-3F0004,2014-10-28,2014-09-29,2014-11-25,KNIFE RIVER CONSTRUCTION,(530)891-6555,$4,436,894.50,03-Yub-20-13.3/20.3,RHMA Overlay
12-0F96A4,2014-10-23,2014-09-02,2014-11-25,FLATIRON WEST, INC.,(760)916-9100,$49,439,932.62,12-Ora-5-3.0/3.7,
10-0X3204,2014-10-23,2014-09-29,2014-11-20,GEORGE REED, INC.,(209)523-0734,$529,715.00,10-Sta,Mer-108,165-33.1/36.1, 30.0/32.4,,Cold plane AC pavement and construct rumble strips.
07-287204,2014-10-23,2014-09-22,2014-11-21,MARTINEZ LANDSCAPE CO., INC.,(818)364-9188,$958,732.10,07-LA-134-1.6/2.7,STORM WATER SOURCE CONTROL
04-1SS224,2014-10-23,2014-09-29,2014-11-17,GHILOTTI CONSTRUCTION COMPANY, INC.,(707)585-1221,$1,033,575.00,04-Son-128-2.4, 2.6,
07-3X9104,2014-10-23,2014-09-22,2014-12-03,CROSSTOWN ELECTRICAL & DATA, INC.,(626)813-6693,$5,448,240.00,07-LA-10,90,110-various,REPAIR & REPLACE STOLEN ELECTRICAL WIRING
03-3F6504,2014-10-23,2014-09-22,2014-12-16,GRANITE CONSTRUCTION COMPANY,(775)358-8792,$3,966,966.00,03-Nev-89-1.2/8.7,Pavement overlay
01-488604,2014-10-22,2014-08-11,2015-01-14,GHILOTTI CONSTRUCTION COMPANY, INC.,(707)585-1221,$3,292,539.00,01-Lak-20, 29-8.2/8.6, 52.3/52.5,Improve Intersection
02-4E4304,2014-10-22,2014-09-15,2014-11-07,TULLIS, INC.,(530)241-5105,$5,190,953.00,02-Sha-44-R4.2/R14.5,Pavement Rebabilitation
03-3F6704,2014-10-22,2014-09-15,2014-12-03,MARTIN BROTHERS CONSTRUCTION,(916)381-0911,$5,918,358.50,03-ED-49-23.9/35.0,Pavement Overlay
06-0H6414,2014-10-22,2014-09-15,2015-01-22,MCM CONSTRUCTION, INC.,(916)334-1221,$2,998,316.00,06-Ker-178-R4.4,Reconstruct Pedestrian overcrossing
06-0P9704,2014-10-22,2014-09-22,2014-12-03,GRANITE CONSTRUCTION COMPANY,(559)441-5700,$1,699,924.00,06-Mad-152-R0.0/1.1,CONSTRUCT HIGH TENSION CABLE BARRIER AND RUMBLE STRIP
07-3X9404,2014-10-22,2014-09-22,2014-12-09,SELECT ELECTRIC,INC.,(619)460-6060,$3,910,264.00,07-LA-5,10,14,60,91, etc.-Var,Wire theft damage restoration
05-0T6404,2014-10-21,2014-09-15,2014-11-19,JOHN MADONNA CONSTRUCTION CO., INC.,(805)543-7751,$1,999,488.50,05-SBt-25-18.8/19.5,Curve correction
02-4F7404,2014-10-21,2014-09-29,2014-11-14,R. BROWN CONSTRUCTION COMPANY, INC.,(530)629-3702,$300,730.00,02-Tri-299-19.2/19.5,Construct Drapery
12-0J6404,2014-10-21,2014-09-29,2015-01-05,ODONNELL CONSTRUCTION, INC.,(909)394-4510,$950,295.00,12-Ora-55-7.6/9.9,The project proposes to control sediment transport for storm water concerns by the re-vegetation of exposed of slopes and application of pavement to the maximum extend practicable
11-406904,2014-10-21,2014-09-15,2014-11-25,DALEY CORPORATION,(619)390-3900,$9,099,685.68,11-SD-8-R25.9/R32.2,PAVEMENT REHABILITATION
06-0P1504,2014-10-21,2014-09-15,2014-11-12,SECURITY PAVING COMPANY, INC.,(818)362-9200,$5,195,219.00,06-Kin-198-0.0/7.4,Cold plane AC pavement, overlay with RHMA-G, and modify lighting.
06-0Q2404,2014-10-16,2014-09-22,2014-11-12,TEICHERT CONSTRUCTION,(559)813-3100,$1,747,374.00,06-Fre-41-R3.0/M6.1,Pavement Rehabilitation
11-275504,2014-10-16,2014-08-25,2014-12-23,HAZARD CONSTRUCTION COMPANY,(858)587-3600,$10,968,441.50,11-SD-67-R0.0/R5.9,Pavement Rehabilitation of Mainline Shoulders, and Ramp.
07-288504,2014-10-16,2014-09-15,2014-11-13,POWELL CONSTRUCTORS, INC.,(909)356-8880,$4,147,107.00,07-LA-405-10.5/12.6,REHABILITATE COMMERCIAL VEHICLE ENFORCEMENT FACILITY
07-2881U4,2014-10-16,2014-07-21,2015-02-06,FLATIRON WEST, INC.,(760)916-9100,$105,495,711.78,07-LA-210-R16.1/R25.8,PVMT AND ROADWAY REHABILITATION
07-3X8204,2014-10-16,2014-09-22,2014-11-25,CHUMO CONSTRUCTION INC.,(626)960-9502,$1,285,516.11,07-LA-39-21.7, 22.0,REPAIR SLOPE FAILURE
02-4G00U4,2014-10-16,2014-09-22,2014-11-17,TULLIS, INC.,(530)241-5105,$447,477.00,02-Sis-97-2.1/2.5,Widen Shoulders
06-0Q0104,2014-10-15,2014-09-22,2014-11-13,AMERICAN CIVIL CONSTRUCTORS WEST COAST, INC.,(707)746-8028,$1,793,000.00,06-Fre-41-R23.1,Bridge rehabilitation
02-4E90U4,2014-10-15,2014-09-15,2014-12-08,KNIFE RIVER CONSTRUCTION,(530)891-6555,$3,056,107.50,02-Teh-32-5.1/6.3,Curve improvement and truck lane
01-0B0804,2014-10-15,2014-09-15,2014-11-07,TIDEWATER CONTRACTORS, INC.,(541)469-5341,$3,329,448.00,01-DN-101-R4.4/9.4,HMA OVERLAY
03-4F3404,2014-10-15,2014-09-15,2015-01-14,GRANITE CONSTRUCTION,,$3,555,555.00,03-Pla,Nev-80-69.3/69.8, 0.0/R2.3,Replace AC ditch with PCC
06-0E6804,2014-10-15,2014-04-07,2014-11-17,ABHE & SVOBODA, INC.,(952)447-6025,$330,580.00,06-Mad-99-R1.0-28.2,Highway 99 Corridor-bridge enhancement.
07-2W5404,2014-10-15,2014-09-15,2014-12-22,GEMS ENVIRONMENTAL MANAGEMENT SERVICES, INC.,(925)671-6822,$1,563,005.66,07-Ker-5725,
05-0R8304,2014-10-15,2014-09-15,2014-12-15,DESERT CONCEPTS CONSTRUCTION, INC.,(760)200-9007,$997,556.35,05-SB,SLO-1, 101, 135-Var,Construct concrete curb ramps, sidewalk and HMA pavement.
07-275704,2014-10-09,2014-09-15,2014-11-05,CL INDUSTRIAL COATINGS INC,(562)305-1520,$3,249,890.00,07-LA-103-0.1,
11-0223U4,2014-10-09,2014-08-18,2014-12-18,FLATIRON WEST, INC.,(760)916-9100,$60,930,519.00,11-SD-5-R29.1/R30.5,REPLACE BRIDGE, RECONSTRUCT INTERCHANGE, SIGNAL INTERSECTION ADD AUX LANES AND BIKE FACILITY
06-0P8104,2014-10-08,2014-09-15,2014-11-21,DESERT CONCEPTS CONSTRUCTION, INC.,(760)200-9007,$1,644,162.75,06-Ker-178-100.6/102.7,Reconstruct median with raised curb median.
06-0Q5804,2014-10-08,2014-09-15,2014-10-29,ROADWAY ENGINEERING WORKS INC,(209)541-0920,$950,000.00,06-Ker-58, 99-Var,Wire Theft Restoration
04-4S0504,2014-10-08,2014-09-02,2014-11-05,RGW CONSTRUCTION, INC.,(925)606-2400,$1,854,455.38,04-SCl-09-4.2,Construct tieback wall.
03-3F0404,2014-10-08,2014-09-15,2014-12-12,ROADWAY ENGINEERING WORKS INC,(209)541-0920,$1,266,302.00,03-Sac-5-23.3,
04-3G4434,2014-10-08,2014-09-15,2014-10-31,GOLDEN STATE BRIDGE, INC.,(925)372-8000,$1,285,025.00,04-SF-80-5.8/7.8,Replace Grating shields, ladders, platforms, and greaselines on SFOBB West span.
05-0S0304,2014-10-08,2014-09-15,2014-11-04,DREAMBUILDER,(714)646-3697,$318,061.00,05-SB-1,101,192,246-Var,Construct curb ramps, sidewalks and modify signal and lighting.
03-4F0704,2014-09-24,2014-08-11,2014-10-31,DESILVA GATES CONSTRUCTION LP,(925)829-9220,$5,265,815.00,03-Sac-50-17.1,Widen structure, extend weave lane and add ramp metering.
08-0P2804,2014-09-24,2014-08-11,2014-11-13,POWELL CONSTRUCTORS, INC.,(909)356-8880,$1,010,500.50,08-Riv-60-1.6,SIGNALIZE & REALIGN LEFT-TURN LANES
10-0X3504,2014-09-24,2014-09-02,2014-10-08,LINEAR OPTIONS, INC.,(530)896-1800,$254,396.00,10-Ama,Tuo-16,88,120 -var,Construct rumble strips in existing AC pavement.
04-1SS044,2014-09-17,2014-08-11,2014-10-22,GHILOTTI CONSTRUCTION COMPANY, INC.,(707)585-1221,$1,479,264.00,04-Ala-580-R31.7/R31.9,Construct Soldier Pile wall, & repair Concrete pavement and shoulder.
02-4F6304,2014-09-17,2014-08-25,2014-10-06,ROBERT J. FRANK CONSTRUCTION, INC.,(530)222-1408,$224,570.00,02-Tri-3-R26.2,SLOPE REPAIR
04-2G3624,2014-09-17,2014-08-18,2014-10-09,BORTOLUSSI & WATKIN, INC.,(415)453-4675,$626,975.60,04-Ala-92-R5.1/R5.8,Replacement Highway Planting.
08-383504,2014-09-17,2014-08-11,2014-10-10,GRANITE CONSTRUCTION COMPANY,(760)732-0910,$2,026,265.10,08-Riv-74-63.0,REPLACE HURKEY CREEK BRIDGE
03-2F2904,2014-09-17,2014-08-11,2014-12-08,TEICHERT CONSTRUCTION,(530)406-4200,$3,309,698.88,03-Pla-267-0.0/6.8,Pavement Rehab
11-080174,2014-09-11,2014-08-11,2014-10-22,ACCU CONSTRUCTION, INC.,(714)641-4730,$2,272,323.00,11-SD-76-R7.3/12.0,PLANT ESTABLISHMENT EA
12-0M3704,2014-09-11,2014-08-11,2014-10-30,PETERSON-CHASE GENERAL ENGINEERING CONSTRUCTION, INC.,(949)252-0441,$397,468.90,12-Ora-5, 55, 57, 405-VAR,Upgrade and Retrofit CMS Signs with Safety Cabling and Brackets
04-3G6504,2014-09-10,2014-08-04,2014-10-08,DESILVA GATES CONSTRUCTION LP,(925)829-9220,$12,754,321.00,04-Sol-680-0.35/13.10,Rehabilitate Pavement.
03-3E1204,2014-09-10,2014-08-04,2014-10-06,J.F. SHEA CONSTRUCTION, INC.,(530)246-4292,$1,483,114.20,03-But-70-26.7/27.1,SEISMIC RETROFIT
11-238404,2014-09-10,2014-07-21,2014-10-09,FLATIRON WEST, INC.,(760)916-9100,$11,134,915.00,11-Imp-7-0.0/1.2,PAVEMENT REHABILITATION
04-0G2224,2014-09-10,2014-08-18,2014-10-08,GRANITE ROCK COMPANY,(408)574-1400,$1,134,943.00,04-SM-1,35,82,84,109,280-Var,CONSTRUCT CURB RAMPS AND SIDEWALK.
04-041004,2014-09-09,2014-06-30,2014-11-24,MYERS AND SONS / ACC JV,(916)283-9950,$26,583,658.65,04-SM,Ala-92-R14.4/R18.8,R0.0/R2.6,Polyester Concrete Overlay.
06-0M8204,2014-09-03,2014-06-30,2014-10-10,EMMETTS EXCAVATION, INC.,(559)299-1256,$924,203.10,06-Fre-41,180-Var,Install Concrete Barrier
08-0R6704,2014-09-03,2014-08-11,2014-09-26,CAL STRIPE INC.,(909)884-7170,$167,728.00,08-SBd-18-PM R17.8/34.5,INSTALL CENTERLINE RUMBLE STRIP
10-0V6604,2014-09-03,2014-06-23,2014-10-08,BAY CITIES PAVING & GRADING, INC.,(925)687-6666,$39,414,624.36,10-Mer,Sta,SJ-5-32.2/32.5, 0.0/28.1, 0.0/R12.4,Digouts and repair failed areas and overlay with hot mix asphalt.
01-0E1804,2014-09-03,2014-08-11,2014-09-29,GRANITE CONSTRUCTION COMPANY,(707)467-4100,$225,915.00,01-Men-101-58.9/61.8,HMA Overlay
10-0W1904,2014-09-03,2014-06-30,2014-12-19,A. TEICHERT & SON, INC DBA. TEICHERT CONSTRUCTION,(209)983-2300,$23,029,680.00,10-SJ-99-22.9/38.8,Pavement Resurfacing
04-0G7104,2014-09-03,2014-08-04,2014-09-26,BUGLER CONSTRUCTION,(925)416-0700,$1,413,306.00,04-SM-280-R21.3,Seismic retrofit.
04-1SS464,2014-08-27,2014-08-04,2014-09-23,FBD VANGUARD CONSTRUCTION,(925)245-1300,$604,599.80,04-CC-680-R17.7/R17.9,Storm Damage Repair.
10-0T8204,2014-08-27,2014-07-28,2014-09-24,QUIMU CONTRACTING INC.,(707)693-0289,$525,800.20,10-SJ-4,5,26-Var,Construct ADA Curb Ramps
02-2E74U4,2014-08-27,2014-07-28,2014-10-08,HAT CREEK CONSTRUCTION & MATERIALS, INC.,(530)335-5501,$3,398,929.00,02-Sha-299-83.0/84.0,Curve Improvement
05-0Q5904,2014-08-27,2014-07-21,2014-09-30,GRANITE ROCK COMPANY,(408)574-1400,$1,999,850.00,05-SCr-9-3.8/18.7,pollution source control
02-4E8114,2014-08-27,2014-07-28,2014-09-30,TULLIS, INC.,(530)241-5105,$1,790,072.00,02-Plu,Sis,Tri-5, 3, 70-VAR,HMA, aggregate base, electrical & excavation
11-298204,2014-08-27,2014-08-04,2014-10-10,HAZARD CONSTRUCTION COMPANY,(858)587-3600,$3,174,826.00,11-SD-905-6.5/10.4,Roadway Rehabilitation
05-1A7304,2014-08-27,2014-07-21,2014-09-15,PAPICH CONSTRUCTION CO INC,(805)473-3016,$4,697,000.00,05-Mon-101-49.8/55.3,Pavement Preservation CAPM
03-4M7404,2014-08-27,2014-07-21,2014-10-02,AMERICAN CIVIL CONSTRUCTORS WEST COAST, INC.,(707)746-8028,$4,596,515.23,03-Col,Yol-5, 80, 505-VAR,Deck - Methacrylate - Polyester & joint repair/rehab on 14 bridges.
10-0V4904,2014-08-27,2014-07-28,2014-09-30,K.W. EMERSON, INC.,(209)754-3839,$823,412.00,10-Tuo-108-R3.1, R3.9,Storm water mitigation.
07-294704,2014-08-21,2014-06-23,2014-11-19,MYERS AND SONS CONSTRUCTION, LP,(916)283-9950,$53,645,672.00,07-LA-101-11.8/35.3,Slab replacement/coldplane AC overlay
12-0H0344,2014-08-21,2014-07-14,2014-09-12,AUTOBAHN CONSTRUCTION, INC.,(714)769-7025,$2,496,863.50,12-Ora-073-25.7-28.0,NB/SB SLAB REPLACEMENT. ON/OFF RAMPS RESURFACING, SHOULDER REHAB & GRINDING
04-1SS054,2014-08-19,2014-07-07,2014-09-19,GRANITE CONSTRUCTION COMPANY,(831)724-1011,$2,553,021.25,04-Ala-580-32.5 ,Construct Soldier Pile Retaining Wall.
12-0H9004,2014-08-14,2014-07-07,2014-09-02,WESTCOAST PUBLIC WORKS, INC.,(818)256-9401,$1,065,520.00,12-Ora-55-4.6/5.9,Improve of Pavement Access
11-404404,2014-08-14,2014-07-07,2014-09-08,CLEAN CUT LANDSCAPE,(559)322-2041,$1,219,972.20,11-Imp-78, 111-R9.2/R14.0, 23.5/23.8,REQUIRED LANDSCAPE MITIGATION. BYPASS (STAGE 3)
07-295504,2014-08-14,2014-06-23,2014-09-15,OHL USA, INC.,(949)242-4432,$19,262,649.40,07-LA-101-1.8/8.4,Roadside safety improvement.
05-0T7604,2014-08-13,2014-07-21,2014-09-02,GRANITE CONSTRUCTION COMPANY,(831)763-6100,$433,238.00,05-Mon-1-R77.6,Aquajito on-ramp overlay
01-0C9004,2014-08-13,2014-07-21,2014-10-01,GRANITE CONSTRUCTION COMPANY,(707)467-4100,$646,576.50,01-Men-101-50.7/51.2,HMA OVERLAY
01-0E4804,2014-08-07,2014-08-01,2014-08-11,GRANITE CONSTRUCTION COMPANY,(831)724-1011,$1,508,661.50,01-Men-128-23.3/R26.8,
12-0H20U4,2014-08-07,2014-06-30,2014-09-04,WEST COAST PUBLIC WORKS INC,(818)206-9990,$3,536,910.00,12-Ora-55, 73-2.8/5.924.7/27.8,Remove diseased trees and upgrade highway planting
12-0H1604,2014-08-07,2014-06-30,2014-10-14,ALL AMERICAN ASPHALT,(951)736-7600,$3,411,914.00,12-Ora-1-25.9/29.9,REMOVE AND REPLACE EXISTING PAVEMENT WITH 0.2 RHMA
03-1A8424,2014-08-06,2014-03-24,2014-09-26,QUALCON CONTRACTORS INC.,(775)782-2006,$11,415,112.50,03-ED-89-8.6/13.8,Storm Water Quality Improvements and Overlay
04-4A8104,2014-08-05,2014-06-30,2014-09-12,GALLAGHER & BURK INC,(510)261-0466,$1,756,430.00,04-Ala-880-R32.8/R34.0,Storm Water Mitigation.
11-406604,2014-07-31,2014-07-07,2014-08-25,HAZARD CONSTRUCTION COMPANY,(858)587-3600,$7,334,592.50,11-SD-76-R4.2/R7.6,MEDIAN BARRIER
02-3E7904,2014-07-30,2014-06-23,2014-09-24,J.F. SHEA CONSTRUCTION, INC.,(530)246-4292,$4,947,910.00,02-Tri-299-12.3/12.9,CURVE IMPROVEMENT
01-0B0004,2014-07-30,2014-06-23,2014-08-20,O.C. JONES & SONS, INC.,(510)526-3424,$16,752,199.00,01-Lak-20-13.5/31.4,Replace hot mix asphalt, apply gap graded rubberized hot mix asphalt.
04-0G7504,2014-07-29,2014-07-07,2014-08-26,APEX FENCE CO INC,(530)365-3316,$253,358.00,04-Sol-113-R21.8,Construct thrie beam barrier.
04-4A8304,2014-07-29,2014-06-30,2014-08-22,GORDON N BALL INC,(925)838-5675,$431,288.00,04-Ala-13-5.3/5.6,Drainage and shoulder paving.
08-3401U4,2014-07-24,2014-05-12,2014-09-10,FLATIRON/HARDY & HARPER A JOINT VENTURE,(760)916-9100,$47,428,041.31,08-SBd-2, 138-6.2/6.4,2.3/R15.2,
11-2T2504,2014-07-24,2014-05-27,2014-08-11,HAZARD CONSTRUCTION COMPANY,(858)587-3600,$5,538,158.55,11-SD-805-9.5/10.3,OUTSIDE WIDENING
10-0K0214,2014-07-23,2014-06-23,2014-08-20,WABO LANDSCAPE & CONSTRUCTION, INC.,(510)741-9226,$619,420.50,10-Mer-99-15.8/17.3,Highway Planting and Irrigation.
10-0W6904,2014-07-23,2014-06-23,2014-08-15,TRUESDELL CORPORATION OF CALIFORNIA, INC.,(602)437-1711,$2,133,133.00,10-SJ-4, 5, 99, 205-Var,Bridge Rehabilitation
03-2F0004,2014-07-23,2014-06-23,2014-08-11,DIRT AND AGGREGATE INTERCHANGE, INC.,(503)661-5093,$6,792,222.00,03-But,Col,Gle,Sut,Yol,Yub-16, 32, 45, 70, 113, 162-VAR,Upgrade Guardrail End Treatments
04-4A8204,2014-07-22,2014-06-23,2014-09-19,GORDON N BALL INC,(925)838-5675,$296,035.00,04-Ala-80-6.2/6.4,Storm water mitigation
12-0J61U4,2014-07-17,2014-06-02,2014-08-12,ACCU CONSTRUCTION INC,(714)641-4730,$4,759,072.40,12-Ora-5, 405-19.2/22.2, 0.0/1.2,Revegetation of Exposed Slopes for NPDES Concerns and Source Control
08-0J9304,2014-07-17,2014-06-23,2014-08-25,AUTOBAHN CONSTRUCTION INC,(714)769-7025,$544,031.00,08-SBd-15-147.6,BRIDGE REHABILITATION
10-0Y6904,2014-07-16,2014-06-23,2014-08-05,AMERICAN CIVIL CONSTRUCTORS WEST COAST, INC.,(707)746-8028,$409,900.00,10-SJ-5,99-var,Construct high friction surface treatment.
09-346504,2014-07-16,2014-06-16,2014-08-06,QUALCON CONTRACTORS INC.,(775)782-2006,$975,869.00,09-Mno-266-2.1/2.7,Construct roadway realignment.
11-2T1784,2014-07-10,2014-06-09,2014-08-05,WESTERN RIM CONSTRUCTORS, INC.,(760)489-4328,$582,542.76,11-SD-5-R35.8/R38.5,I-5 LOMAS HWY PLANTING STAGE 2
03-3F7704,2014-07-09,2014-06-16,2014-07-24,CHRISP COMPANY,(510)656-2840,$1,525,567.00,03-But,Col,ED,Nev,Pla,Sac,Sut,Yol,Yub-16, 20, 49, 50, 70, 80, 99, 149-VAR,Install shoulder and centerline rumble strips.
06-0P8404,2014-07-09,2014-06-16,2014-08-04,GRANITE CONSTRUCTION COMPANY,(831)724-1011,$3,451,485.00,06-Ker-223-4.8/R17.2,Widen outside shoulder and construct rumble strip.
06-0P5604,2014-07-09,2014-06-16,2014-07-29,GRIFFITH COMPANY,(661)392-6640,$2,447,442.00,06-Ker-58-36.3/39.9,Widen shoulders and install shoulder rumble strip.
05-1F3204,2014-07-09,2014-06-16,2014-07-29,TRAFFIC DEVELOPMENT SERVICES, INC.,(805)523-1914,$555,572.00,05-SB-101-13.0/22.8,Replace overhead guide signs and barrier delineation.
05-1C3304,2014-07-09,2014-06-16,2014-09-08,GRANITEROCK COMPANY,(408)574-1423,$2,085,568.00,05-Mon-101-57.1/60.8,Construct high tension cable median barrier and install rumble strip.
04-152724,2014-07-08,2014-04-28,2014-08-12,BAY CITIES PAVING & GRADING INC,(925)687-6666,$11,745,322.36,04-CC-4/242-R8.0/25.2 & 0.0/3.4,Install ramp metering & TOS elecments.
04-294944,2014-07-08,2014-05-05,2014-08-06,MARINA LANDSCAPE INC,(714)939-6600,$2,358,529.90,04-Ala,CC-24-5.3/6.2 0.0/1.3,REPLACEMENT HIGHWAY PLANTING
10-0J92U4,2014-07-02,2014-06-09,2014-07-24,MYERS AND SONS CONSTRUCTION, LP,(916)283-9950,$4,488,449.00,10-Sac,SJ-12-5.5/6.2, 0.0/0.5,Bridge and control house rehabilitation.
07-295704,2014-06-26,2014-04-21,2014-07-21,PETERSON-CHASE GENERAL ENGINEERING CONSTRUCTION INC,(949)252-0441,$21,829,880.00,07-LA-605-R0.0/20.5,Pavement preservation, slab replacement/grinding
11-263304,2014-06-26,2014-05-05,2014-07-30,HAZARD CONSTRUCTION COMPANY,(858)587-3600,$11,894,734.00,11-Imp-8-R38.8/R39.1,REVISE INTERCHANGE
07-295604,2014-06-26,2014-05-05,2014-07-31,C A RASMUSSEN INC,(661)367-9040,$23,420,654.00,07-LA-5-19.2/28.9,PVMT PRESERVATION, SLAB REPL, SHLDR
01-496504,2014-06-25,2014-05-19,2014-07-14,MERCER-FRASER COMPANY,(707)443-6371,$919,737.00,01-Hum-5711,Excavate petroleum impacted soil, place HMA and import borrow
04-014104,2014-06-24,2014-05-05,2014-07-29,TABER CONSTRUCTION INC,(925)682-6133,$14,234,058.00,04-Ala-5785,Construct SFOBB warehouse.
04-3G7504,2014-06-24,2014-06-02,2014-07-16,ROBERT J FRANK CONSRUCTION INC,(530)222-1408,$123,036.00,04-SM-92-2.5,CONSTRUCT ROCK SLOPE PROTECTION, DITCH LINING, AND INSTALL DRAINAGE
07-295004,2014-06-19,2014-05-12,2014-07-07,POWELL CONSTRUCTORS INC,(909)356-8880,$8,785,193.50,07-LA-10-41.7/48.3,SLAB REPLACEMENT
11-257154,2014-06-19,2014-04-28,2014-08-04,AMES CONSTRUCTION INC,(951)356-1275,$75,213,841.50,11-SD-15,76-R46.2/R46.8, R12.1/R17.7,Construct 4 Lane Highway
01-474904,2014-06-18,2014-05-05,2014-07-24,GRANITE CONSTRUCTION COMPANY,(707)467-4100,$5,110,299.50,01-Men-1-70.3/70.7,Storm Damage Repair
05-330764,2014-06-18,2014-05-27,2014-10-09,PACIFIC RESTORATION GROUP, INC.,(951)940-6069,$1,031,448.75,05-SLO-46-37.6/40.4,Irrigation, planting, and plant establishment
03-4M2004,2014-06-18,2014-05-19,2014-07-02,BLAISDELL CONSTRUCTION INC.,(530)365-4444,$634,745.00,03-But,Col,Gle-5, 20, 32, 162-Var,Scour prevention.
10-1C0204,2014-06-18,2014-05-12,2014-07-16,WEST COAST STRUCTURS INC DBA WESTERN STRUCTURES,(951)352-4300,$1,209,316.94,10-SJ-12-R4.4,Bridge rehabilitation.
04-2G8404,2014-06-17,2014-06-02,2014-06-25,GHILOTTI CONSTRUCTION COMPANY INC,(707)585-1221,$333,380.00,04-Ala-61-19.2,Modify a drainage system.
08-336304,2014-06-12,2014-04-28,2014-07-25,POWELL CONSTRUCTORS INC,(909)356-8880,$1,428,980.00,08-SBd-38-26.3/26.8,BRIDGE DECK REPLACEMENT
07-296804,2014-06-12,2014-04-28,2014-09-05,SULLY MILLER CONTRACTING COMPANY,(714)578-9600,$20,279,175.00,07-LA-405-28.0/39.0,SLAB REPLACEMENT & AC OVERLAY
07-294904,2014-06-12,2014-05-05,2014-07-07,SECURITY PAVING COMPANY INC,(818)362-9200,$9,757,977.00,07-LA-5-6.8/13.8,Preventive Maintenance
04-3E4704,2014-06-10,2014-04-21,2014-06-24,WESTERN STRUCTURES,(951)352-4300,$697,985.00,04-SM,SF-1,92,101,280-Var,TREAT BRIDGE DECKS WITH METHACRYLATE AND REPLACE JOINT SEALS
04-1A5514,2014-06-10,2014-05-05,2014-09-12,C C MYERS INC,(916)635-9370,$10,525,383.00,04-SF-101/280-1.5/1.8,R4.1/R4.4,REPLACE BARRIER RAILINGS
10-0V6804,2014-06-04,2014-04-28,2014-08-05,GEORGE REED, INC.,(209)523-0734,$3,371,209.00,10-Sta-120-6.1/11.3,Repair failed areas and apply rubberized HMA.
02-3C0714,2014-06-04,2014-04-21,2014-06-25,HAT CREEK CONSTRUCTION & MATERIALS, INC.,(530)335-5501,$12,183,831.00,02-Las-395-61.5/R76.6,REHABILITATE ROADWAY
08-0J8504,2014-05-29,2014-04-01,2014-07-01,STEVE P RADOS INC,(714)835-4612,$5,866,648.00,08-SBd-138-R24.1,Replace existing bridge.
07-4T5604,2014-05-29,2014-05-05,2014-06-12,UNIQUE PERFORMANCE CONSTRUCTION INC,(714)528-2220,$295,024.00,07-LA-107-4.2,SIGNALS AND CURB RAMPS
11-408504,2014-05-29,2014-05-05,2014-08-04,WESTERN RIM CONSTRUCTORS INC,(760)489-4328,$1,339,604.31,11-SD-125-9.7/12.1,Install Median Barriers
05-0S7904,2014-05-28,2014-04-21,2014-06-17,CALPORTLAND CONSTRUCTION,(805)345-3581,$2,899,927.20,05-SLO-101-R21.6/R23.9,Repave roadway with rubberized HMA and construct guadrail.
01-378124,2014-05-28,2014-05-05,2014-06-19,KENS WATER TENDER, INC.,(530)629-4397,$538,629.50,01-Men-128, 253-VAR,Culverts Rehabilitation
08-1C4104,2014-05-22,2014-04-07,2014-06-12,J MCLOUGHLIN ENGINEERING CO INC,(909)944-1037,$2,530,243.40,08-SBd-15, 40, 127, 58, 95 and 247-Varies,Bridge rehab, shoulder & ramp seal, install G-11s and guardrail
07-1W6104,2014-05-22,2014-04-21,2014-06-10,VELARDE CONCRETE CONSTRUCTION INC,(818)898-2300,$1,141,830.67,07-LA-1,47,91,110,405,710-Var,DECK METH, APPROACH SLAB, JNT SEAL
03-4M8504,2014-05-21,2014-04-21,2014-06-17,GRANITE CONSTRUCTION COMPANY,(916)855-4400,$2,753,753.00,03-Sac-50-R5.8/12.9,Rubberized HMA (Open Graded) Overlay
04-4H5704,2014-05-20,2014-04-21,2014-06-11,WINDSOR FUEL COMPANY,(925)427-5266,$2,383,119.00,04-Son-12-18.8/21.7,Cold plane asphalt concrete pavement and overlay with R-BWC.
04-3E5104,2014-05-20,2014-04-21,2014-06-05,PETERSON CHASE GENERAL ENGINEERING CONSTRUCTION INC,(949)252-0441,$1,915,952.14,04-Ala-VAR-VAR,TREAT BRIDGE DECK WITH METHACRYLATE AND REPLACE JOINT SEALS.
08-0R8104,2014-05-15,2014-04-07,2014-06-10,ABSL CONSTRUCTION,(510)727-0900,$735,918.50,08-Riv-215-R15.0,Install Weigh in Motion
08-1C8904,2014-05-15,2014-04-14,2014-06-10,AUTOBAHN CONSTRUCTION INC,(714)769-7025,$1,131,885.25,08-Riv-10-R110.4/R152.4,BRIDGE PREVENTIVE MAINTENANCE
08-0R9704,2014-05-15,2014-04-21,2014-06-11,FLEMING ENVIRONMENTAL INC,(714)871-2800,$1,186,570.00,08-Riv-5730,RECONSTRUCT WASHRACK SYSTEM
11-292304,2014-05-15,2014-04-21,2014-06-11,CLEAN CUT LANDSCAPE,(559)322-2041,$1,741,878.95,11-SD-805-0.9/1.1, 2.5/2.9,STORM WATER MITIGATION SLOPE EROSION REPAIR
07-4T6804,2014-05-15,2014-04-14,2014-06-12,SMART TECH GROUP INC,(949)800-6040,$450,356.80,07-LA-105-R0.9, R4.7,SURFACE TREATMENT, CONCRETE BARRIER
11-2M6304,2014-05-15,2014-04-01,2014-06-09,HAZARD CONSTRUCTION COMPANY,(858)587-3600,$4,294,738.00,11-SD-76-24.1/34.9,Cold In-Place Recycling
08-0N4004,2014-05-15,2014-04-21,2014-06-10,SMART TECH GROUP INC,(949)800-6040,$444,055.60,08-SBd-18-59.9/63.3,INSTALL MBGR
12-0M7104,2014-05-15,2014-04-21,2014-06-05,ALL AMERICAN ASPHALT,(951)736-7600,$3,995,626.00,12-Ora-241-17.3/25.0 PM,0.1 RHMA TYPE O
07-273104,2014-05-15,2014-04-21,2014-06-10,HIGHLAND CONSTRUCTION INC,(714)538-5156,$1,427,864.00,07-LA-105, 110-Var,STRUCTURE REHABILITATION
07-1W5904,2014-05-15,2014-04-14,2014-06-04,VELARDE CONCRETE CONSTRUCTION INC,(818)898-2300,$1,384,839.00,07-LA-10, 39, 210, 605-Var,METH DECK, JOINT SEALS & APPROACH LAB
10-0X7704,2014-05-14,2014-04-07,2014-06-05,PETERSON-CHASE GENERAL ENGINERING CONSTRUCTION, INC.,(949)252-0441,$414,672.98,10-Mer,Sta-5, 59, 99, 132-var,Treat bridge decks and replace joint seals
03-4M7304,2014-05-14,2014-04-14,2014-06-05,WEST COAST STRUCTURES, INC DBA WESTERN STRUCTURES,(951)352-4300,$1,239,245.65,03-Sac-51,99,160-VAR,Rehabilitate bridge decks.
01-0C9504,2014-05-14,2014-04-21,2014-06-10,GRANITE CONSTRUCTION COMPANY,(707)467-4100,$1,398,981.40,01-Men-101-R100.1/R103.8,BONDED WEARING COURSE
03-4M8204,2014-05-14,2014-04-21,2014-06-09,A. TEICHERT & SON, INC. DBA TEICHERT CONSTRUCTION,(530)406-4200,$1,922,074.50,03-Sac-5, 99-29.5/30.5, 32.1/36.9,Rubberized Hot Mix Asphalt (Open Graded) Overlay
05-1F4804,2014-05-14,2014-04-14,2014-06-10,AMERICAN CIVIL CONSTRUCTORS WEST COAST, INC.,(707)746-8028,$289,279.00,05-SB-101-47.3/47.9,Place high friction surface treatment at spot locations
09-358304,2014-05-14,2014-04-21,2014-06-09,WILLIAM KANAYAN CONSTRUCTION,(909)337-5428,$351,312.00,09-Mno-108, 158, 182, 395-var,Replace culverts.
04-235844,2014-05-13,2014-02-24,2014-06-25,GHILOTTI CONSTRUCTION COMPANY INC,(707)585-1221,$44,991,507.50,04-SM-101-16.3/17.1,Reconstruct overcrossing, retaining walls, ground improvement,
04-3E3604,2014-05-13,2014-04-14,2014-06-04,WINDSOR FUEL COMPANY,(925)427-5266,$1,626,850.00,04-Sol-37-0.1/7.4,Cold plane pavement and place rubberized hot mix asphalt
04-3E2404,2014-05-13,2014-04-21,2014-06-04,OGRADY PAVING INC,(650)966-1926,$241,170.00,04-SM-35-21.0/23.0,Cold plane asphalt concrete pavement and place hot mix asphalt.
07-1W6504,2014-05-08,2014-04-07,2014-06-03,THE SUN GROUP,(949)476-3133,$912,930.74,07-LA-101, 134-Various,DECK METH, JOINT SEALS, APPROACH SLAB
07-4Y9204,2014-05-08,2014-04-07,2014-05-29,J MCLOUGHLIN ENGINEERING CO INC,(909)944-1051,$4,243,170.00,07-LA-14-R24.8/R32.1,PCC PROFGRIND, CPOL SHOULDERS, SLABS
08-0R4004,2014-05-08,2014-04-14,2014-06-04,ALL AMERICAN ASPHALT,(951)736-7600,$2,581,601.20,08-SBd-2, 138-0.0/6.4, 0.0/4.8,Cold Plane, Overlay and Replace Asphalt Concrete Surfacing
11-2M4404,2014-05-08,2014-04-07,2014-06-02,SKANSKA USA CIVIL WEST CALIFORNIA DISTRICT INC,(951)684-5360,$2,990,000.00,11-Imp-111-40.5/65.4,Profile Grind AR Chipseal and Hot Mix Asphalt
08-0R2104,2014-05-08,2014-04-14,2014-06-17,STERNDAHL ENTERPRISES INC,(818)834-8199,$267,620.00,08-Riv-60-R0.0/11.9,Convert existing restricted access HOV lanes to continuous access HOV lanes.
08-1C1304,2014-05-08,2014-04-14,2014-06-09,SKANSKA USA CIVIL WEST CALIFORNIA DISTRICT INC,(951)684-5360,$1,258,000.00,08-Riv-111-47.2/T50.0,Rehabilitate Pavement
07-1W5204,2014-05-08,2014-04-07,2014-06-09,FUTURE DB INTERNATIONAL INC,(949)390-2111,$429,910.00,07-LA-5704,
02-4G1904,2014-05-07,2014-03-10,2014-06-03,TULLIS, INC.,(530)241-5105,$1,746,671.00,02-Sha-299-60.0/67.8,Place HMA, Replace AC Surfacing
05-0R5304,2014-05-07,2014-04-14,2014-05-28,CALPORTLAND CONSTRUCTION,(805)345-3581,$720,124.35,05-Mon,SLO-1, 101-Var,ADA Curb Ramps
03-4M6604,2014-05-07,2014-04-07,2014-05-21,MIDSTATE BARRIER, INC.,(209)944-9565,$339,412.50,03-Sac-104-3.7/8.5,Replace Guardrailing
05-1C9004,2014-05-07,2014-04-14,2014-05-28,CALPORTLAND CONSTRUCTION,(805)345-3581,$5,357,315.80,05-SLO-46-50.2/60.9,Resurface existing pavement with gap graded RHMA.
03-4M8404,2014-05-07,2014-04-14,2014-06-24,ACME CONCRETE PAVING INC, DBA ACPI,(509)242-1234,$7,647,894.82,03-Nev-80-21.2/28.1,Grind existing bonded wearing course overlay, profile grind PCC surface, apply concrete hardener
10-0X4404,2014-05-07,2014-04-07,2014-05-30,ODONNELL CONSTRUCTION, INC.,(909)394-4510,$297,425.60,10-Mpa-49-2.9,Remove and replace bridge deck overlay.
01-0C4804,2014-05-07,2014-04-07,2014-05-28,MERCER-FRASER COMPANY,(707)443-6371,$3,989,170.00,01-Hum-101-69.9/75.1,Place RMHA Overlay
01-0A3604,2014-05-07,2014-04-07,2014-06-02,MERCER-FRASER COMPANY,(707)443-6371,$2,614,717.00,01-Hum-299-19.3/19.8,Curve Improvement
10-0F7404,2014-05-07,2014-04-14,2014-06-19,AMERICAN CIVIL CONSTRUCTORS WEST COAST, INC.,(707)746-8028,$1,126,100.00,10-Mer-5-17.5,Bridge Girder Retrofit
01-499104,2014-05-07,2014-04-14,2014-05-22,ROBERT J. FRANK CONSTRUCTION, INC.,(530)222-1408,$453,080.00,01-DN-101-0.9/23.9,REPAIR DRAINAGE FACILITIES
02-4F1004,2014-05-07,2014-04-14,2014-05-23,DIG IT CONSTRUCTION, INC.,(530)258-3306,$1,107,318.00,02-Plu-070-23.7/23.9,Place Rock Slope Protection and reconstruct and overlay roadway
04-1A2604,2014-05-06,2014-04-14,2014-05-29,GORDON N BALL INC,(925)838-5675,$895,302.00,04-Sol-80-4.0/4.3,Upgrade Drainage Systems.
04-2G6004,2014-05-06,2014-04-14,2014-06-19,GHILOTTI CONSTRUCTION COMPANY INC,(707)585-1221,$1,119,553.40,04-Son-101-R54.2/R56.2,Cold plane pavement and place HMA-A, and install drainage systems.
04-4G4004,2014-05-06,2014-04-14,2014-05-29,BAY CITIES PAVING & GRADING,(925)687-6666,$592,640.50,04-Ala-13-13.2/13.7,Cold plane asphalt concrete and place hot mix asphalt.
04-3E3704,2014-05-06,2014-04-14,2014-05-22,O C JONES & SONS INC,(510)526-3424,$699,857.00,04-Nap-29-0.0/5.1,Cold plane asphalt concrete pavement and place hot mix asphalt.
07-1W6904,2014-05-01,2014-03-24,2014-05-28,ALL AMERICAN ASPHALT,(951)736-7600,$1,364,333.00,07-LA-72-0.0/6.8,BWC
07-1W5604,2014-05-01,2014-04-01,2014-05-28,TRUESDELL CORPORATION OF CALIFORNIA INC,(602)437-1711,$1,285,285.00,07-Ven-23,101,118,126,150-Var,METH DECK, PATCH, SPALLS AND JOINT SEAL
11-416204,2014-05-01,2014-04-07,2014-06-06,GRANITE CONSTRUCTION COMPANY,(760)732-0915,$468,468.00,11-SD-15-R36.2/R37.0,Cold Plane and Overlay Off-Ramps
08-1C3904,2014-05-01,2014-04-07,2014-06-09,J MCLOUGHLIN ENGINEERING CO INC,(909)944-1037,$945,267.15,08-SBd-10, 210-Varies,Resurface Bridge Decks And Replace Joint Seals.
03-4M9604,2014-04-30,2014-04-01,2014-05-21,WINDSOR FUEL,(925)427-5266,$1,257,827.50,03-Pla-49-2.5/7.6,Micro-Surfacing
01-0C8804,2014-04-30,2014-04-07,2014-05-20,INTERMOUNTAIN SLURRY SEAL, INC.,(775)355-5237,$561,561.00,01-Hum-96-16.8/23.0,Place Seal Coat
03-3M9204,2014-04-30,2014-04-01,2014-05-21,SIERRA NEVADA CONSTRUCTION, INC.,(775)355-0420,$2,396,007.00,03-ED-193-R6.0/12.7,Cold In-Place Recycling with Hot Mix Asphalt Overlay
03-4M6104,2014-04-30,2014-04-01,2014-05-22,C.C. MYERS, INC.,(916)635-9370,$1,948,000.00,03-Nev-80-R9.0, 28.1,Substructure mitigation and bridge deck polyester overlay.
02-4F4104,2014-04-30,2014-04-07,2014-05-22,R. BROWN CONSTRUCTION COMPANY, INC.,(530)629-3702,$647,938.75,02-Sis-96-33.2,Permanent slide restoration
10-0X7804,2014-04-30,2014-04-07,2014-05-21,PETERSON-CHASE GENERAL ENGINEERING CONSTRUCTION, INC.,(949)252-0441,$788,243.30,10-SJ-5,26,88,132-var,Treat Bridge Decks, Replace Joint Seals, and Replace Approach Slabs
03-1F8904,2014-04-30,2014-04-07,2014-06-03,KNIFE RIVER CONSTRUCTION,(530)891-6555,$623,565.09,03-Nev-49-17.1/17.4,Add four foot wide paved shoulder
09-358904,2014-04-30,2014-04-01,2014-05-23,W JAXON BAKER, INC.,(530)241-2112,$4,209,344.00,09-Mno-395-R12.6/35.3,Hot mix asphalt, superpave thin blanket overlay.
01-0A8104,2014-04-30,2014-04-07,2014-05-20,BUGLER CONSTRUCTION,(925)416-0700,$391,775.00,01-Men-1, 128-VAR,BRIDGE DECK REHAB
04-2A2504,2014-04-29,2013-08-19,2014-05-29,BAY CITIES PAVING & GRADING INC,(925)687-6666,$13,620,050.95,04-SCl-152-0.1/5.2,
07-4Y9704,2014-04-24,2014-04-01,2014-05-19,SECURITY PAVING COMPANY INC,(818)362-9200,$2,882,789.00,07-LA-101-8.0/11.5,RHMA, Superpave (Gap Graded) CPOL
08-1C9204,2014-04-24,2014-04-01,2014-05-22,ALL AMERICAN ASPHALT,(951)736-7600,$3,493,521.70,08-SBd-18, 83, 210-T6.0/9.1, 7.2/11.1, 1.1/R29.6,Slurry Seal, Cold Plane, Overlay, and Localized Dig-out
07-1W7304,2014-04-24,2014-03-24,2014-05-21,ALL AMERICAN ASPHALT,(951)736-7600,$287,872.00,07-LA-710-T30.9/T31.8,RHMA CPOL
11-416104,2014-04-24,2014-03-24,2014-05-30,HAZARD CONSTRUCTION COMPANY,(858)587-3600,$544,920.00,11-SD-15-M20.3 / M20.9,Pavement Rehabilitation
07-1W6204,2014-04-24,2014-03-24,2014-05-22,WESTERN STRUCTURES,(951)352-4300,$857,094.49,07-LA-1-9.9,Bridge Preservation
06-0Q4204,2014-04-23,2014-03-24,2014-05-22,RE COM DEVELOPMENT COMPANY,(760)873-3301,$934,315.84,06-Ker-5713,
02-4G1604,2014-04-23,2014-03-10,2014-05-13,J.F. SHEA CONSTRUCTION, INC.,(530)246-4292,$6,262,844.00,02-Sha,Sis-5-58.0/67.0, 0.0/2.7,Cold Plane & Replace HMA
06-0R2404,2014-04-23,2014-03-17,2014-06-12,GRANITE CONSTRUCTION COMPANY,(559)263-9601,$399,580.00,06-Fre-5-37.1/41.7,44.9/46.5,HMA OVERLAY .
03-3F9504,2014-04-23,2014-03-24,2014-06-20,HERBACK GENERAL ENGINEERING,(775)267-6800,$429,306.80,03-Nev-49-5.6/6.0,Widen/Add northbound turn lane and paved shoulder.
03-4M7004,2014-04-23,2014-03-24,2014-05-12,TRUESDELL CORPORATION OF CALIFORNIA, INC.,(602)437-1711,$1,555,555.00,03, 04-Sac,SJ,Sol,Yol-5, 12-VAR,Resurface Bridge Decks, replace joint seals, place HMA at approaches.
10-1C0104,2014-04-23,2014-04-01,2014-05-13,VIKING CONSTRUCTION COMPANY, INC.,(916)852-5530,$556,277.00,10-SJ-120-R0.8,Bridge rehabilitation.
06-0Q8004,2014-04-23,2014-03-17,2014-05-15,GRIFFITH COMPANY,(661)392-6600,$1,186,353.60,06-Ker-58-31.8/39.7,RHMA overlay and install centerline rumble strip.
03-4M2604,2014-04-23,2014-03-24,2014-06-18,DREAMBUILDER,(714)646-3697,$345,131.00,03-Sie-89-27.2/29.6,Rehabilitate Culverts
02-4F7004,2014-04-23,2014-03-24,2014-05-12,Q & D CONSTRUCTION INC.,(775)786-2677,$1,040,674.60,02-Las,Plu,Teh-VAR-VAR,Bridge Maintenance
10-0S8704,2014-04-23,2014-03-24,2014-05-13,GEORGE REED, INC.,(209)523-0700,$183,667.00,10-Sta-4-6.3/6.6,Shoulder widening with rumble strips.
06-0Q7504,2014-04-23,2014-03-24,2014-05-21,GRANITE CONSTRUCTION COMPANY,(559)441-5768,$2,357,000.00,06-Fre-33-16.7/22.7,Cold In-Place Recycle AC pavement and resurface existing pavement.
06-0P0504,2014-04-23,2014-03-24,2014-05-16,TRUESDELL CORPORATION OF CALIFORNIA, INC.,(602)437-1711,$733,733.00,06-Ker-65,99,178,223-Var,Bridge deck and joint seal
03-4M8304,2014-04-23,2014-03-24,2014-05-12,KNIFE RIVER CONSTRUCTION,(530)891-6555,$1,702,204.50,03-But-99-R37.2/44.4,Rubberized Hot Mix Asphalt (Gap Graded) Overlay
03-4M6904,2014-04-23,2014-03-24,2014-05-19,C.C. MYERS, INC.,(916)635-9370,$495,325.30,03-ED-50-19.6, 25.3,Rehabilitate bridge deck surface.
01-0C4204,2014-04-23,2014-04-01,2014-05-30,DARREN TAYLOR CONSTRUCTION, INC.,(530)378-2211,$1,126,945.25,01-Hum,Men-20, 101, 255-VAR,Replace AC Surfacing
04-4H4904,2014-04-22,2014-03-24,2014-06-17,MCK SERVICES INC,(925)957-9200,$741,721.00,04-Ala-84-6.9/8.0,Cold plane AC pavement and place HMA (Type A) at spot locations.
04-3E3504,2014-04-22,2014-03-24,2014-05-15,MCK SERVICES INC,(925)957-9200,$590,003.80,04-SCl-130-18.7/22.5,COLD PLANE ASPHALT CONCRETE PAVEMENT AND PLACE HOT MIX ASPHALT
12-0F96C4,2014-04-17,2014-02-03,2014-06-17,FLATIRON WEST INC,(760)916-9100,$44,312,578.27,12-Ora-5-3.7/6.2,
11-416404,2014-04-17,2014-03-24,2014-05-08,DREAMBUILDER,(714)646-3697,$709,061.00,11-SD-78-R17.0/R17.4,COLD PLANE AND OVERLAY OFF-RAMPS AND ON-RAMPS AT CENTRE CITY PARKWAY INTERCHANGE.
07-1W6304,2014-04-17,2014-03-24,2014-05-13,PETERSON CHASE GENERAL ENGINEERING CONSTRUCTION INC,(949)252-0441,$802,222.30,07-LA-2-14.5/R23.2,DECK METH, JOINT SEALS, SPALL REPAIR
08-0Q4904,2014-04-17,2014-03-24,2014-05-20,VSS INTERNATIONAL INC,(916)373-1500,$2,874,372.00,08-SBd-95-56.1/64.5,Placing Seal Coat
07-1W0904,2014-04-17,2014-03-24,2014-05-08,ALL AMERICAN ASPHALT,(951)736-7600,$931,564.90,07-Ven-23-17.8/20.9,CIR - COLD IN PLACE RECYCLING
11-2M6104,2014-04-17,2014-03-24,2014-05-07,PETERSON CHASE GENERAL ENGINEERING CONSTRUCTION INC,(949)252-0441,$198,924.90,11-Imp-8,78,86-VAR,CLEAN & TREAT BRIDGE DECKS W/ METHACRYLATE & REPAIR JOINT SEALS
06-0Q8304,2014-04-16,2014-03-03,2014-05-15,WINDSOR FUEL COMPANY,(925)427-5266,$2,376,000.00,06-Ker-178-R2.0/R7.5,RHMA (BWC-G) overlay.
12-0M8404,2014-04-10,2014-03-17,2014-04-29,STEINY AND COMPANY INC,(626)338-9923,$304,820.00,12-Ora-5, 91, 405-Var,Remove & Replace Damaged Signs & Signals, Lights
07-4T6404,2014-04-10,2014-03-17,2014-05-05,HYPA ENGINEERING INC,(818)343-8844,$599,500.00,07-LA-105-R14.3,Modify groundwater treatment electrical equipment.
11-406704,2014-04-10,2013-12-09,2014-06-13,FLATIRON WEST INC,(760)916-9100,$33,410,524.00,11-SD-5-R58.1/R72.4,Pavement rehabilitation
11-2M6704,2014-04-10,2014-03-17,2014-05-07,WINDSOR FUEL COMPANY,(925)427-5266,$1,609,811.30,11-SD-76-R2.9/R7.5,Bonded Wearing Course Overlay
08-0K2804,2014-04-10,2014-01-13,2014-05-06,SECURITY PAVING COMPANY INC,(818)362-9200,$15,747,747.00,08-SBd-40-R73.0/R89.0,Cold Plane and HMA Overlay
07-297004,2014-04-10,2014-03-03,2014-05-08,GRANITE CONSTRUCTION COMPANY,(661)726-4447,$7,077,770.00,07-LA-138-50.0/63.4,CAP-M PAVEMENT REHAB AND ADA RAMP IMPROVEMENT
02-4G1804,2014-04-09,2014-03-03,2014-04-25,TULLIS, INC.,(530)241-5105,$1,066,175.50,02-Tri-3-6.5/11.0,Thin Blanket Overlay with Digouts
05-1A8904,2014-04-09,2014-03-17,2014-05-02,TRUESDELL CORPORATION OF CALIFORNIA, INC.,(602)437-1711,$993,993.00,05-Mon-1-67.9,Patch spalls, install cathodic protection, electrochemical chloride extraction
06-0R2204,2014-04-09,2014-03-10,2014-05-07,PAPICH CONSTRUCTION CO. INC.,(805)473-3016,$3,399,999.00,06-Tul-137-18.2/27.4,Cold in-place recycling with overlay.
06-0Q4504,2014-04-09,2014-03-03,2014-05-08,ROADWAY ENGINEERING WORKS INC,(209)541-0920,$769,104.00,06-Ker-5-6.0/9.0,Install extinguishable message signs.
05-1F3804,2014-04-09,2014-03-03,2014-05-02,CAL STRIPE, INC.,(909)884-7170,$299,999.99,05-Mon-1-42.0/72.3,Replace pavement striping
02-4G2704,2014-04-09,2014-03-17,2014-05-02,TULLIS, INC.,(530)241-5105,$2,797,055.50,02-Sis-3-36.0/R46.9,Thin Blanket Overlay with digouts
02-4F6904,2014-04-09,2014-03-03,2014-04-28,SHASTA CONSTRUCTORS, INC.,(530)365-3930,$1,526,995.76,02-Sha,Sis,Teh-5, 89, 99-VAR,Bridge Maintenance
06-0Q7904,2014-04-09,2014-03-17,2014-06-09,VSS INTERNATIONAL,,$1,082,000.00,06-Ker-46, 65-54.0/57.8, 0.7/6.1 ,PMA Chip Seal
05-1A3904,2014-04-09,2014-02-24,2014-05-02,PAPICH CONSTRUCTION CO. INC.,(805)473-3016,$3,499,999.99,05-SB-101-84.1/90.9,RUBBERIZED HOT MIX ASPHALT (BONDED WEARING COARSE-GAP GRADED)
03-4M6804,2014-04-09,2014-03-10,2014-04-25,TRUESDELL CORPORATION OF CALIFORNIA, INC.,(602)437-1711,$1,079,079.00,03-But,Gle,Pla,Sut,Yub-VAR-VAR,Methacrylate & Polyester bridge deck rehab.
09-359004,2014-04-09,2014-03-10,2014-04-25,GRANITE CONSTRUCTION CO.,(831)724-1011,$2,161,874.00,09-Iny-190-18.5/24.6,Cold in-place recycled pavement and place HMA, superpave overlay.
04-1J3104,2014-04-08,2014-03-03,2014-05-29,ANVIL BUILDERS INC,(415)285-5000,$193,899.00,04-CC-4-3.9/R10.3,CULVERT REHABILITATION
12-0N2904,2014-04-03,2014-03-03,2014-05-05,R J NOBLE COMPANY,(714)637-1550,$964,354.50,12-Ora-5, 57, 261-Var,REMOVE AND REPLACE RUBBERIZED HOT MIX ASPHALT
07-4T6904,2014-04-03,2014-03-10,2014-05-19,AUTOBAHN CONSTRUCTION INC,,$394,370.00,07-LA-60-R6.8/R8.6,Pavement Rehabilitation.
11-2M6604,2014-04-03,2014-03-10,2014-05-20,HAZARD CONSTRUCTION COMPANY,(858)587-3600,$2,324,845.00,11-Imp-98-32.3/39.6,Apply Asphalt Rubber Chip Seal
07-296704,2014-04-03,2014-03-03,2014-04-29,C A RASMUSSEN INC,(661)367-9040,$16,328,926.00,07-Ven-118-T18.7/R32.6,Pavement repair and Ramp
07-278204,2014-03-27,2014-03-03,2014-04-18,STL LANDSCAPE INC,(323)581-8200,$640,000.00,07-LA-10, 110, 118, 134, 210, 710-Var,Install ADA curb ramps
11-2M4904,2014-03-27,2014-03-03,2014-04-23,CALMEX ENGINEERING INC,(909)546-1311,$2,253,842.14,11-SD-79-35.1 / 53.0,Apply Rubberized Hot Mix Asphalt Overlay
11-406504,2014-03-27,2014-03-03,2014-04-22,WESTERN RIM CONSTRUCTORS INC,(760)489-4328,$3,043,694.70,11-SD-15-R36.8/R40.8,Median Barrier
07-284504,2014-03-27,2014-03-03,2014-04-17,STL LANDSCAPE INC,(323)581-8200,$550,000.00,07-LA-14-R56.5/R57.0,TRANSPORTATION ENHANCEMENT
07-1W1004,2014-03-27,2014-03-03,2014-04-16,SECURITY PAVING COMPANY INC,(818)362-9200,$1,330,547.00,07-Ven-34-6.3/12.8,RHMA, SUPERPAVE (GAP GRADED) OVERLAY
03-4M4404,2014-03-26,2014-03-03,2014-04-18,QUIMU CONTRACTING INC.,(707)693-0289,$347,875.00,03-ED-50-47.7/51.6,Rehabilitate Culverts
10-0X3804,2014-03-26,2014-02-10,2014-04-17,A. TEICHERT & SON, INC. DBA TEICHERT CONSTRUCTION,(209)983-2300,$834,816.00,10-SJ-4-14.2/15.9,HMA overlay
02-4G1504,2014-03-26,2014-02-10,2014-04-28,MARTIN BROTHERS CONSTRUCTION,(916)381-0911,$3,126,740.00,02-Sha-44, 273-L0.0/L0.4, 14.5/17.1,Thin Blanket Overlay with Dig Outs
06-0Q8104,2014-03-26,2014-03-03,2014-06-06,CHESTER BROSS CONSTRUCTION COMPANY,(573)221-5958,$1,899,477.00,06-Ker-155, 204-R6.5/R11.0; R0.0/3.7,HMA Type G Overlay
03-4M7104,2014-03-26,2014-03-03,2014-04-22,TRUESDELL CORPORATION OF CALIFORNIA, INC.,(602)437-1711,$2,558,558.00,03-Nev,Pla-80, 267-VAR,Methacrylate & Polyester bridge deck overlay rehab.
05-1A3504,2014-03-26,2014-02-18,2014-04-14,CALPORTLAND CONSTRUCTION,(805)345-3581,$758,144.00,05-SB-246-29.9/31.4,HMA-A Overlay
10-0X4004,2014-03-26,2014-01-13,2014-04-17,GEORGE REED, INC.,(209)523-0730,$5,227,875.00,10-Cal-4-28.0/49.6,Resurfacing
01-0C8304,2014-03-26,2014-03-03,2014-05-20,GRANITE CONSTRUCTION COMPANY,(707)467-4100,$1,743,387.00,01-Lak-29-R48.4/52.4,Cold In-Place Recycling
06-0P3004,2014-03-26,2014-02-24,2014-04-17,BOWMAN ASPHALT,INC.,(661)334-1356,$788,928.00,06-Ker-99-46.9/48.6,Widen shoulder and construct rumble strip.
03-3F8604,2014-03-26,2014-02-24,2014-04-17,SIERRA NEVADA CONSTRUCTION, INC.,(775)355-0420,$455,007.00,03-Nev-49-9.1,Reconstruct Embankment and Roadway
05-1A3804,2014-03-26,2014-03-03,2014-04-28,OGRADY PAVING INC,(650)966-1926,$1,512,246.50,05-SCr-152-R2.0/8.3,RHMA Overlay
05-1C3404,2014-03-26,2014-02-24,2014-04-18,GRANITE CONSTRUCTION COMPANY,(831)724-1000,$895,113.00,05-SB-101-27.0/28.1,Construct Median Barrier and Rumble Strips
02-4G2004,2014-03-26,2014-02-24,2014-04-18,LINEAR OPTIONS, INC.,(530)896-1800,$229,263.00,02-Plu,Sha,Sis-5, 44, 49, 70, 89-VAR,Replace Pavement Markers
06-0P1704,2014-03-26,2014-02-24,2014-05-20,CHESTER BROSS CONSTRUCTION COMPANY,(573)221-5958,$6,643,174.00,06-Tul-99-25.0/27.6,Replace failed concrete pavement with HMA and overlay with RHMA-SP-G
06-487504,2014-03-26,2014-01-13,2014-04-22,AGEE CONSTRUCTION CORPORATION,(559)299-3290,$8,638,155.22,06-Kin-198-R16.5/R17.2,
04-3S8304,2014-03-25,2014-03-03,2014-04-23,DREAMBUILDER,(714)646-3697,$376,061.00,04-SCl-17-3.1/4.4,
07-2W0804,2014-03-20,2014-02-24,2014-04-11,CAROLINO CONSTRUCTION CORPORATION,(619)948-9163,$1,160,921.50,07-LA-105-R7.0/R13.2,DECK METH, SPALL REPAIR, APPROACH SLAB, JOINT SEAL REPLACEMENT
11-2M5104,2014-03-20,2014-02-18,2014-06-05,VSS INTERNATIONAL INC,(916)373-1500,$3,404,894.00,11-Imp-86-11.3 / 20.6,Asphalt Rubber Chip Seal and Digouts
12-0M7304,2014-03-20,2014-02-18,2014-04-10,AUTOBAHN CONSTRUCTION INC,(714)769-7025,$894,040.40,12-Ora-5-VAR,Methacrylate deck seal treatment and polyester concrete overlay
12-0M5804,2014-03-20,2014-02-24,2014-05-02,FUTURE DB INTERNATIONAL INC,(949)390-2111,$796,115.58,12-Ora-39-0.7/1.1,
07-4T5904,2014-03-20,2014-02-24,2014-04-14,UNIQUE PERFORMANCE CONSTRUCTION INC,(714)528-2220,$539,531.35,07-LA-187-4.3,Modify signal, curb ramp, median island
04-3G4844,2014-03-19,2013-10-28,2014-04-10,CERTIFIED COATINGS COMPANY,(707)639-4414,$28,638,941.00,04-CC,Mrn-580-6.3/7.7,0.0/2.5,
04-0A7104,2014-03-18,2013-09-30,2014-04-30,RGW CONSTRUCTION INC,(925)606-2400,$52,751,741.20,04-Ala-880-28.4/29.2,
07-1W6804,2014-03-13,2014-02-18,2014-04-11,ODONNELL CONSTRUCTION INC,(909)394-4510,$1,238,420.00,07-LA-10, 605-Var,DECK METH, EPOXY INJECT, JCT SEAL, PAT
11-275604,2014-03-13,2014-02-18,2014-04-07,SHIPLEY CONSTRUCTION & PLUMBING,(760)365-7957,$334,800.00,11-SD-15-54.0,UPGRADE ELECTRICAL AND MODIFY OFFICE
08-3348V4,2014-03-13,2014-02-18,2014-04-22,PACIFIC RESTORATION GROUP INC,(951)940-6069,$1,136,872.75,08-Riv-215/60-37.36/38.49,12.2/14.0,Highway Planting
12-0M3004,2014-03-13,2014-02-18,2014-04-04,ALL AMERICAN ASPHALT,(951)736-7600,$2,168,851.00,12-Ora-405-0.0/12.9,Remove and Replace RHMA Type G
11-076704,2014-03-13,2014-02-10,2014-04-11,HAL HAYS CONSTRUCTION INC,(951)788-0703,$9,235,443.00,11-Imp-5708,Construct Maintenance Facility
12-0M7404,2014-03-13,2014-02-10,2014-04-07,WESTERN STRUCTURES,(951)352-4300,$1,216,127.67,12-Ora-1, 5, 22, 405, 605-var,METHACRYLATE SEAL BRIDGE DECKS AND REPLACE FAILING JOINT SEALS
10-0W0004,2014-03-12,2013-11-25,2014-04-02,SIERRA NEVADA CONSTRUCTION, INC.,(775)355-0420,$3,897,007.00,10-Cal,Ama-26-14.0/38.3, 0.0/4.6,Rubberized HMA overlay
03-4M8004,2014-03-12,2014-01-27,2014-04-07,INTERMOUNTAIN SLURRY SEAL, INC.,(775)355-5237,$821,821.00,03-ED-89-0.0/8.6,Microsurfacing
01-497104,2014-03-12,2014-02-10,2014-05-21,INNOVATIVE CONSTRUCTION SOLUTIONS,(510)782-5415,$315,182.00,01-Men-5718,
10-0Y1204,2014-03-12,2013-11-25,2014-06-04,A. TEICHERT & SON, INC DBA TEICHERT CONSTRUCTION,(209)983-2300,$2,058,772.00,10-Mer-59-7.9/14.1,Cold In-Place Recycling and Place Hot Mix Asphalt
05-1A3604,2014-03-12,2014-02-18,2014-04-03,CALPORTLAND CONSTRUCTION,(805)345-3581,$457,679.00,05-SLO-41-19.7/21.7,HMA-A Overlay
03-4M5804,2014-03-12,2014-02-18,2014-04-15,MARTIN BROTHERS CONSTRUCTION,(916)381-0911,$1,419,834.00,03-Sac,Yol-50, 99, 160-VAR,Individual Slab Replacement
02-4G1704,2014-03-12,2014-02-10,2014-04-14,AMERICAN PAVEMENT SYSTEMS, INC.,(209)522-2277,$1,203,524.00,02-Mod-395-23.3/40.0,Asphalt Rubber Chip Seal with DigOuts
10-0X4104,2014-03-12,2014-02-18,2014-03-28,GEORGE REED, INC.,(209)523-0730,$1,886,688.00,10-SJ,Cal-12-20.8/L23.2, 23.2/27.6, 0.0/3.0,RHMA Overlay
02-4E3104,2014-03-12,2014-02-10,2014-04-14,R. BROWN CONSTRUCTION COMPANY, INC.,(530)629-3700,$999,363.50,02-Tri-299-45.9/46.2,Curve improvement.
09-359104,2014-03-12,2014-02-03,2014-04-03,QUALCON CONTRACTORS INC.,(775)782-2006,$415,150.00,09-Iny-178-60.0/62.2,Hot mix asphalt, superpave thin blanket overlay.
01-0B8404,2014-03-12,2014-02-10,2014-04-11,TIDEWATER CONTRACTORS, INC,(541)469-5341,$849,839.50,01-DN-199-T0.0/4.2,Bonded Wearing Course
02-4F4504,2014-03-12,2014-02-18,2014-04-14,TULLIS, INC.,(530)241-5105,$1,482,741.00,02-Sha-5-R34.3/R36.8,Improve Roadway Drainage
01-0C4104,2014-03-12,2014-01-27,2014-04-07,MERCER-FRASER COMPANY,(707)443-6371,$741,612.00,01-Hum-211-73.2/R74.4,Place Hot Mix Asphalt Overlay
04-3E2204,2014-03-11,2014-02-18,2014-03-24,MCK SERVICES INC,(925)957-9200,$1,079,197.00,04-Nap-29-13.5/19.8,Cold plane asphalt concrete pavement and place hot mix asphalt (Type A).
07-1W2204,2014-03-06,2014-02-10,2014-03-24,PETERSON CHASE GENERAL ENGINEERING CONSTRUCTION INC,(949)252-0441,$1,872,912.12,07-LA-10,60,91,105,210, etc.-Var,REPLACE SIGNS
07-292504,2014-03-06,2014-01-27,2014-04-03,TRAFFIC DEVELOPMENT SERVICES,(805)523-1914,$182,733.00,07-Ven-101-5.2,Modify traffic signal
07-284204,2014-03-06,2014-01-27,2014-03-26,YAKAR,(909)599-1612,$694,493.15,07-LA-5-18.2/26.7,Improve irrigation system and planting.
12-0M8804,2014-03-06,2014-02-10,2014-04-03,SOUTHWEST PIPELINE & TRENCHLESS CORP,(310)329-8717,$383,026.00,12-Ora-39-1.6/3.2,CULVERT CLEANING AND LINING
04-4S4504,2014-03-05,2014-02-10,2014-03-28,GHILOTTI CONSTRUCTION COMPANY INC,(707)585-1221,$747,044.50,04-Mrn-1-31.2,
04-3A8704,2014-03-05,2013-10-21,2014-04-16,GOLDEN STATE BRIDGE INC,(925)372-8000,$12,595,220.30,04-CC-680-22.7/24.8,
04-4S6204,2014-03-04,2014-01-27,2014-04-11,GRANITE CONSTRUCTION COMPANY,(831)724-1011,$1,388,398.25,04-Son-1-34.3/34.7,
07-2W4704,2014-02-27,2014-01-27,2014-03-26,DREAMBUILDER,(714)646-3697,$1,558,061.00,07-LA-1, 5, 10, 90, 101, etc.-Var,REPLACE CRASH CUSHIONS
11-265014,2014-02-27,2014-01-21,2014-03-21,CLEAN CUT LANDSCAPE,(559)322-2041,$3,773,053.70,11-SD-5, 163-R15.7/R16.3, 0.5/3.2,RESTORE AND ENHANCE THE HISTORICAL AND SCENIC INTEGRITY OF THE ROUTE
08-0F6604,2014-02-27,2014-01-13,2014-04-28,SKANSKA USA CIVIL WEST CALIFORNIA DISTRICT INC,(951)684-5360,$9,356,000.00,08-SBd-247-1.8/9.6,Construct Shoulders, Cold Plane and HMA Overlay
06-0R1204,2014-02-26,2014-02-03,2014-03-21,CHESTER BROSS CONSTRUCTION COMPANY,(573)221-5958,$1,767,477.00,06-Tul-65-21.8/28.4,AR Chip Seal
03-4M8904,2014-02-26,2014-02-03,2014-03-27,ARROW FENCING,(707)485-1128,$242,905.00,03-Nev-80, 89-13.2/15.0, R0.6/R1.1,Replace Fence
05-1A4604,2014-02-26,2014-02-03,2014-03-17,GRANITE CONSTRUCTION COMPANY,(831)724-1000,$2,658,336.00,05-SB,SLO-166-R25.5/R34.9,Rubberized HMA Overlay
02-4F4004,2014-02-26,2014-01-27,2014-03-18,TULLIS, INC.,(530)241-5105,$379,456.00,02-Tri-36-15.8/16.0,Roadway Rehabilitation, Pavement Focused (2R)
10-381514,2014-02-26,2014-01-13,2014-03-18,A. TEICHERT & SON INC. DBA TEICHERT CONSTRUCTION,(559)813-3025,$4,372,799.00,10-Mer-140,165-16.2,26.7/30.0,Pavement rehabilitation and shoulder widening.
09-353104,2014-02-26,2014-01-13,2014-04-15,GRANITE CONSTRUCTION COMPANY,(661)399-3361,$3,535,294.00,09-Mno-395-6.9/R9.9,Cold in-place recycled pavement and HMA superpave overlay.
06-0P7504,2014-02-26,2014-01-21,2014-04-11,NORTHWEST PAVING,(530)246-4388,$1,168,796.00,06-Ker-46-37.5/49.0,Apply polymer modified asphalt chip seal
03-4M1804,2014-02-26,2014-01-21,2014-03-18,AMERICA PACIFIC CONSTRUCTION,(559)577-9999,$185,323.00,03-Gle-162-37.7/51.0,Culvert Rehabilitation
06-0Q2904,2014-02-26,2014-01-13,2014-03-21,W. JAXON BAKER, INC.,(559)221-9246,$385,415.00,06-Tul-99-22.4,Cold plane asphalt concrete pavement and repave with HMA.
07-2W4304,2014-02-20,2014-01-27,2014-03-12,TRAFFIC DEVELOPMENT SERVICES,(805)523-1914,$746,406.00,07-LA-5,10, 105,118, 134, etc.-Var,REPLACE CRASH CUSHIONS
08-0R1904,2014-02-13,2014-01-13,2014-04-03,SMART TECH GROUP INC,(949)800-6040,$236,556.40,08-Riv-74-22.9-23.3,Install Traffic Signal
08-0G6204,2014-02-13,2014-01-06,2014-03-14,ALL AMERICAN ASPHALT,(951)736-7600,$10,394,281.00,08-SBd-38-15.0/49.5,Roadway rehabilitation
05-1A6204,2014-02-12,2014-01-06,2014-03-19,PRISM ENGINEERING INC,(510)782-4100,$927,530.00,05-SB-101-46.9,
06-0M4204,2014-02-12,2013-12-30,2014-03-18,FBD VANGUARD CONSTRUCTION,(925)245-1300,$1,226,252.10,06-Fre-41,180-R24.5/24.8, R57.9/R58.6,CONSTRUCT CONCRETE GUARD RAIL
01-484704,2014-02-12,2014-01-06,2014-04-15,GORDON N. BALL, INC.,(925)838-5675,$1,618,985.00,01-Men-1, 128-40.1/40.9, 0.0,Construct MBGR & Centerline Rumble Strips
10-0X4304,2014-02-12,2014-01-13,2014-02-27,GEORGE REED INC,(209)523-0734,$2,713,430.00,10-Tuo-108-R11.3/R21.0,Resurfacing
05-1C1804,2014-02-12,2014-01-06,2014-04-10,GRANITEROCK COMPANY DBA PAVEX CONSTRUCTION DIVISION,(408)574-1423,$3,122,991.00,05-SCr-17-9.4/9.8,Widen shoulder and construct soil nail wall.
02-4E4104,2014-02-12,2014-01-13,2014-03-18,J. F. SHEA CONSTRUCTION, INC.,(530)246-4292,$5,171,620.00,02-Tri-299-53.5/64.0,HMA overlay and reconstruct guard rail
06-0P1604,2014-02-12,2014-01-06,2014-03-13,A. TEICHERT & SON INC. DBA TEICHERT CONSTRUCTION,(559)813-3025,$3,640,331.60,06-Kin-198-R14.7/R17.9,Overlay CAPM
04-3E4004,2014-02-11,2014-01-13,2014-03-26,CHESTER BROSS CONSTRUCTION CO,(209)920-3595,$2,932,448.00,04-Nap-128-19.1/34.3,Rubberized bonded Wearing Course -gap graded overlay.
07-259204,2014-02-06,2013-12-30,2014-03-10,BALTAZAR CONSTRUCTION INC,(626)339-8610,$1,965,606.62,07-LA-10-R8.8/13.5,SAND FILTERS & INFILTRATION DEVICES
R07-3P720,2014-02-06,2014-01-13,2014-03-20,P K CONSTRUCTION,(626)773-6963,$210,000.00,07-LA-60-0.5,REPLACE AC AND PCC PAVEMENT
08-0G2904,2014-02-06,2013-12-30,2014-04-18,ALL AMERICAN ASPHALT,(951)736-7600,$2,122,643.48,08-SBd-15-12.8,
04-265604,2014-02-04,2013-12-02,2014-03-10,GRANITE ROCK COMPANY,(408)574-1400,$7,147,138.00,04-SM-1-40.6/40.9,Bridge replacement , roadway and creek re-alignment
04-153304,2014-02-04,2013-11-25,2014-04-02,BAY CITIES PAVING & GRADING INC,(925)687-6666,$11,495,702.11,04-SCl-101-0.0/26.7,Install TOS, ramp metering and ramp widening.
11-002704,2014-01-30,2013-09-03,2014-03-17,LB CIVIL CONSTRUCTION INC,(858)481-5222,$6,073,482.00,11-SD-5, 8-R19.9/R21.2, R0.0/R0.7,Construct Auxiliary Lanes / Widen Connector.
08-0L9004,2014-01-30,2014-01-06,2014-02-18,INTEGRATED WATER SERVICES INC,(925)895-3895,$786,862.20,08-Riv-10-R71.8/R72.3,
02-4E6104,2014-01-29,2014-01-06,2014-02-25,R. BROWN CONSTRUCTION COMPANY, INC.,(530)629-3700,$233,797.50,02-Tri-299-48.3, 49.5,Place RSP and modify drainage.
02-4E6304,2014-01-29,2014-01-06,2014-04-08,STEWART ENGINEERING INC,(530)244-8464,$2,389,390.00,02-Sis-96-56.0,Fish Passage - Replace Culvert with Bridge
06-0P3804,2014-01-29,2013-12-30,2014-02-24,PAPICH CONSTRUCTION CO. INC.,(805)473-3016,$239,999.00,06-Tul-99-9.0/10.6,Slab Replacement
03-0F2204,2014-01-29,2013-11-18,2014-02-25,VIKING CONSTRUCTION COMPANY, INC.,(916)852-5500,$5,241,718.50,03-ED-50-R30.7/R31.7,Replace Bridge.
10-0Y2604,2014-01-29,2013-12-30,2014-03-05,KNIFE RIVER CONSTRUCTION,(209)948-0302,$1,420,431.00,10-Sta-33-14.5/17.9,Cold In-Place Recycling
05-1C9104,2014-01-29,2013-12-30,2014-02-28,AMERICAN CIVIL CONSTRUCTORS WEST COAST, INC.,(707)746-8028,$599,373.60,05-Mon,SCr-1, 68, 129-var,Bridge Maintenance - Seal Bridge Decks
10-0Q8004,2014-01-29,2013-12-30,2014-02-20,NORCAL GENERAL CONSTRUCTION CORPORATION,(408)886-0335,$704,393.68,10-SCl,SBt-152,156-Var,Install Changeable Message Signs
02-4E2804,2014-01-29,2013-12-30,2014-02-25,TULLIS, INC.,(530)241-5105,$1,022,640.00,02-Sis-5-R45.6/R47.3, R62.0/R62.8,Operational Improvements
04-3E5004,2014-01-28,2013-12-16,2014-02-25,MYERS AND SONS CONSTRUCTION LP,(916)283-9950,$705,660.60,04-Sol-80, 113, 505-Var,TREAT BRIDGE DECK WITH METHACRYLATE AND REPLACE JOINT SEAL
04-3G7404,2014-01-28,2013-12-30,2014-04-11,DRILL TECH DRILLING & SHORING INC,(925)978-2060,$1,180,771.00,04-Son-1-29.9,
08-0P3104,2014-01-23,2013-12-16,2014-02-20,SMART TECH GROUP INC,(949)800-6040,$326,480.40,08-SBd-395-16.2,INSTALL LEFT-TURN PHASING
11-2M4304,2014-01-23,2013-12-09,2014-02-07,PETERSON-CHASE GENERAL ENGINEERING CONSTRUCTION INC,(949)252-0441,$797,310.50,11-SD-8-6.3/9.0,Slab replacement, HMA shoulder and Aux Lane HMA
04-3E3104,2014-01-22,2013-12-23,2014-02-12,FBD VANGUARD CONSTRUCTION INC,(925)245-1300,$662,200.00,04-SCl-101-R5.0/R17.7,INDIVIDUAL SLAB REPLACEMENT WITH RAPID STRENGTH CONCRETE
04-3E4604,2014-01-22,2013-12-09,2014-02-12,AMERICAN CIVIL CONSTRUCTORS WEST COAST INC,(707)746-8028,$787,585.00,04-CC-4,24,80,160,242,680-Var,TREAT BRIDGE DECKS WITH METHACRYLATE AND REPLACE JOINT SEALS
07-1W5804,2014-01-16,2013-12-09,2014-03-06,AUTOBAHN CONSTRUCTION INC,(714)769-7025,$822,794.00,07-LA-105-R0.5/R6.3,METH DECK, JOINT SPALL REPR, JT SEAL
04-245444,2014-01-14,2013-11-18,2014-02-07,GHILOTTI CONSTRUCTION COMPANY INC,(707)585-1221,$2,258,326.00,04-Son-101-33.3,Widen HMA street, replace PCC sidewalks, install signals and lighting
05-1A3404,2014-01-14,2013-12-09,2014-03-11,CALPORTLAND CONSTRUCTION,(805)345-3581,$959,323.00,05-SB-192-R0.0/2.8,Seal Coat
07-215954,2014-01-09,2013-10-14,2014-04-24,SECURITY PAVING COMPANY INC,(818)362-9200,$79,220,576.40,07-LA-5-0.0/7.6,
04-1A2904,2014-01-08,2013-08-26,2014-03-11,GHILOTTI CONSTRUCTION COMPANY INC,(707)585-1221,$7,418,001.00,04-Son-12-9.6,
06-0N2004,2014-01-08,2013-12-02,2014-02-04,MIDSTATE BARRIER INC,(209)944-9565,$1,845,039.30,06-Mad-99-20.2/22.7,Median Barrier and Overhead Sign
09-354304,2014-01-08,2013-11-18,2014-02-04,QUALCON CONTRACTORS INC,(775)782-2006,$837,390.00,09-Mno-6-2.4/4.0,Shoulder widening.
06-0Q8404,2014-01-07,2013-11-18,2014-02-10,NORTHWEST PAVING,(530)246-4388,$2,286,123.00,06-Ker-43, 58, 223-Var,PME (CHIP SEAL)
02-4G1104,2014-01-07,2013-12-02,2014-02-05,DIG IT CONSTRUCTION INC,(530)258-3306,$1,413,430.00,02-Teh-32-10.0/16.0,Asphalt Rubber Thin Blanket with Dig-Outs
05-1A0904,2014-01-07,2013-11-25,2014-03-10,AMERICA PACIFIC CONSTRUCTION,(559)577-9999,$199,669.80,05-SLO-58-20.1,Replace culvert
04-3E5504,2014-01-07,2013-12-02,2014-01-21,JEFFCO PAINTING & COATING,(707)562-1900,$452,275.00,04-Nap,Sol-29, 80-11.6, 1.8,SPOT BLAST CLEAN AND PAINT ALL STEEL ELEMENTS
07-1170U4,2013-12-19,2013-10-14,2014-02-10,AMES CONSTRUCTION, INC.,(951)356-1275,$91,210,746.50,07-LA-10-33.2/37.2,
10-0W1204,2013-12-18,2013-11-12,2014-01-23,BAY CITIES PAVING & GRADING INC,(925)687-2122,$7,386,080.22,10-SJ-4-R8.3/T14.3,REHABILITATE EXISTING ASPHALT CONCRETE PAVEMENT (HMA OVERLAY)
06-0J9204,2013-12-18,2013-11-25,2014-01-28,RSB GROUP INC,(949)454-1999,$1,198,426.15,06-Fre-145-32.8/33.4,Construct roundabout.
06-0Q7704,2013-12-18,2013-11-18,2014-02-19,TEICHERT CONSTRUCTION,(559)813-3100,$1,515,429.00,06-Tul-43-0.0/9.5,TR OVERLAY
09-358504,2013-12-18,2013-11-18,2014-01-29,INTERMOUNTAIN SLURRY SEAL INC,(775)358-1355,$561,686.00,09-Mno-6-26.5/32.3,Asphalt rubber seal coat.
04-4A6304,2013-12-18,2013-11-25,2014-01-30,GHILOTTI BROS INC,(415)454-7011,$1,504,218.70,04-SF,SCl-9,35,82,152,280,880 -Var,Construct curb ramps.
03-3F4404,2013-12-17,2013-10-28,2014-01-08,HANSEN BROS ENTERPRISES,(530)273-3381,$1,980,000.00,03-Pla-89-T8.6/12.8,Install Pipe and Raise Profile
07-3X3504,2013-12-12,2013-11-04,2014-01-16,RSB GROUP INC,(949)454-1999,$644,015.00,07-LA-105-R2.6,RECONSTRUCT FAILED SLOPE/HYDRO SEED
10-0X2104,2013-12-11,2013-11-04,2014-01-23,TRICON AQUATICS,(916)638-8667,$5,395,360.00,10-Alp,Ama,Cal-4,88-Var,CONSTRUCT WASH BUILDINGS
04-4A2604,2013-12-11,2013-11-12,2014-01-09,APEX FENCE CO INC,(530)365-3316,$2,395,000.00,04-Ala,CC-4, 80, 84, 580, 680-Var,
05-0C9014,2013-12-10,2013-11-12,2013-12-23,BEAR ELECTRICAL SOLUTIONS INC,(408)449-5178,$366,075.00,05-SCr-1-8.4/14.9,
07-1W1404,2013-12-05,2013-11-04,2013-12-18,AUTOBAHN CONSTRUCTION INC,(714)769-7025,$1,106,692.00,07-LA-1-21.9/23.9,MILL AND PAVE, DIGOUTS
04-4A5104,2013-12-04,2013-08-26,2014-01-14,GOLDEN STATE BRIDGE INC,(925)372-8000,$3,977,777.00,04-SF-280-R5.2/R6.0,
08-0G8404,2013-11-21,2013-10-21,2013-12-12,RSM2 CONTRACTORS INC,(619)698-7777,$8,158,512.45,08-SBd,Sac-5,15-23.3,107.3,
04-0A5344,2013-11-20,2013-09-09,2014-03-19,DESILVA GATES-VIKING JV,(925)829-9220,$45,812,551.00,04-Sol-12,80-2.1/2.8,12.0/13.1,
10-0S1104,2013-11-20,2013-08-19,2013-12-16,BROSAMER & WALL INC,(925)932-7900,$51,977,490.30,10-SJ-4,5-Var,
04-3E2104,2013-11-19,2013-10-21,2014-02-07,ABSL CONSTRUCTION,(510)727-0900,$371,912.50,04-Son-101-29.3/R38.7,Replace existing concrete pavement.
11-282404,2013-11-14,2013-09-09,2013-12-12,WESTERN RIM CONSTRUCTORS INC,(760)489-4328,$2,778,921.34,11-SD-15, 94-Var,Stormwater Mitigation
02-1E0604,2013-11-13,2013-10-21,2013-12-10,STUDEBAKER BROWN ELECTRIC INC,(916)788-1626,$209,900.00,02-Mod-139-22.6/22.8,Install closed circuit television and road weather information system.
07-290904,2013-11-07,2013-10-07,2013-12-10,PETERSON CHASE GENERAL ENGINEERING CONSTRUCTION INC,(949)252-0441,$706,650.00,07-LA-210-R6.8/R7.1,REPLACE MBGR TO CONCRETE BARRIER
07-3X3904,2013-11-07,2013-09-09,2014-01-30,PETERSON CHASE GENERAL ENGINEERING CONSTRUCTION INC,(949)252-0441,$2,241,528.50,07-LA-1-8.7,REPLACE ENTIRE CRIB WALL SYSTEM
12-0H2084,2013-11-07,2013-08-12,2014-02-05,CHUMO CONSTRUCTION INC,(626)960-9502,$2,480,085.50,12-Ora-55-17.0/17.7,
08-435414,2013-11-07,2013-09-30,2013-12-05,DREAMBUILDER,(714)646-3697,$314,061.00,08-SBd-40-18.0,Place Rock Slope Protection
03-3E1004,2013-11-06,2013-08-26,2014-01-28,RGW CONSTRUCTION INC,(925)606-2400,$20,643,515.00,03-Pla-080-8.1/37.8,
04-2A6204,2013-11-06,2013-08-26,2014-01-23,RGW CONSTRUCTION INC,(925)606-2400,$8,241,477.85,04-Sol-12-20.6/23.5,
06-0Q8504,2013-11-06,2013-10-14,2013-12-05,NORTHWEST PAVING,(530)246-4388,$668,327.00,06-Ker-119-0.0/r9.5,APPLY POLYMER ASPHALT EMULSION (SEAL COAT)
05-0T9704,2013-11-05,2013-10-14,2013-12-05,SOUZA CONSTRUCTION INC,(805)546-8288,$674,258.19,05-SB-246-33.2/33.5,Left-Turn Channelization
07-272404,2013-10-31,2013-08-26,2013-12-04,FUTURE DB INTERNATIONAL INC,(949)390-2111,$1,128,198.50,07-LA-5-14.9/16.8,STORM WATER SOURCE CONTROL
12-0F96E4,2013-10-31,2013-08-19,2013-12-04,SHIMMICK CONSTRUCTION COMPANY INC,(949)333-1500,$35,508,869.00,12-Ora-5-6.2/8.7,
06-0Q6604,2013-10-30,2013-10-07,2013-11-19,MICHELS PIPELINE CONSTRUCTION,(503)364-1199,$324,462.00,06-Fre-168-L32.5/R36.2,Install cured-in-place pipeliner
07-4X1104,2013-10-28,2013-10-21,2013-10-28,C A RASMUSSEN INC,(661)367-9040,$4,128,795.80,07-LA-2,5-15.1,22.5,
11-294804,2013-10-24,2013-07-29,2013-11-19,RSM2 CONTRACTORS INC,(619)698-7777,$1,275,147.66,11-Imp-186-0.0/0.4,Pedestrian/Transit Facilities - (TE)
08-0M4204,2013-10-24,2013-09-30,2013-11-18,ALCORN FENCE COMPANY,(323)875-1342,$460,733.00,08-Riv-74-6.9/10.2,Install metal beam guard railing
08-0J0104,2013-10-24,2013-09-30,2013-11-20,DREAMBUILDER,(714)646-3697,$468,901.00,08-SBd-18-53.5,Construct left turn in both direction widen shoulder west bound
06-0Q5404,2013-10-22,2013-09-16,2013-11-19,ROADWAY ENGINEERING WORKS INC,(209)541-0920,$5,998,555.00,06-Fre,Mad-5,41,99,145-Var,Repair damage electrical and irrigation equipment
07-4H9004,2013-10-17,2013-08-26,2013-11-13,POWELL CONSTRUCTORS INC,(909)356-8880,$1,876,702.75,07-LA-60-20.6,Construct retaining wall and widen offramp
04-4S7704,2013-10-16,2013-09-23,2013-10-30,DREAMBUILDER,(714)646-3697,$318,061.00,04-Mrn-1-1.0 ,Modify and upgrade drainage system.
05-0G0704,2013-10-15,2013-08-26,2013-11-21,FLATIRON WEST INC,(760)916-9100,$16,629,374.00,05-SB-101-22.3/23.0,
06-0Q5504,2013-10-15,2013-09-16,2013-11-19,TABER CONSTRUCTION INC,(925)682-6133,$5,430,650.00,06-Fre-168, 180-VAR,Electrical Restoration
07-259014,2013-10-10,2013-08-19,2013-11-08,POWELL CONSTRUCTORS INC,(909)356-8880,$2,991,605.05,07-LA-710-6.7/R15.9,
08-449104,2013-10-10,2013-08-26,2013-12-17,J MCLOUGHLIN ENGINEERING CO INC,(909)944-1037,$4,103,484.66,08-Riv-111-1.5,
08-0N5104,2013-10-10,2013-09-16,2013-11-19,ALABBASI,(951)776-9300,$1,878,000.00,08-Riv,SBd-15-51.5/51.7, 1.8/2.2,REMOVE GUARD RAILING AND PLACE CONCRETE BARRIER
07-2777U4,2013-10-10,2013-08-26,2013-11-07,YAKAR,(909)599-1612,$2,448,840.95,07-LA-5, 134-25.2/27.5, 4.8/R5.9,Erosion Control
09-353304,2013-10-09,2013-09-09,2013-11-07,HERBACK GENERAL ENGINEERING,(775)267-6800,$972,216.55,09-Mno-395-34.1,
04-3G0204,2013-10-09,2013-09-09,2013-12-18,PAVEX CONSTRUCTION DIVISION,(408)574-1400,$598,081.00,04-SM-35-13.1,Construct Soldier Beam Retaining Wall.
02-360704,2013-10-09,2013-08-19,2013-11-05,J F SHEA CONSTRUCTION INC,(530)246-4292,$21,694,433.00,02-Sha-299-30.3/40.7,ROADWAY REHABILITATION
03-3F4104,2013-10-08,2013-09-09,2013-11-20,DREAMBUILDER,(714)646-3697,$882,061.00,03-Pla-49, 80, 193-VAR,Install Concrete Barrier
01-476604,2013-10-08,2013-09-03,2013-11-04,GOLDEN STATE BRIDGE INC,(925)372-8000,$3,075,817.45,01-Men-128-35.0/35.3,
08-0K2304,2013-10-03,2013-08-26,2013-11-08,SKANSKA USA CIVIL WEST CALIFORNIA DISTRICT INC,(951)684-5360,$3,968,324.50,08-Riv-10-R57.6/R60.9,Pave shoulder with RHMA-G, replace conc slabs and ramp termini, grind concrete pavement
12-0H4404,2013-10-03,2013-08-12,2013-10-30,ORTIZ ENTERPRISES INCORPORATED,(949)753-1414,$11,397,909.00,12-Ora-73-10.0/24.5,Storm Water Mitigation AND Slope Stabilization.
07-4T5704,2013-10-03,2013-08-26,2013-11-05,PETERSON CHASE GENERAL ENGINEERING CONSTRUCTION INC,(949)252-0441,$848,313.30,07-LA-105-R0.5,DRANAGE/ROADWORK, RDWRK/FLSHNG BCN/LGTHNG DRNG,STRPNG
07-2759U4,2013-10-03,2013-08-26,2013-10-29,YAKAR,(909)599-1612,$1,348,290.75,07-LA-101, 110-1.6,23.7,INSTALL PLANTS FOR EROSION CONTROL
01-0C1004,2013-10-02,2013-09-09,2013-12-17,NORTHWEST PAVING,(530)246-4388,$509,911.00,01-Hum-36-40.5/45.7,Place Rubberized Seal Coat
01-479404,2013-10-01,2013-08-12,2013-12-10,FLATIRON WEST INC,(707)742-6000,$13,624,157.50,01-DN-199-20.3/25.9,
03-1F9104,2013-10-01,2013-08-26,2013-11-19,HANSEN BROS ENTERPRISES,(530)273-3381,$774,699.00,03-Nev-49-4.3/4.8,Add left turn lanes and shoulders at two locations.
07-1952U4,2013-09-26,2013-07-29,2013-11-21,SECURITY PAVING COMPANY INC,(818)362-9200,$24,660,757.40,07-Ven-23, 101-3.3/3.8, R0.1/R4.5,
11-287704,2013-09-26,2013-07-22,2013-10-24,KINSMAN CONSTRUCTION INC,(858)875-2950,$1,357,829.00,11-SD-5506,UPGRADE MATERIALS LAB FACILITY
11-287904,2013-09-26,2013-08-26,2013-10-25,S & B ENGINEERING INC,(619)390-6570,$647,451.50,11-SD-94-32.8/40.3,Reconstruct Metal Beam Guard Rail and End Treatment
04-1A6714,2013-09-25,2013-08-26,2014-02-27,BAY LINE CUTTING AND CORING INC,(510)527-1000,$4,299,000.00,04-Ala-580-46.0/46.6,
09-351604,2013-09-25,2013-08-26,2013-10-25,GRANITE CONSTRUCTION COMPANY,(661)399-3361,$5,163,772.00,09-Iny-395-45.6/50.3, 50.9/52.9,Cold in-place recycled pavement and hma superpave overlay.
03-2F1504,2013-09-25,2013-08-26,2014-02-26,SIERRA NEVADA CONSTRUCTION INC,(775)355-0420,$947,007.00,03-ED-49-30.9/31.3,Left Turn Channelization
06-0J9304,2013-09-25,2013-09-03,2013-10-15,JABRE CONTRACTING,(310)720-0277,$912,589.00,06-Fre,Ker,Tul-33, 46, 63, 119, 216, 223-Var,Install guardrail and extend culverts
05-463814,2013-09-25,2013-08-26,2013-10-25,EMPIRE LANDSCAPING INC.,(530)400-3943,$495,762.50,05-SB-101-83.2/83.8,Irrigation, planting, erosion control, and plant establishment
01-378164,2013-09-24,2013-08-26,2013-12-04,ARGONAUT CONSTRUCTORS,(707)542-4862,$3,939,199.50,01-Men-128-VAR,Culvert Rehabilitation
04-2A4304,2013-09-24,2013-08-19,2013-11-19,RGW CONSTRUCTION INC,(925)606-2400,$4,959,174.30,04-SCl-9-2.5/7.0,
06-0N3604,2013-09-24,2013-08-26,2013-10-15,C A RASMUSSEN INC,(661)367-9040,$1,218,487.00,06-Ker-5-10.4/R15.8,Replace damaged asphalt concrete pavement with concrete.
12-0L74U4,2013-09-19,2013-07-29,2013-10-14,ALL AMERICAN ASPHALT,(951)736-7600,$14,678,599.55,12-Ora-55-2.0/11.8,
07-288014,2013-09-19,2013-07-29,2013-10-18,SECURITY PAVING COMPANY INC,(818)362-9200,$40,356,010.57,07-LA-210-R9.7/R16.1,
11-408904,2013-09-19,2013-08-19,2013-10-21,TRUESDELL CORPORATION OF CALIFORNIA INC,(602)437-1711,$2,058,058.00,11-SD-5, 15, 52, 56, 78, etc.-Var,Clean and treat bridge deck with methacrylate and replace joint seals
08-0M4504,2013-09-19,2013-08-26,2013-10-09,DREAMBUILDER,(714)646-3697,$461,061.00,08-SBd-38-R5.2/5.5,Add left turn pockets
07-1W3204,2013-09-19,2013-08-26,2013-10-15,DREAMBUILDER,(714)646-3697,$223,086.00,07-LA-405-6.0/6.5,ADA UPGRADE
06-0N3904,2013-09-18,2013-08-26,2013-10-28,MASS X INC,(559)472-3274,$242,386.84,06-Tul-245-20.8,Construct rock slope protection.
03-1F3304,2013-09-17,2013-08-26,2013-10-14,DOUG VEERKAMP GENERAL ENGINEERING INC,(530)676-0825,$416,637.40,03-ED-193-18.7,IMPROVE SUPERELEVATION
01-450904,2013-09-17,2013-08-12,2013-10-15,STEELHEAD CONSTRUCTORS INC,(530)226-6400,$3,755,503.00,01-Hum-169-13.6/23.4,
07-278804,2013-09-12,2013-08-19,2013-10-15,BRUTOCO ENGINEERING & CONSTRUCTION INC,(909)350-3535,$1,879,006.50,07-LA-5-R54.4/R54.8,
02-4E5304,2013-09-10,2013-07-01,2013-10-25,J F SHEA CONSTRUCTION INC,(530)246-4292,$5,990,867.00,02-Sha-Var-Var,
08-0K5204,2013-09-05,2013-08-12,2013-10-16,COFFMAN SPECIALTIES INC,(858)536-3100,$1,885,000.00,08-SBd-15-11.1,Construct box culvert
12-0M4304,2013-09-05,2013-08-12,2013-10-08,KAVEH ENGINEERING AND CONSTRUCTION INC,(714)793-6655,$447,808.00,12-Ora-261-0.0,3.5,CULVERT JOIN SEALING, CONTACT GROUTING AND INVERT PAVING
12-0L9704,2013-09-05,2013-08-12,2013-12-13,TRAFFIC DEVELOPMENT SERVICES,805-523-1914,$605,220.00,12-Ora-39-2.1, 3.1, 6.1,Add lighting, modify signals, and update ADA installations.
11-056324,2013-09-05,2013-07-01,2013-10-02,COFFMAN SPECIALTIES INC,(858)536-3100,$49,685,000.00,11-SD-11, 905 - 0.0/1.6,R9.9/R10.7,Construct freeway to freeway connectors
07-278304,2013-09-05,2013-06-10,2013-10-02,POWELL CONSTRUCTORS INC,(909)356-8880,$2,470,000.00,07-LA-405-4.3,Bridge Rehab
11-401404,2013-08-29,2013-06-03,2013-10-02,GRANITE CONSTRUCTION COMPANY,(760)732-0915,$9,657,643.00,11-SD-VAR-VAR,Remove existing MBGR and Replace with Concrete Barrier and upgrade Crash Cushions
01-0C5104,2013-08-27,2013-08-12,2013-09-19,AMERICAN CIVIL CONSTRUCTORS WEST COAST INC,(707)746-8028,$222,900.00,01-Hum,DN-101,199-Var,Install High Friction Surface Treatment
01-0C3604,2013-08-27,2013-08-12,2013-09-19,AMERICAN CIVIL CONSTRUCTORS WEST COAST INC,(707)746-8028,$552,148.00,01-Men-101-R21.4/R26.1,Install High Friction Surface Treatment
12-0G3314,2013-08-22,2013-07-22,2013-10-03,PACIFIC RESTORATION GROUP INC,(951)940-6069,$2,006,001.00,12-Ora-91-9.1/15.1,Highway Replacement Planting
10-0S9504,2013-08-21,2013-07-29,2013-09-19,BRIAN J FEDERICO,(209)839-0963,$644,571.98,10-Mer-99-13.1/R36.7,PAINT BRIDGE AND SLOPE PAVING
03-2F9704,2013-08-21,2013-07-08,2013-09-04,GEORGE REED INC,(209)523-0734,$1,399,717.00,03-Col-20-28.2/30.5,HMA Overlay
06-462204,2013-08-20,2013-07-08,2013-09-24,GRANITE CONSTRUCTION COMPANY,(559)441-5700,$4,459,284.00,06-Kin-198-R14.7/R18.0,Rehabilitate bridge decks
04-2356A4,2013-08-20,2013-07-15,2013-09-18,BORTOLUSSI & WATKIN INC,(415)453-4675,$1,016,104.00,04-SM-101-0.9/3.6,Replace highway planting and irrigation.
05-0T0004,2013-08-13,2013-07-22,2013-09-12,GRANITE CONSTRUCTION COMPANY,(805)964-9951,$3,391,036.00,05-SB-154-R7.8/R8.3,Construct rural roundabout
05-0R9104,2013-08-13,2013-07-08,2013-11-22,RGW CONSTRUCTION INC,(925)606-2400,$1,725,252.00,05-SCr-1-9.7/17.6,Upgrade MBGR, Construction concrete barrier & retaining walls & guardrail
01-0B1304,2013-08-13,2013-07-22,2013-10-08,TIDEWATER CONTRACTORS INC,(541)469-5341,$294,754.50,01-DN-101-13.3,HMA Leveling
08-0M3104,2013-08-08,2013-07-15,2013-08-23,RAKAN INC,(949)698-9872,$185,560.00,08-SBd,Riv-210,60,91-Var,INSTALL CURB RAMPS AND CURB RAMP DETECTABLE WARNING SURFACES
07-2768U4,2013-08-08,2013-07-08,2013-09-23,STL LANDSCAPE INC,(323) 581-8200,$1,680,000.00,07-LA-210-R0.8/R4.9,Erosion Control
12-0C5604,2013-08-08,2013-06-17,2013-10-11,OHL USA INC,(949)242-4432,$18,596,892.95,12-Ora-91-8.1/9.3, 10.1,
09-354104,2013-08-07,2013-07-15,2013-08-28,GRANITE CONSTRUCTION COMPANY,(661)399-3361,$2,282,029.00,09-Mno-395-63.9/65.1,Cold in-place recycled pavement and hotmix asphalt superpave overlay.
06-0H1704,2013-08-07,2013-07-08,2013-12-04,EMMETTS EXCAVATION INC,(559)299-1256,$2,336,823.80,06-Fre-180-77.2,Bridge replacement
01-0A2304,2013-08-06,2013-07-08,2013-09-05,ROBERT J FRANK CONSTRUCTION INC,(530)222-1408,$484,157.00,01-Men-020-R0.0,Construct Sidewalk, Curb Ramps, and Retaining Wall
08-491804,2013-08-01,2013-06-10,2013-08-15,MATICH CORPORATION,(909)382-7400,$10,560,000.00,08-Riv-62-0.0/R6.7,
08-0M6904,2013-08-01,2013-07-01,2013-08-16,V A P CONSTRUCTION INC,(714)253-3270,$369,575.00,08-SBd-95-57.0/R57.3,Install sidewalks, curbs and ramps
07-3X4104,2013-08-01,2013-07-08,2013-11-07,GRANITE CONSTRUCTION,6617264447,$1,298,462.00,07-LA-2-32.5,REGRADE SLOPE/CONSTRUCT DEBRIS WALL
01-0B1004,2013-07-30,2013-07-08,2013-09-20,DESERT CONCEPTS CONSTRUCTION INC,(760)200-9007,$868,779.60,01-Hum-101-86.3/87.8,Install Cable Median Barrier
04-4S1604,2013-07-30,2013-07-08,2013-10-28,GORDON N BALL INC,(925)838-5675,$511,125.00,04-Son-1-21.7,
11-404304,2013-07-25,2013-06-03,2013-08-16,HAZARD CONSTRUCTION COMPANY,(858)587-3600,$2,848,439.75,11-SD-5-R23.9/R25.5,OUTER SEPARATION BARRIER
08-368504,2013-07-25,2013-06-03,2013-10-14,LAS VEGAS PAVING CORPORATION,(702)251-5800,$38,987,288.00,08-SBd-15-177.3/181.1 ,
08-0N5704,2013-07-25,2013-06-17,2013-08-23,ODONNELL CONSTRUCTION INC,(909)394-4510,$175,380.00,08-SBd-40-R140.7,
03-0F2304,2013-07-24,2013-05-13,2013-08-26,MYERS AND SONS CONSTRUCTION LP,(916)649-4504,$17,322,574.75,03-Sac-50-L1.3/L2.2,
04-2A1104,2013-07-24,2013-06-17,2013-10-24,GORDON N BALL INC,(925)838-5675,$2,186,629.00,04-Nap-121-20.2/20.4 PM,Bridge Replacement (Scour)
01-459704,2013-07-23,2013-06-17,2013-08-28,GOLDEN STATE BRIDGE INC,(925)372-8000,$2,114,143.00,01-Hum-101-97.7/100.7,
10-0T1604,2013-07-23,2013-07-01,2013-10-02,CHESTER BROSS CONSTRUCTION,(209) 920-3595,$2,099,445.00,10-SJ-26-18.5/19.0,Curve realignment and replace bridge.
10-0G8004,2013-07-16,2013-04-29,2013-08-13,OC JONES & SONS, INC,(510)526-3424,$29,049,024.00,10-SJ-12-0.1/R4.4,
08-0K3104,2013-07-11,2013-06-17,2013-10-03,LAS VEGAS PAVING CORPORATION,(702)251-5800,$2,022,122.00,08-SBd-95-51.2/51.7,
07-265904,2013-07-11,2013-06-03,2013-10-01,PETERSON-CHASE GENERAL ENGINEERING CONSTRUCTION INC,(949)252-0441,$2,623,136.25,07-LA-101-1.6/10.4,UPGRADE BRIDGE RAILS
01-364324,2013-07-09,2013-06-03,2013-08-15,KENS WATER TENDER INC,(530)629-4397,$1,155,898.00,01-Men-1, 20, 101-Var,
11-290404,2013-06-27,2013-05-20,2013-07-31,GRANITE CONSTRUCTION COMPANY,(760)732-0915,$12,756,879.00,11-SD-94-14.9/30.0,PAVEMENT REHABILITATION
12-0L3804,2013-06-27,2013-05-28,2013-10-17,HIGHLAND CONSTRUCTION, INC.,(714)538-5156,$1,836,531.50,12-Ora-39-1.1/19.2,
01-0B1904,2013-06-26,2013-06-03,2013-08-15,DIRT AND AGGREGATE INTERCHANGE INC,(503)661-5093,$955,555.00,01-Hum-101-54.3/56.8,Install Median Barrier
06-0E6604,2013-06-26,2013-06-03,2013-07-19,CLEANCUT LANDSCAPE,(559)322-2041,$673,112.00,06-Ker-99-17.5/29.9,Replace chain link railing, place slope paving and irrigation conduit.
06-0N3804,2013-06-25,2013-06-03,2013-08-05,GRANITE CONSTRUCTION COMPANY,(661)399-3361,$465,675.00,06-Ker-178-14.3, 15.7,Construct concrete slab structures.
03-1A7314,2013-06-25,2013-05-13,2013-08-08,DON GARCIA EXCAVATING AND PAVING INC,(530)577-0558,$5,371,038.10,03-ED-50-67.6/72.9,
03-0F3004,2013-06-25,2013-05-28,2013-09-05,PROVEN MANAGEMENT INC,(415)421-9500,$1,398,754.00,03-ED-50-17.8, 19.6,
07-4T5804,2013-06-20,2013-05-28,2013-07-18,TRAFFIC DEVELOPMENT SERVICES,(805)523-1914,$265,792.00,07-LA-210-R24.2,Install traffic signal and construct ADA curb ramps.
12-0L7504,2013-06-20,2013-05-13,2013-08-08,PETERSON-CHASE GENERAL ENGINEERING CONSTRUCTION INC,(949)252-0441,$616,890.00,12-Ora-91-R0.3,SHOULDER WIDENING, SIGNING, STRIPING AND GUARDRAIL MODIFICATION
04-3S7524,2013-06-19,2013-05-20,2013-07-09,KENS WATER TENDER INC,(530)629-4397,$344,555.00,04-Son-1-40.1,Replace culvert and install rock slope protection
11-290304,2013-06-13,2013-05-13,2013-08-15,PETERSON-CHASE GENERAL ENGINEERING CONSTRUCTION INC,(949)252-0441,$2,833,423.00,11-SD-75, 805-9.0, 20.2,Seismic Retrofit and Structure Rehabilitation
06-0E6704,2013-06-12,2013-05-20,2013-07-03,RSB GROUP INC,(949)454-1999,$323,462.00,06-Tul-99-6.1/29.9,99 Corridor-Bridge Enhancement
04-1123H4,2013-06-11,2013-05-13,2013-07-01,EMPIRE LANDSCAPING INC,(530)400-3943,$1,729,894.00,04-SM-1-38.2/39.7,Highway planting to be performed and irrigation system to be installed
11-402804,2013-06-06,2013-04-15,2013-07-02,HAZARD CONSTRUCTION COMPANY,(858)587-3600,$3,147,883.00,11-SD-52-5.0/6.2,Pavement rehabilitation.
11-264114,2013-05-30,2013-04-02,2013-07-15,DISNEY CONSTRUCTION INC,(650)259-9545,$16,548,443.00,11-SD-163-1.4,SEISMIC RETROFIT
04-1G5604,2013-05-21,2013-04-08,2013-10-07,FLATIRON WEST INC,(707)742-6000,$3,198,824.00,04-Ala-880-31.0/31.6,
11-2T1834,2013-05-03,2013-03-25,2013-07-12,WESTERN RIM CONSTRUCTORS INC,(760)489-4328,$5,165,986.98,11-SD-805-5.8/13.0,Soundwalls
02-2E3504,2013-04-30,2013-04-08,2013-07-19,STEELHEAD CONSTRUCTORS INC,(530)226-6400,$3,962,664.00,02-Tri-299-0.4/0.9,